[[{"header":{"parameterUnit":"m.s-1","parameterCategory":1,"la1":31.0,"la2":29.5877,"lo1":-88.7671,"lo2":-86.6584,"dy":0.0162,"dx":0.0185,"nx":115,"ny":88,"refTime":"2024-04-13T06:00:00:Z","depth":0,"parameterNumber":2,"parameterNumberName":"U-component_of_WINDS"},"data":[0.0,0.0,0.0,0.0,0.0,0.0,0.0,0.0,0.0,0.0,0.0,0.0,0.0,0.0,0.0,0.0,0.0,0.0,0.0,0.0,0.0,0.0,0.0,0.0,0.0,0.0,0.0,0.0,0.0,0.0,0.0,0.0,0.0,0.0,0.0,0.0,0.0,0.0,0.0,0.0,0.0,0.0,0.0,0.0,0.0,0.0,0.0,0.0,0.0,0.0,0.0,0.0,0.0,0.0,0.0,0.0,0.0,0.0,0.0,0.0,0.0,0.0,0.0,0.0,0.0,0.0,0.0,0.0,0.0,0.0,0.0,0.0,0.0,0.0,0.0,0.0,0.0,0.0,0.0,0.0,0.0,0.0,0.0,0.0,0.0,0.0,0.0,0.0,0.0,0.0,0.0,0.0,0.0,0.0,0.0,0.0,0.0,0.0,0.0,0.0,0.0,0.0,0.0,0.0,0.0,0.0,0.0,0.0,0.0,0.0,0.0,0.0,0.0,0.0,0.0,0.0,0.0,0.0,0.0,0.0,0.0,0.0,0.0,0.0,0.0,0.0,0.0,0.0,0.0,0.0,0.0,0.0,0.0,0.0,0.0,0.0,0.0,0.0,0.0,0.0,0.0,0.0,0.0,0.0,0.0,0.0,0.0,0.0,0.0,0.0,0.0,0.0,0.0,0.0,0.0,0.0,0.0,0.0,0.0,0.0,0.0,0.0,0.0,0.0,0.0,0.0,0.0,0.0,0.0,0.0,0.0,0.0,0.0,0.0,0.0,0.0,0.0,0.0,0.0,0.0,0.0,0.0,0.0,0.0,0.0,0.0,0.0,0.0,0.0,0.0,0.0,0.0,0.0,0.0,0.0,0.0,0.0,0.0,0.0,0.0,0.0,0.0,0.0,0.0,0.0,0.0,0.0,0.0,0.0,0.0,0.0,0.0,0.0,0.0,0.0,0.0,0.0,0.0,0.0,0.0,0.0,0.0,0.0,0.0,0.0,0.0,0.0,0.0,0.0,0.0,0.0,0.0,0.0,0.0,0.0,0.0,0.0,0.0,0.0,0.0,0.0,0.0,0.0,0.0,0.0,0.0,0.0,0.0,0.0,0.0,0.0,0.0,0.0,0.0,0.0,0.0,0.0,0.0,0.0,0.0,0.0,0.0,0.0,0.0,0.0,0.0,0.0,0.0,0.0,0.0,0.0,0.0,0.0,0.0,0.0,0.0,0.0,0.0,0.0,0.0,0.0,0.0,0.0,0.0,0.0,0.0,0.0,0.0,0.0,0.0,0.0,0.0,0.0,0.0,0.0,0.0,0.0,0.0,0.0,0.0,0.0,0.0,0.0,0.0,0.0,0.0,0.0,0.0,0.0,0.0,0.0,0.0,0.0,0.0,0.0,0.0,0.0,0.0,0.0,0.0,0.0,0.0,0.0,0.0,0.0,0.0,0.0,0.0,0.0,0.0,0.0,0.0,0.0,0.0,0.0,0.0,0.0,0.0,0.0,0.0,0.0,0.0,0.0,0.0,0.0,0.0,0.0,0.0,0.0,0.0,0.0,0.0,0.0,0.0,0.0,0.0,0.0,0.0,0.0,0.0,0.0,0.0,0.0,0.0,0.0,0.0,0.0,0.0,0.0,0.0,0.0,0.0,0.0,0.0,0.0,0.0,0.0,0.0,0.0,0.0,0.0,0.0,0.0,0.0,0.0,0.0,0.0,0.0,0.0,0.0,0.0,0.0,0.0,0.0,0.0,0.0,0.0,0.0,0.0,0.0,0.0,0.0,0.0,0.0,0.0,0.0,0.0,0.0,0.0,0.0,0.0,0.0,0.0,0.0,0.0,0.0,0.0,0.0,0.0,0.0,0.0,0.0,0.0,0.0,0.0,0.0,0.0,0.0,0.0,0.0,0.0,0.0,0.0,0.0,0.0,0.0,0.0,0.0,0.0,0.0,0.0,0.0,0.0,0.0,0.0,0.0,0.0,0.0,0.0,0.0,0.0,0.0,0.0,0.0,0.0,0.0,0.0,0.0,0.0,0.0,0.0,0.0,0.0,0.0,0.0,0.0,0.0,0.0,0.0,0.0,0.0,0.0,0.0,0.0,0.0,0.0,0.0,0.0,0.0,0.0,0.0,0.0,0.0,0.0,0.0,0.0,0.0,0.0,0.0,0.0,0.0,0.0,0.0,0.0,0.0,0.0,0.0,0.0,0.0,0.0,0.0,0.0,0.0,0.0,0.0,0.0,0.0,0.0,0.0,0.0,0.0,0.0,0.0,0.0,0.0,0.0,0.0,0.0,0.0,0.0,0.0,0.0,0.0,0.0,0.0,0.0,0.0,0.0,0.0,0.0,0.0,0.0,0.0,0.0,0.0,0.0,0.0,0.0,0.0,0.0,0.0,0.0,0.0,0.0,0.0,0.0,0.0,0.0,0.0,0.0,0.0,0.0,0.0,0.0,0.0,0.0,0.0,0.0,0.0,0.0,0.0,0.0,0.0,0.0,0.0,0.0,0.0,0.0,0.0,0.0,0.0,0.0,0.0,0.0,0.0,0.0,0.0,0.0,0.0,0.0,0.0,0.0,0.0,0.0,0.0,0.0,0.0,0.0,0.0,0.0,0.0,0.0,0.0,0.0,0.0,0.0,0.0,0.0,0.0,0.0,0.0,0.0,0.0,0.0,0.0,0.0,0.0,0.0,0.0,0.0,0.0,0.0,0.0,0.0,0.0,0.0,0.0,0.0,0.0,0.0,0.0,0.0,0.0,0.0,0.0,0.0,0.0,0.0,0.0,0.0,0.0,0.0,0.0,0.0,0.0,0.0,0.0,0.0,0.0,0.0,0.0,0.0,0.0,0.0,0.0,0.0,0.0,0.0,0.0,0.0,0.0,0.0,0.0,0.0,0.0,0.0,0.0,0.0,0.0,0.0,0.0,0.0,0.0,0.0,0.0,0.0,0.0,0.0,0.0,0.0,0.0,0.0,0.0,0.0,0.0,0.0,0.0,0.0,0.0,0.0,0.0,0.0,0.0,0.0,0.0,0.0,0.0,0.0,0.0,0.0,0.0,0.0,0.0,0.0,0.0,0.0,0.0,0.0,0.0,0.0,0.0,0.0,0.0,0.0,0.0,0.0,0.0,0.0,0.0,0.0,0.0,0.0,0.0,0.0,0.0,0.0,0.0,0.0,0.0,0.0,0.0,0.0,0.0,0.0,0.0,0.0,0.0,0.0,0.0,0.0,0.0,0.0,0.0,0.0,0.0,0.0,0.0,0.0,0.0,0.0,0.0,0.0,0.0,0.0,0.0,0.0,0.0,0.0,0.0,0.0,0.0,0.0,0.0,0.0,0.0,0.0,0.0,0.0,0.0,0.0,0.0,0.0,0.0,0.0,0.0,0.0,0.0,0.0,0.0,0.0,0.0,0.0,0.0,0.0,0.0,0.0,0.0,0.0,0.0,0.0,0.0,0.0,0.0,0.0,0.0,0.0,0.0,0.0,0.0,0.0,0.0,0.0,0.0,0.0,0.0,0.0,0.0,0.0,0.0,0.0,0.0,0.0,0.0,0.0,0.0,0.0,0.0,0.0,0.0,0.0,0.0,0.0,0.0,0.0,0.0,0.0,0.0,0.0,0.0,0.0,0.0,0.0,0.0,0.0,0.0,0.0,0.0,0.0,0.0,0.0,0.0,0.0,0.0,0.0,0.0,0.0,0.0,0.0,0.0,0.0,0.0,0.0,0.0,0.0,0.0,0.0,0.0,0.0,0.0,0.0,0.0,0.0,0.0,0.0,0.0,0.0,0.0,0.0,0.0,0.0,0.0,0.0,0.0,0.0,0.0,0.0,0.0,0.0,0.0,0.0,0.0,0.0,0.0,0.0,0.0,0.0,0.0,0.0,0.0,0.0,0.0,0.0,0.0,0.0,0.0,0.0,0.0,0.0,0.0,0.0,0.0,0.0,0.0,0.0,0.0,0.0,0.0,0.0,0.0,0.0,0.0,0.0,0.0,0.0,0.0,0.0,0.0,0.0,0.0,0.0,0.0,0.0,0.0,0.0,0.0,0.0,0.0,0.0,0.0,0.0,0.0,0.0,0.0,0.0,0.0,0.0,0.0,0.0,0.0,0.0,0.0,0.0,0.0,0.0,0.0,0.0,0.0,0.0,0.0,0.0,0.0,0.0,0.0,0.0,0.0,0.0,0.0,0.0,0.0,0.0,0.0,0.0,0.0,0.0,0.0,0.0,0.0,0.0,0.0,0.0,0.0,0.0,0.0,0.0,0.0,0.0,-6.6205,0.0,0.0,0.0,0.0,0.0,0.0,0.0,0.0,0.0,0.0,0.0,0.0,0.0,0.0,0.0,0.0,0.0,0.0,0.0,0.0,0.0,0.0,0.0,0.0,0.0,0.0,0.0,0.0,0.0,0.0,0.0,0.0,0.0,0.0,0.0,0.0,0.0,0.0,0.0,0.0,0.0,0.0,0.0,0.0,0.0,0.0,0.0,0.0,0.0,0.0,0.0,0.0,0.0,0.0,0.0,0.0,0.0,0.0,0.0,0.0,0.0,0.0,0.0,0.0,0.0,0.0,0.0,0.0,0.0,0.0,0.0,0.0,0.0,0.0,0.0,0.0,0.0,0.0,0.0,0.0,0.0,0.0,0.0,0.0,0.0,0.0,0.0,0.0,0.0,0.0,0.0,0.0,0.0,0.0,0.0,0.0,0.0,0.0,0.0,0.0,0.0,0.0,0.0,0.0,0.0,0.0,0.0,0.0,0.0,0.0,-6.6205,-6.6205,-6.6205,-6.6205,-6.6205,0.0,0.0,0.0,0.0,0.0,0.0,0.0,0.0,0.0,0.0,0.0,0.0,0.0,0.0,0.0,0.0,0.0,0.0,0.0,0.0,0.0,0.0,0.0,0.0,0.0,0.0,0.0,0.0,0.0,0.0,0.0,0.0,0.0,0.0,0.0,0.0,0.0,0.0,0.0,0.0,0.0,0.0,0.0,0.0,0.0,0.0,0.0,0.0,0.0,0.0,0.0,0.0,0.0,0.0,0.0,0.0,0.0,0.0,0.0,0.0,0.0,0.0,0.0,0.0,0.0,0.0,0.0,0.0,0.0,0.0,0.0,0.0,0.0,0.0,0.0,0.0,0.0,0.0,0.0,0.0,0.0,0.0,0.0,0.0,0.0,0.0,0.0,0.0,0.0,0.0,0.0,0.0,0.0,0.0,0.0,0.0,0.0,0.0,0.0,0.0,0.0,0.0,0.0,0.0,0.0,0.0,0.0,0.0,0.0,0.0,0.0,0.0,-6.6235,-6.6205,-6.6205,0.0,0.0,0.0,0.0,0.0,0.0,0.0,0.0,0.0,0.0,0.0,0.0,0.0,0.0,0.0,0.0,0.0,0.0,0.0,0.0,0.0,0.0,0.0,0.0,0.0,0.0,0.0,0.0,0.0,0.0,0.0,0.0,0.0,0.0,0.0,0.0,0.0,0.0,0.0,0.0,0.0,0.0,0.0,0.0,0.0,0.0,0.0,0.0,0.0,0.0,0.0,0.0,0.0,0.0,0.0,0.0,0.0,0.0,0.0,0.0,0.0,0.0,0.0,0.0,0.0,0.0,0.0,0.0,0.0,0.0,0.0,0.0,0.0,0.0,0.0,0.0,0.0,0.0,0.0,0.0,0.0,0.0,0.0,0.0,0.0,0.0,0.0,0.0,0.0,0.0,0.0,0.0,0.0,0.0,0.0,0.0,0.0,0.0,0.0,0.0,0.0,0.0,0.0,0.0,0.0,0.0,0.0,0.0,0.0,0.0,-6.6254,-6.6361,-6.6263,0.0,-6.6205,0.0,0.0,0.0,0.0,0.0,0.0,0.0,0.0,0.0,0.0,0.0,0.0,0.0,0.0,0.0,0.0,0.0,0.0,0.0,0.0,0.0,0.0,0.0,0.0,0.0,0.0,0.0,0.0,0.0,0.0,0.0,0.0,0.0,0.0,0.0,0.0,0.0,0.0,0.0,0.0,0.0,0.0,0.0,0.0,0.0,0.0,0.0,0.0,0.0,0.0,0.0,0.0,0.0,0.0,0.0,0.0,0.0,0.0,0.0,0.0,0.0,0.0,0.0,0.0,0.0,0.0,0.0,0.0,0.0,0.0,0.0,0.0,0.0,0.0,0.0,0.0,0.0,0.0,0.0,0.0,0.0,0.0,0.0,0.0,0.0,0.0,0.0,0.0,0.0,0.0,0.0,0.0,0.0,0.0,0.0,0.0,0.0,0.0,0.0,0.0,0.0,0.0,0.0,0.0,0.0,0.0,0.0,0.0,0.0,0.0,-6.6369,-6.6516,-6.6377,-6.6306,0.0,0.0,0.0,0.0,0.0,0.0,0.0,0.0,0.0,0.0,0.0,0.0,0.0,0.0,0.0,0.0,0.0,0.0,0.0,0.0,0.0,0.0,0.0,0.0,0.0,0.0,0.0,0.0,0.0,0.0,0.0,0.0,0.0,0.0,0.0,0.0,0.0,0.0,0.0,0.0,0.0,0.0,0.0,0.0,0.0,0.0,0.0,0.0,0.0,0.0,0.0,0.0,0.0,0.0,0.0,0.0,0.0,0.0,0.0,0.0,0.0,0.0,0.0,0.0,0.0,0.0,0.0,0.0,0.0,0.0,0.0,0.0,0.0,0.0,0.0,0.0,0.0,0.0,0.0,0.0,0.0,0.0,0.0,0.0,0.0,0.0,0.0,0.0,0.0,0.0,0.0,0.0,0.0,0.0,0.0,0.0,0.0,0.0,0.0,0.0,0.0,0.0,0.0,0.0,0.0,0.0,0.0,0.0,0.0,0.0,-6.645,-6.6504,-6.6585,-6.649,-6.6436,-6.6411,0.0,0.0,0.0,0.0,0.0,0.0,0.0,0.0,0.0,0.0,0.0,0.0,0.0,0.0,0.0,0.0,0.0,0.0,0.0,0.0,0.0,0.0,0.0,0.0,0.0,0.0,0.0,0.0,0.0,0.0,0.0,0.0,0.0,0.0,0.0,0.0,0.0,0.0,0.0,0.0,0.0,0.0,0.0,0.0,0.0,0.0,0.0,0.0,0.0,0.0,0.0,0.0,0.0,0.0,0.0,0.0,0.0,0.0,0.0,0.0,0.0,0.0,0.0,0.0,0.0,0.0,0.0,0.0,0.0,0.0,0.0,0.0,0.0,0.0,0.0,0.0,0.0,0.0,0.0,0.0,0.0,0.0,0.0,0.0,0.0,0.0,0.0,0.0,0.0,0.0,0.0,0.0,0.0,0.0,0.0,0.0,0.0,0.0,0.0,0.0,0.0,0.0,0.0,0.0,0.0,0.0,0.0,0.0,-6.6579,-6.6585,-6.659,-6.66,-6.6585,-6.6515,0.0,0.0,0.0,0.0,0.0,0.0,0.0,0.0,0.0,0.0,0.0,0.0,0.0,0.0,0.0,0.0,0.0,0.0,0.0,0.0,0.0,0.0,0.0,0.0,0.0,0.0,0.0,0.0,0.0,0.0,0.0,0.0,0.0,0.0,0.0,0.0,0.0,0.0,0.0,0.0,0.0,0.0,0.0,0.0,0.0,0.0,0.0,0.0,0.0,0.0,0.0,0.0,0.0,0.0,0.0,0.0,0.0,0.0,0.0,0.0,0.0,0.0,0.0,0.0,0.0,0.0,0.0,0.0,0.0,0.0,0.0,0.0,0.0,0.0,0.0,0.0,0.0,0.0,0.0,0.0,0.0,0.0,0.0,0.0,0.0,0.0,0.0,0.0,0.0,0.0,0.0,0.0,0.0,0.0,0.0,0.0,0.0,0.0,0.0,0.0,0.0,0.0,0.0,0.0,0.0,0.0,0.0,0.0,0.0,-6.6661,-6.6741,-6.6795,-6.6793,-6.6706,-6.6622,0.0,0.0,0.0,0.0,0.0,0.0,0.0,0.0,0.0,0.0,0.0,0.0,0.0,0.0,0.0,0.0,0.0,0.0,0.0,0.0,0.0,0.0,0.0,0.0,0.0,0.0,0.0,0.0,0.0,0.0,0.0,0.0,0.0,0.0,0.0,0.0,0.0,0.0,0.0,0.0,0.0,0.0,0.0,0.0,0.0,0.0,0.0,0.0,0.0,0.0,0.0,0.0,0.0,0.0,0.0,0.0,0.0,0.0,0.0,0.0,0.0,0.0,0.0,0.0,0.0,0.0,0.0,0.0,0.0,0.0,0.0,0.0,0.0,0.0,0.0,0.0,0.0,0.0,0.0,0.0,0.0,0.0,0.0,0.0,0.0,0.0,0.0,0.0,0.0,0.0,0.0,0.0,0.0,0.0,0.0,0.0,0.0,0.0,0.0,0.0,0.0,0.0,0.0,0.0,0.0,0.0,0.0,0.0,0.0,-6.6758,0.0,-6.6894,-6.6894,-6.6781,-6.6668,0.0,0.0,0.0,0.0,0.0,0.0,0.0,0.0,0.0,0.0,0.0,0.0,0.0,0.0,0.0,0.0,0.0,0.0,0.0,0.0,0.0,0.0,0.0,0.0,0.0,0.0,0.0,0.0,0.0,0.0,0.0,0.0,0.0,0.0,0.0,0.0,0.0,0.0,0.0,0.0,0.0,0.0,0.0,0.0,0.0,0.0,0.0,0.0,0.0,0.0,0.0,0.0,0.0,0.0,0.0,0.0,0.0,0.0,0.0,0.0,0.0,0.0,0.0,0.0,0.0,0.0,0.0,0.0,0.0,0.0,0.0,0.0,0.0,0.0,0.0,0.0,0.0,0.0,0.0,0.0,0.0,0.0,0.0,0.0,0.0,0.0,0.0,0.0,0.0,0.0,0.0,0.0,0.0,0.0,0.0,0.0,0.0,0.0,0.0,0.0,0.0,0.0,0.0,0.0,0.0,0.0,0.0,0.0,-6.676,-6.6894,-6.6894,-6.6894,-6.6894,-6.6781,-6.6671,0.0,0.0,0.0,0.0,0.0,0.0,0.0,0.0,0.0,0.0,0.0,0.0,0.0,0.0,0.0,0.0,0.0,0.0,0.0,0.0,0.0,0.0,0.0,0.0,0.0,0.0,0.0,0.0,0.0,0.0,0.0,0.0,0.0,0.0,0.0,0.0,0.0,0.0,0.0,0.0,0.0,0.0,0.0,0.0,0.0,0.0,0.0,0.0,0.0,0.0,0.0,0.0,0.0,0.0,0.0,0.0,0.0,0.0,0.0,0.0,0.0,0.0,0.0,0.0,0.0,0.0,0.0,0.0,0.0,0.0,0.0,0.0,0.0,0.0,0.0,0.0,0.0,0.0,0.0,0.0,0.0,0.0,0.0,0.0,0.0,0.0,0.0,0.0,0.0,0.0,0.0,0.0,0.0,0.0,0.0,0.0,0.0,0.0,0.0,0.0,0.0,0.0,0.0,0.0,0.0,0.0,0.0,0.0,0.0,-6.6894,-6.6894,-6.6894,-6.6894,-6.6854,-6.6781,0.0,0.0,0.0,0.0,0.0,0.0,0.0,0.0,0.0,0.0,0.0,0.0,0.0,0.0,0.0,0.0,0.0,0.0,0.0,0.0,0.0,0.0,0.0,0.0,0.0,0.0,0.0,0.0,0.0,0.0,0.0,0.0,0.0,0.0,0.0,0.0,0.0,0.0,0.0,0.0,0.0,0.0,0.0,0.0,0.0,0.0,0.0,0.0,0.0,0.0,0.0,0.0,0.0,0.0,0.0,0.0,0.0,0.0,0.0,0.0,0.0,0.0,0.0,0.0,0.0,0.0,0.0,0.0,0.0,0.0,0.0,0.0,0.0,0.0,0.0,0.0,0.0,0.0,0.0,0.0,0.0,0.0,0.0,0.0,0.0,0.0,0.0,0.0,0.0,0.0,0.0,0.0,0.0,0.0,0.0,0.0,0.0,0.0,0.0,0.0,0.0,0.0,0.0,0.0,0.0,0.0,0.0,0.0,0.0,-6.6894,-6.6894,-6.6894,-6.6894,-6.6894,-6.6832,-6.67,0.0,0.0,0.0,0.0,0.0,0.0,0.0,0.0,0.0,0.0,0.0,0.0,0.0,0.0,0.0,0.0,0.0,0.0,0.0,0.0,0.0,0.0,0.0,0.0,0.0,0.0,0.0,0.0,0.0,0.0,0.0,0.0,0.0,0.0,0.0,0.0,0.0,0.0,0.0,0.0,0.0,0.0,0.0,0.0,0.0,0.0,0.0,0.0,0.0,0.0,0.0,0.0,0.0,0.0,0.0,0.0,0.0,0.0,0.0,0.0,0.0,0.0,0.0,0.0,0.0,0.0,0.0,0.0,0.0,0.0,0.0,0.0,0.0,0.0,0.0,0.0,0.0,0.0,0.0,0.0,0.0,0.0,0.0,0.0,0.0,0.0,0.0,0.0,0.0,0.0,0.0,0.0,0.0,0.0,0.0,0.0,0.0,0.0,0.0,0.0,0.0,0.0,0.0,0.0,0.0,0.0,0.0,0.0,-6.6894,-6.6894,-6.6894,-6.6894,-6.6894,-6.6833,0.0,0.0,0.0,0.0,0.0,0.0,0.0,0.0,0.0,0.0,0.0,0.0,0.0,0.0,0.0,0.0,0.0,0.0,0.0,0.0,0.0,0.0,0.0,0.0,0.0,0.0,0.0,0.0,0.0,0.0,0.0,0.0,0.0,0.0,0.0,0.0,0.0,0.0,0.0,0.0,0.0,0.0,0.0,0.0,0.0,0.0,0.0,0.0,0.0,0.0,0.0,0.0,0.0,0.0,0.0,0.0,0.0,0.0,0.0,0.0,0.0,0.0,0.0,0.0,0.0,0.0,0.0,0.0,0.0,0.0,0.0,0.0,0.0,0.0,0.0,0.0,0.0,0.0,0.0,0.0,0.0,0.0,0.0,0.0,0.0,0.0,0.0,0.0,0.0,0.0,0.0,0.0,0.0,0.0,0.0,0.0,0.0,0.0,0.0,0.0,0.0,0.0,0.0,0.0,0.0,0.0,0.0,0.0,0.0,-6.6894,-6.6894,-6.6894,-6.6894,-6.6894,-6.6894,0.0,0.0,0.0,0.0,0.0,0.0,0.0,0.0,0.0,0.0,0.0,0.0,0.0,0.0,0.0,0.0,0.0,0.0,0.0,0.0,0.0,0.0,0.0,0.0,0.0,0.0,0.0,0.0,0.0,0.0,0.0,0.0,0.0,0.0,0.0,0.0,0.0,0.0,0.0,0.0,0.0,0.0,0.0,0.0,0.0,0.0,0.0,0.0,0.0,0.0,0.0,0.0,0.0,0.0,0.0,0.0,0.0,0.0,0.0,0.0,0.0,0.0,0.0,0.0,0.0,0.0,0.0,0.0,0.0,0.0,0.0,0.0,0.0,0.0,0.0,0.0,0.0,0.0,0.0,0.0,0.0,0.0,0.0,0.0,0.0,0.0,0.0,0.0,0.0,0.0,0.0,0.0,0.0,0.0,0.0,0.0,0.0,0.0,0.0,0.0,0.0,0.0,0.0,0.0,0.0,0.0,0.0,0.0,-6.6894,-6.6894,-6.6894,-6.6894,-6.6894,-6.6894,-6.6894,0.0,0.0,0.0,0.0,0.0,0.0,0.0,0.0,0.0,0.0,0.0,0.0,0.0,0.0,0.0,0.0,0.0,0.0,0.0,0.0,0.0,0.0,0.0,0.0,0.0,0.0,0.0,0.0,0.0,0.0,0.0,0.0,0.0,0.0,0.0,0.0,0.0,0.0,0.0,0.0,0.0,0.0,0.0,0.0,0.0,0.0,0.0,0.0,0.0,0.0,0.0,0.0,0.0,0.0,0.0,0.0,0.0,0.0,0.0,0.0,0.0,0.0,0.0,0.0,0.0,0.0,0.0,0.0,0.0,0.0,0.0,0.0,0.0,0.0,0.0,0.0,0.0,0.0,0.0,0.0,0.0,0.0,0.0,0.0,0.0,0.0,0.0,0.0,0.0,0.0,0.0,0.0,0.0,0.0,0.0,0.0,0.0,0.0,0.0,0.0,0.0,0.0,0.0,0.0,0.0,0.0,0.0,0.0,-6.6894,-6.6894,-6.6894,-6.6894,-6.6894,-6.6894,-6.6894,0.0,0.0,0.0,0.0,0.0,0.0,0.0,0.0,0.0,0.0,0.0,0.0,0.0,0.0,0.0,0.0,0.0,0.0,0.0,0.0,0.0,0.0,0.0,0.0,0.0,0.0,0.0,0.0,0.0,0.0,0.0,0.0,0.0,0.0,0.0,0.0,0.0,0.0,0.0,0.0,0.0,0.0,0.0,0.0,0.0,0.0,0.0,0.0,0.0,0.0,0.0,0.0,0.0,0.0,0.0,0.0,0.0,0.0,0.0,0.0,0.0,0.0,0.0,0.0,0.0,0.0,0.0,0.0,0.0,0.0,0.0,0.0,0.0,0.0,0.0,0.0,0.0,0.0,0.0,0.0,0.0,0.0,0.0,0.0,0.0,0.0,0.0,0.0,0.0,0.0,0.0,0.0,0.0,0.0,0.0,0.0,0.0,0.0,0.0,0.0,0.0,0.0,0.0,0.0,0.0,0.0,0.0,0.0,-6.6894,-6.6894,-6.6894,-6.6894,-6.6894,-6.6894,-6.6894,0.0,0.0,0.0,0.0,0.0,0.0,0.0,0.0,0.0,0.0,0.0,0.0,0.0,0.0,0.0,0.0,0.0,0.0,0.0,0.0,0.0,0.0,0.0,0.0,0.0,0.0,0.0,0.0,0.0,0.0,0.0,0.0,0.0,0.0,0.0,0.0,0.0,0.0,0.0,0.0,0.0,0.0,0.0,0.0,0.0,0.0,0.0,0.0,-6.6798,0.0,0.0,0.0,0.0,0.0,0.0,0.0,0.0,0.0,0.0,0.0,0.0,0.0,0.0,0.0,0.0,0.0,0.0,0.0,0.0,0.0,0.0,0.0,0.0,0.0,0.0,0.0,0.0,0.0,0.0,0.0,0.0,0.0,0.0,0.0,0.0,0.0,0.0,0.0,0.0,0.0,0.0,0.0,0.0,0.0,0.0,0.0,0.0,0.0,0.0,0.0,0.0,0.0,0.0,0.0,0.0,0.0,0.0,0.0,-6.6894,-6.6894,-6.6894,-6.6894,-6.6894,-6.6894,-6.6894,0.0,0.0,0.0,0.0,0.0,0.0,0.0,0.0,0.0,0.0,0.0,0.0,0.0,0.0,0.0,0.0,0.0,0.0,0.0,0.0,0.0,0.0,0.0,0.0,0.0,0.0,0.0,0.0,0.0,0.0,0.0,0.0,0.0,0.0,0.0,0.0,0.0,0.0,0.0,0.0,0.0,0.0,0.0,0.0,0.0,0.0,0.0,0.0,0.0,0.0,0.0,0.0,0.0,0.0,0.0,0.0,0.0,0.0,0.0,0.0,0.0,0.0,0.0,0.0,0.0,0.0,0.0,0.0,0.0,0.0,0.0,0.0,0.0,0.0,0.0,0.0,0.0,0.0,0.0,0.0,0.0,0.0,0.0,0.0,0.0,0.0,0.0,0.0,0.0,0.0,0.0,0.0,0.0,0.0,0.0,0.0,0.0,0.0,0.0,0.0,0.0,0.0,0.0,0.0,0.0,0.0,0.0,-6.6894,-6.6894,-6.6894,-6.6894,-6.6894,-6.6894,-6.6894,-6.6894,-6.6894,0.0,0.0,0.0,0.0,0.0,0.0,0.0,0.0,0.0,0.0,0.0,0.0,0.0,0.0,0.0,0.0,0.0,0.0,0.0,0.0,0.0,0.0,0.0,0.0,0.0,0.0,0.0,0.0,0.0,0.0,0.0,0.0,0.0,0.0,0.0,0.0,0.0,0.0,-6.6798,-6.6798,0.0,0.0,0.0,0.0,0.0,0.0,0.0,0.0,-6.6812,0.0,0.0,0.0,0.0,0.0,0.0,0.0,0.0,0.0,0.0,0.0,0.0,0.0,0.0,0.0,0.0,0.0,0.0,0.0,0.0,0.0,0.0,0.0,0.0,0.0,0.0,0.0,0.0,0.0,0.0,0.0,0.0,0.0,0.0,0.0,0.0,0.0,0.0,0.0,0.0,0.0,0.0,0.0,0.0,0.0,0.0,0.0,0.0,0.0,0.0,0.0,0.0,0.0,0.0,0.0,0.0,-6.6892,-6.6892,-6.6892,-6.6892,-6.6892,-6.6893,-6.6894,-6.6894,-6.6894,-6.6894,0.0,0.0,0.0,0.0,0.0,0.0,0.0,0.0,0.0,0.0,0.0,0.0,0.0,0.0,0.0,0.0,0.0,0.0,0.0,0.0,0.0,0.0,0.0,0.0,0.0,0.0,0.0,0.0,0.0,0.0,0.0,0.0,0.0,0.0,0.0,0.0,0.0,0.0,0.0,-6.6798,-6.6798,0.0,0.0,0.0,0.0,0.0,0.0,0.0,0.0,-6.6811,0.0,0.0,0.0,0.0,0.0,0.0,0.0,0.0,0.0,0.0,0.0,0.0,0.0,0.0,0.0,0.0,0.0,0.0,0.0,0.0,0.0,0.0,0.0,0.0,0.0,0.0,0.0,0.0,0.0,0.0,0.0,0.0,0.0,0.0,0.0,0.0,0.0,0.0,0.0,0.0,0.0,0.0,0.0,0.0,0.0,0.0,0.0,0.0,0.0,0.0,0.0,0.0,0.0,0.0,0.0,-6.6892,-6.689,-6.6888,-6.6889,-6.6888,-6.689,-6.6892,-6.6893,-6.6894,0.0,0.0,0.0,0.0,0.0,0.0,0.0,0.0,0.0,0.0,0.0,0.0,0.0,0.0,0.0,0.0,0.0,0.0,0.0,0.0,0.0,0.0,0.0,0.0,0.0,0.0,0.0,0.0,0.0,0.0,0.0,0.0,0.0,0.0,0.0,0.0,0.0,0.0,0.0,0.0,-6.6798,-6.6765,-6.6709,0.0,0.0,0.0,0.0,0.0,0.0,-6.6724,-6.6683,0.0,0.0,0.0,0.0,0.0,0.0,0.0,0.0,0.0,0.0,0.0,0.0,0.0,0.0,0.0,0.0,0.0,0.0,0.0,0.0,0.0,0.0,0.0,0.0,0.0,0.0,0.0,0.0,0.0,0.0,0.0,0.0,0.0,0.0,0.0,0.0,0.0,0.0,0.0,0.0,0.0,0.0,0.0,0.0,0.0,0.0,0.0,0.0,0.0,0.0,0.0,0.0,0.0,0.0,0.0,-6.6823,-6.6807,-6.6802,-6.685,-6.683,-6.6856,-6.6902,-6.6889,-6.689,0.0,0.0,0.0,0.0,0.0,0.0,0.0,0.0,0.0,0.0,0.0,0.0,0.0,0.0,0.0,0.0,0.0,0.0,0.0,0.0,0.0,0.0,0.0,0.0,0.0,0.0,0.0,0.0,0.0,0.0,0.0,0.0,0.0,0.0,0.0,0.0,0.0,0.0,0.0,0.0,0.0,-6.6693,-6.66,-6.6618,0.0,0.0,0.0,0.0,-6.6634,-6.6522,0.0,0.0,0.0,0.0,0.0,0.0,0.0,0.0,0.0,0.0,0.0,0.0,0.0,0.0,0.0,0.0,0.0,0.0,0.0,0.0,0.0,0.0,0.0,0.0,0.0,0.0,0.0,0.0,0.0,0.0,0.0,0.0,0.0,0.0,0.0,0.0,0.0,0.0,0.0,0.0,0.0,0.0,0.0,0.0,0.0,0.0,0.0,0.0,0.0,0.0,0.0,0.0,0.0,0.0,0.0,0.0,-6.6635,-6.6524,-6.6519,-6.6627,-6.6631,-6.6714,-6.6902,-6.6904,-6.6904,0.0,0.0,0.0,0.0,0.0,0.0,0.0,0.0,0.0,0.0,0.0,0.0,0.0,0.0,0.0,0.0,0.0,0.0,0.0,0.0,0.0,0.0,0.0,0.0,0.0,0.0,0.0,0.0,0.0,0.0,0.0,0.0,0.0,0.0,0.0,0.0,0.0,0.0,0.0,0.0,0.0,-6.6535,-6.6505,-6.6327,-6.6173,0.0,0.0,-6.6159,-6.6172,-6.6165,0.0,0.0,0.0,0.0,0.0,0.0,0.0,0.0,0.0,0.0,0.0,0.0,0.0,0.0,0.0,0.0,0.0,0.0,0.0,0.0,0.0,0.0,0.0,0.0,0.0,0.0,0.0,0.0,0.0,0.0,0.0,0.0,0.0,0.0,0.0,0.0,0.0,0.0,0.0,0.0,0.0,0.0,0.0,0.0,0.0,0.0,0.0,0.0,0.0,0.0,0.0,0.0,0.0,0.0,0.0,-6.6354,-6.5877,-6.5751,-6.5466,-6.5043,-6.5004,-6.5085,-6.5241,-6.5292,-6.5351,0.0,0.0,0.0,0.0,0.0,0.0,0.0,0.0,0.0,0.0,0.0,0.0,0.0,0.0,0.0,0.0,0.0,0.0,0.0,0.0,0.0,0.0,0.0,0.0,0.0,0.0,0.0,0.0,0.0,0.0,0.0,0.0,0.0,0.0,0.0,0.0,0.0,0.0,0.0,0.0,0.0,0.0,-6.6275,-6.5801,0.0,0.0,0.0,-6.5989,-6.607,0.0,0.0,0.0,0.0,0.0,0.0,0.0,0.0,0.0,0.0,0.0,0.0,0.0,0.0,0.0,0.0,0.0,0.0,0.0,0.0,0.0,0.0,0.0,0.0,0.0,0.0,0.0,0.0,0.0,0.0,0.0,0.0,0.0,0.0,0.0,0.0,0.0,0.0,0.0,0.0,0.0,0.0,0.0,0.0,0.0,0.0,0.0,0.0,0.0,0.0,0.0,0.0,0.0,0.0,0.0,0.0,0.0,-6.4897,-6.4733,-6.4364,-6.3783,-6.3752,-6.3798,-6.3948,-6.3994,0.0,0.0,0.0,0.0,0.0,0.0,0.0,0.0,0.0,0.0,0.0,0.0,0.0,0.0,0.0,0.0,0.0,0.0,0.0,0.0,0.0,0.0,0.0,0.0,0.0,0.0,0.0,-6.5019,0.0,0.0,0.0,0.0,0.0,0.0,0.0,0.0,0.0,0.0,0.0,0.0,0.0,0.0,-6.4923,-6.5407,-6.4851,-6.4593,0.0,0.0,-6.5204,-6.5566,-6.5454,-6.5455,0.0,0.0,0.0,0.0,0.0,0.0,0.0,0.0,0.0,0.0,0.0,0.0,0.0,0.0,0.0,0.0,0.0,0.0,0.0,0.0,0.0,0.0,0.0,0.0,0.0,0.0,0.0,0.0,0.0,0.0,0.0,0.0,0.0,0.0,0.0,0.0,0.0,0.0,0.0,0.0,0.0,0.0,0.0,0.0,0.0,0.0,0.0,0.0,0.0,0.0,0.0,0.0,0.0,0.0,0.0,-6.3757,-6.3524,-6.3475,-6.3603,-6.3613,-6.3693,-6.3798,-6.3805,-6.3871,0.0,0.0,0.0,0.0,0.0,0.0,0.0,0.0,0.0,0.0,0.0,0.0,0.0,0.0,0.0,0.0,0.0,0.0,0.0,0.0,0.0,0.0,0.0,0.0,0.0,0.0,0.0,0.0,0.0,0.0,0.0,0.0,0.0,0.0,0.0,0.0,0.0,0.0,0.0,0.0,0.0,-6.352,-6.3472,-6.3233,-6.3078,0.0,0.0,-6.3375,-6.4207,-6.4326,-6.456,-6.5321,0.0,0.0,0.0,0.0,0.0,0.0,0.0,0.0,0.0,0.0,0.0,0.0,0.0,0.0,0.0,0.0,0.0,0.0,0.0,0.0,0.0,0.0,0.0,0.0,0.0,0.0,0.0,0.0,0.0,0.0,0.0,0.0,0.0,0.0,0.0,0.0,0.0,0.0,0.0,0.0,0.0,0.0,0.0,0.0,0.0,0.0,0.0,0.0,0.0,0.0,0.0,0.0,0.0,-6.3726,-6.282,-6.2651,-6.234,-6.1891,-6.1872,-6.1949,-6.2086,-6.2075,-6.2129,0.0,0.0,0.0,0.0,0.0,0.0,0.0,0.0,0.0,0.0,0.0,0.0,0.0,0.0,0.0,0.0,0.0,0.0,0.0,0.0,0.0,0.0,0.0,0.0,0.0,0.0,0.0,0.0,-6.2696,-6.2696,-6.2696,0.0,0.0,0.0,0.0,0.0,0.0,0.0,0.0,0.0,0.0,-6.2709,-6.3226,-6.2624,0.0,0.0,-6.2911,-6.3025,-6.335,-6.3408,-6.3675,-6.4516,-6.4683,0.0,0.0,0.0,0.0,0.0,0.0,0.0,0.0,0.0,0.0,0.0,0.0,0.0,0.0,0.0,0.0,0.0,0.0,0.0,0.0,0.0,0.0,0.0,0.0,0.0,0.0,0.0,0.0,0.0,0.0,0.0,0.0,0.0,0.0,0.0,0.0,0.0,0.0,0.0,0.0,0.0,0.0,0.0,0.0,0.0,0.0,0.0,0.0,0.0,0.0,0.0,0.0,-6.2752,-6.1871,-6.175,-6.1416,-6.0819,-6.08,-6.0726,-6.0557,-6.0557,-6.0624,0.0,0.0,0.0,0.0,0.0,0.0,0.0,0.0,0.0,0.0,0.0,0.0,0.0,0.0,0.0,0.0,0.0,0.0,0.0,0.0,0.0,0.0,0.0,0.0,0.0,0.0,0.0,0.0,-6.1698,-6.1674,-6.1637,0.0,0.0,0.0,0.0,0.0,0.0,0.0,0.0,0.0,0.0,-6.1762,-6.2353,-6.1529,-6.1172,-6.2032,-6.1936,-6.1922,-6.2433,-6.251,-6.2796,-6.3656,0.0,0.0,0.0,0.0,0.0,0.0,0.0,0.0,0.0,0.0,0.0,0.0,0.0,0.0,0.0,0.0,0.0,0.0,0.0,0.0,0.0,0.0,0.0,0.0,0.0,0.0,0.0,-6.6795,0.0,0.0,-6.6792,0.0,0.0,0.0,0.0,0.0,0.0,0.0,0.0,0.0,0.0,0.0,0.0,0.0,0.0,0.0,0.0,0.0,0.0,0.0,0.0,0.0,0.0,-6.1842,-6.087,-6.085,-6.0819,-6.08,-6.08,-6.0416,-5.9619,-5.9561,-5.9652,-5.9889,0.0,0.0,0.0,0.0,0.0,0.0,0.0,0.0,0.0,0.0,0.0,0.0,0.0,0.0,0.0,0.0,0.0,0.0,0.0,0.0,0.0,0.0,0.0,0.0,0.0,0.0,-6.1698,-6.1698,-6.1657,0.0,0.0,0.0,0.0,0.0,0.0,0.0,0.0,0.0,0.0,-6.0641,-6.0524,-6.0507,-5.972,-5.9568,-6.0389,-5.9797,-5.9783,-6.1402,-6.1631,-6.1917,0.0,0.0,0.0,0.0,0.0,0.0,0.0,0.0,0.0,0.0,0.0,0.0,0.0,0.0,0.0,0.0,0.0,0.0,0.0,0.0,0.0,0.0,0.0,0.0,0.0,0.0,0.0,-6.6476,-6.6476,0.0,0.0,0.0,0.0,0.0,0.0,0.0,0.0,0.0,0.0,0.0,-6.6287,-6.6211,0.0,0.0,0.0,0.0,0.0,0.0,0.0,0.0,0.0,0.0,0.0,0.0,-6.1142,-6.0812,-6.08,-6.08,-6.08,-6.08,-6.0666,-6.0358,-6.0358,-6.0432,-6.0586,0.0,0.0,0.0,0.0,0.0,0.0,0.0,0.0,0.0,0.0,0.0,0.0,0.0,0.0,0.0,0.0,0.0,0.0,0.0,0.0,0.0,0.0,0.0,0.0,0.0,-6.1666,0.0,0.0,0.0,0.0,0.0,0.0,0.0,0.0,0.0,0.0,0.0,-6.0715,-6.059,-6.0506,-6.0417,-6.0403,-6.016,-6.0083,0.0,0.0,0.0,0.0,0.0,0.0,0.0,0.0,0.0,0.0,0.0,0.0,0.0,0.0,-6.5046,-6.5182,-6.518,-6.518,-6.518,0.0,0.0,0.0,0.0,0.0,0.0,0.0,0.0,0.0,0.0,0.0,0.0,0.0,0.0,-6.6295,0.0,-6.6295,0.0,0.0,0.0,0.0,0.0,0.0,0.0,0.0,-6.6098,-6.5912,-6.5712,-6.5612,-6.5197,0.0,-6.4471,-6.4742,0.0,0.0,0.0,0.0,0.0,0.0,0.0,0.0,-6.08,-6.08,-6.08,-6.08,-6.08,-6.08,-6.0646,-6.0358,-6.0339,-6.0368,-6.0479,-6.076,-6.0993,0.0,0.0,0.0,0.0,0.0,0.0,0.0,0.0,0.0,0.0,0.0,0.0,0.0,0.0,0.0,0.0,0.0,0.0,0.0,0.0,0.0,0.0,0.0,-6.1489,0.0,0.0,0.0,0.0,0.0,0.0,0.0,0.0,0.0,-6.0765,-6.0696,-6.0577,-6.048,-6.0417,-6.0403,-6.0403,0.0,0.0,0.0,0.0,0.0,0.0,0.0,-6.019,-6.0508,-6.0762,-6.1203,-6.2006,-6.2557,-6.3125,-6.3917,0.0,0.0,-6.474,-6.4869,-6.4796,-6.4595,-6.4576,-6.4464,-6.4118,-6.4058,-6.3937,0.0,0.0,0.0,0.0,0.0,0.0,0.0,0.0,-6.6272,-6.6264,0.0,-6.6264,0.0,0.0,0.0,0.0,0.0,-6.6109,0.0,0.0,-6.5847,-6.5378,-6.4602,-6.4563,-6.4109,-6.3301,-6.3274,-6.3255,-6.3236,-6.3396,0.0,0.0,0.0,0.0,0.0,0.0,-6.08,-6.08,-6.0742,-6.0742,-6.0742,-6.0704,-6.03,-5.9492,-5.9473,-5.9473,-5.9492,-6.0254,-6.0759,-6.0877,-6.0896,0.0,0.0,0.0,0.0,0.0,0.0,0.0,0.0,0.0,0.0,0.0,0.0,0.0,0.0,0.0,0.0,0.0,0.0,0.0,0.0,-6.1186,0.0,0.0,0.0,0.0,0.0,0.0,0.0,0.0,0.0,0.0,-6.0512,-6.0493,-6.0472,-6.0403,0.0,0.0,0.0,0.0,-5.9439,-6.026,-5.9598,-5.917,-5.9521,-5.9535,-5.9341,-5.8894,0.0,0.0,-6.0917,-6.1066,-6.1366,-6.2122,-6.2315,-6.2643,-6.3844,-6.4114,-6.405,-6.3553,-6.3487,-6.342,-6.3375,-6.3397,-6.3356,-6.5978,0.0,0.0,0.0,0.0,-6.6016,-6.6016,-6.6016,-6.6016,-6.6016,-6.6016,-6.6016,0.0,0.0,0.0,0.0,0.0,0.0,-6.5045,-6.4987,-6.4345,-6.3897,-6.3685,-6.3685,-6.3243,-6.2454,-6.2435,-6.2108,-6.155,-6.1593,-6.1766,-6.2101,0.0,0.0,0.0,0.0,-6.08,-6.0762,-6.0204,-5.9877,-5.9877,-5.93,-5.8915,-5.8646,-5.8646,-5.8646,-5.8646,-5.8896,-5.9026,-5.9072,-5.9072,0.0,0.0,0.0,0.0,0.0,0.0,0.0,0.0,0.0,0.0,0.0,0.0,0.0,0.0,0.0,0.0,0.0,0.0,0.0,-6.1213,-6.1056,-6.0981,0.0,0.0,0.0,0.0,0.0,0.0,0.0,0.0,0.0,-6.0431,-6.0431,-6.0417,0.0,0.0,-6.0403,-6.0403,-6.0179,-5.9979,-5.9846,-5.9595,0.0,-5.9046,-5.9028,-5.8951,-5.8756,-5.8859,-5.9225,-6.0041,-6.0171,-6.0449,-6.1286,-6.1435,-6.1611,-6.2165,-6.3022,-6.3512,-6.342,-6.3379,-6.3284,-6.2975,-6.2879,-6.2818,-6.4782,-6.4853,-6.5596,-6.5878,-6.5878,-6.5878,-6.5878,-6.5878,-6.5878,-6.5692,-6.534,-6.534,-6.5135,-6.4782,-6.4808,0.0,0.0,0.0,-6.4089,-6.407,-6.3551,-6.3115,-6.2839,-6.2839,-6.2397,-6.1601,-6.1601,-6.132,-6.08,-6.08,-6.105,-6.155,0.0,0.0,-6.08,-6.0454,-6.0281,-6.0242,-5.9454,-5.9011,-5.9011,-5.8569,-5.8288,-5.8288,-5.8288,-5.8288,-5.8288,-5.8288,-5.8288,-5.8288,-5.8288,-5.8511,0.0,0.0,0.0,0.0,0.0,0.0,0.0,0.0,0.0,0.0,0.0,-6.1186,-6.1186,0.0,0.0,0.0,-6.107,-6.1018,-6.1,-6.0875,0.0,0.0,0.0,0.0,0.0,0.0,0.0,-6.0458,-6.0417,-6.0403,-6.0403,-6.027,-6.0222,-6.0375,-6.0403,-6.0328,-6.011,0.0,-5.9884,-5.9357,-5.9268,-5.9084,-5.8576,-5.8471,-5.8365,-5.8142,-5.8072,-5.8174,-5.8657,-5.8768,-5.9062,-5.978,-6.002,-6.0202,-6.0651,-6.138,-6.215,-6.2714,-6.2825,-6.2745,-6.2453,-6.242,-6.2334,-6.311,-6.3257,-6.4949,-6.5673,-6.5673,-6.5673,-6.5673,-6.5673,-6.5654,-6.5205,-6.4392,-6.4392,-6.3911,-6.311,-6.3175,0.0,-6.3276,-6.3218,-6.318,-6.318,-6.3103,-6.2692,-6.1981,-6.1981,-6.1558,-6.08,-6.08,-6.08,-6.08,-6.0723,-6.0704,-6.0685,-6.0627,-6.0627,-6.0646,-5.9838,-5.9415,-5.9396,-5.8627,-5.8146,-5.8088,-5.8107,-5.8088,-5.8069,-5.8107,-5.8088,-5.8088,-5.8088,-5.8088,-5.8088,-5.8088,-5.8146,-5.8184,0.0,0.0,0.0,0.0,0.0,0.0,0.0,0.0,0.0,0.0,0.0,0.0,0.0,0.0,0.0,-6.0674,0.0,-6.0505,-6.0493,0.0,0.0,0.0,-6.0307,-6.0288,-6.024,-6.0198,-6.0198,0.0,0.0,-6.0132,-5.9844,-5.9732,-6.006,-6.0223,-6.011,-5.9618,-5.9551,-5.9339,-5.8836,-5.8677,-5.8489,-5.8013,-5.7891,-5.7742,-5.737,-5.7188,-5.7239,-5.73,-5.73,-5.7558,-5.8225,-5.8311,-5.859,-5.9379,-5.9577,-5.9995,-6.1516,-6.1851,-6.1906,-6.1888,-6.196,-6.2051,-6.311,-6.3129,-6.359,-6.3776,-6.3776,-6.3776,-6.3757,-6.3776,-6.3757,-6.3629,-6.3424,-6.3443,-6.3295,-6.311,-6.3104,-6.3117,-6.3111,-6.2497,-6.2228,-6.219,-6.1557,-6.1154,-6.0962,-6.0962,-6.0872,-6.0729,-6.0741,-6.0765,-6.0762,-6.0127,-5.9819,-5.9781,-5.9184,-5.9204,-5.9762,-5.8992,-5.8569,-5.8569,-5.7742,-5.6983,-5.6338,-5.6319,-5.6299,-5.6319,-5.6319,-5.6319,-5.6319,-5.6319,-5.6319,-5.6319,-5.6319,-5.6607,-5.7291,-5.7311,0.0,0.0,0.0,0.0,0.0,0.0,0.0,0.0,0.0,-5.8991,-5.8981,0.0,-5.896,0.0,-5.8865,-5.8815,-5.8784,-5.8699,0.0,0.0,-5.8545,-5.8506,-5.8525,-5.8511,-5.8498,-5.8498,-5.8498,-5.8377,-5.8083,-5.7958,-5.7829,-5.772,-5.8621,-5.9287,-5.9159,-5.9047,-5.8816,-5.8267,-5.8134,-5.7986,-5.7504,-5.7351,-5.732,-5.7232,-5.7188,-5.7188,-5.7188,-5.7188,-5.7279,-5.746,-5.7496,-5.7804,-5.8546,-5.8691,-5.9035,-5.9977,-6.0638,-6.11,-6.1073,-6.1543,-6.2005,-6.1904,-6.1904,-6.1904,-6.1904,-6.1942,-6.2776,-6.311,-6.311,-6.311,-6.2885,-6.25,-6.209,-6.1898,-6.1944,-6.1944,-6.1939,-6.1946,-6.1524,-6.1313,-6.1294,-6.0815,-6.0623,-6.0623,-6.0623,-6.0617,-6.0667,-6.0648,-6.0468,-6.0121,-5.9641,-5.9238,-5.8865,-5.8027,-5.7855,-5.827,-5.7912,-5.7723,-5.7723,-5.6857,-5.6184,-5.5722,-5.5684,-5.5684,-5.5684,-5.5684,-5.5684,-5.5684,-5.5684,-5.5692,-5.5671,-5.5673,-5.5893,-5.631,-5.6371,-5.6582,0.0,0.0,0.0,0.0,0.0,0.0,0.0,0.0,0.0,0.0,0.0,-5.8243,-5.8212,-5.8177,-5.8141,-5.8105,-5.8049,-5.7979,-5.7953,-5.7932,-5.7886,-5.7886,-5.7886,-5.7886,-5.7886,-5.7739,-5.7538,-5.732,-5.7012,-5.6718,-5.6463,-5.6956,-5.7371,-5.7554,-5.7438,-5.7188,-5.6708,-5.6904,-5.7175,-5.7166,-5.7188,-5.7188,-5.7188,-5.7188,-5.7188,-5.7188,-5.7188,-5.7188,-5.7188,-5.7188,-5.7315,-5.7768,-5.7858,-5.8058,-5.8474,-5.918,-5.9814,-6.0194,-6.0629,-6.0955,-6.0299,-6.0389,-6.0342,-6.0342,-6.0499,-6.209,-6.2757,-6.2757,-6.2757,-6.2333,-6.1571,-6.0756,-6.0431,-6.0485,-6.0485,-6.0525,-6.0578,-6.0578,-6.0578,-6.0578,-6.0578,-6.0559,-6.0578,-6.0578,-6.0488,-6.0347,-6.0406,-5.9965,-5.907,-5.9019,-5.8641,-5.7913,-5.705,-5.6628,-5.6647,-5.6752,-5.6827,-5.683,-5.5983,-5.5541,-5.5549,-5.5549,-5.5549,-5.5549,-5.5645,-5.5703,-5.5692,-5.5673,-5.5651,-5.5596,-5.564,-5.5638,-5.5504,-5.5562,-5.5562,0.0,-5.5523,0.0,0.0,0.0,0.0,0.0,0.0,0.0,0.0,-5.785,-5.7827,-5.7772,-5.7766,-5.7742,-5.7666,-5.7666,-5.7627,-5.7594,-5.7581,-5.7581,-5.7562,-5.7581,-5.7548,-5.7502,-5.7186,-5.6967,-5.6749,-5.6256,-5.5817,-5.5525,-5.518,-5.5078,-5.5343,-5.5527,-5.5499,-5.4937,-5.5522,-5.6332,-5.6869,-5.7116,-5.7188,-5.7188,-5.7188,-5.7188,-5.7188,-5.7188,-5.7188,-5.7188,-5.7188,-5.7206,-5.7188,-5.7206,-5.7206,-5.7315,-5.7876,-5.8546,-5.9253,-5.9633,-5.9615,-5.9791,-6.0375,-6.0049,-6.0099,-6.0441,-6.0775,-6.0922,-6.0903,-6.0922,-6.0813,-6.0665,-6.0479,-6.0403,-6.0417,-6.0417,-6.0431,-6.0431,-6.0444,-6.0431,-6.0431,-6.0431,-6.0431,-6.0431,-6.0431,-5.9946,-5.9096,-5.9327,-5.8896,-5.7848,-5.7468,-5.7184,-5.7031,-5.6175,-5.5734,-5.5753,0.0,0.0,0.0,-5.5126,-5.4722,-5.4722,-5.4741,-5.4722,-5.4741,-5.5357,0.0,-5.5638,-5.5607,-5.5585,-5.5527,-5.5527,0.0,0.0,0.0,0.0,0.0,0.0,0.0,0.0,0.0,0.0,0.0,-5.5834,-5.6007,-5.6014,-5.6014,-5.5995,-5.6002,-5.5935,-5.5899,-5.5886,-5.5893,-5.5874,-5.588,-5.588,-5.588,-5.588,-5.5886,-5.575,-5.5436,-5.5329,-5.5044,-5.4556,-5.4242,-5.4046,-5.3729,-5.3394,-5.3243,-5.3243,-5.4287,-5.4942,-5.4943,-5.545,-5.5993,-5.6174,-5.6754,-5.7116,-5.7188,-5.7188,-5.7188,-5.7188,-5.7188,-5.7188,-5.7188,-5.7188,-5.7188,-5.7188,-5.7188,-5.7188,-5.7188,-5.7333,-5.7659,-5.8456,-5.9144,-5.9615,-5.945,0.0,-5.9607,-5.9605,0.0,-5.9807,-5.9807,-5.9807,-6.0019,-5.9988,-5.9807,-5.9807,-5.9807,-5.9826,-5.9807,-5.9809,-5.9791,-5.939,-5.9409,-5.9769,-5.8989,-5.8818,-5.9197,-5.8799,-5.8334,-5.7786,-5.7946,-5.7491,-5.6545,-5.6265,-5.5959,-5.5565,-5.5128,-5.4905,-5.4919,-5.5105,-5.5332,-5.5596,-5.5193,-5.4809,-5.4416,-5.4416,-5.4205,-5.3791,-5.4137,0.0,0.0,0.0,0.0,0.0,0.0,0.0,0.0,-5.4831,0.0,-5.5427,-5.5446,-5.5465,-5.5465,-5.5446,-5.5446,-5.5446,-5.5446,-5.5458,-5.5456,-5.5439,-5.5446,-5.5446,-5.5428,-5.5396,-5.5384,-5.5396,-5.539,-5.539,-5.539,-5.539,-5.539,-5.5214,-5.5038,-5.4825,-5.4493,-5.4103,-5.3758,-5.3485,-5.3261,-5.2959,-5.2783,-5.2654,-5.2613,-5.3197,-5.3802,-5.4237,-5.4581,-5.5015,-5.5414,-5.6084,-5.6591,-5.6627,-5.6935,-5.717,-5.7188,-5.7188,-5.7188,-5.7188,-5.7188,-5.7188,-5.7188,-5.7188,-5.7188,-5.7188,-5.7188,-5.7297,-5.775,-5.8148,-5.842,-5.9084,-5.9178,-5.9122,-5.9122,-5.9215,-5.9215,-5.9159,-5.9122,0.0,0.0,0.0,-5.9215,-5.9215,-5.9215,-5.9215,-5.9121,-5.8952,-5.8313,-5.8276,-5.8708,-5.7411,-5.7148,-5.773,-5.711,-5.6698,-5.6477,-5.6548,-5.608,-5.5221,-5.5236,-5.497,-5.4371,-5.4296,-5.424,-5.4107,-5.4427,-5.4676,-5.4836,-5.4985,-5.466,-5.3886,-5.3867,-5.3521,-5.2801,-5.2935,-5.2992,-5.2981,-5.2981,-5.2958,-5.2881,-5.2935,-5.3218,-5.383,-5.3917,-5.4242,-5.4868,-5.4944,-5.4944,-5.4944,-5.4944,-5.4944,-5.4944,-5.4944,-5.5084,-5.5345,-5.539,-5.539,-5.539,-5.539,-5.5403,-5.539,-5.539,-5.5377,-5.5319,-5.5286,-5.526,-5.5187,-5.4937,-5.4685,-5.4557,-5.4068,-5.37,-5.3603,-5.3279,-5.2937,-5.2828,-5.2717,-5.2563,-5.2503,-5.257,-5.2842,-5.3367,-5.3711,-5.4001,-5.4581,-5.5305,-5.5758,-5.583,-5.6464,-5.6953,-5.6989,-5.7098,-5.7188,-5.7188,-5.7188,-5.7188,-5.7188,-5.7188,-5.7188,-5.7188,-5.7188,-5.7188,-5.7188,-5.7206,-5.7261,-5.8563,-5.9178,-5.8831,-5.889,-5.9215,-5.9215,-5.9008,-5.873,-5.9103,-5.9233,-5.9215,-5.9215,-5.9215,-5.9215,-5.9215,-5.884,-5.8163,-5.805,-5.7693,-5.7129,-5.6903,-5.6865,-5.6959,-5.6865,-5.6255,-5.5342,-5.5543,-5.5095,-5.4094,-5.431,-5.4409,-5.4298,-5.4296,-5.3939,-5.3316,-5.3308,-5.2997,-5.2356,-5.2997,-5.2954,-5.216,-5.216,-5.2102,-5.2006,-5.2628,-5.297,-5.2924,-5.2886,-5.287,-5.2829,-5.281,-5.2886,-5.2957,-5.2989,-5.3046,-5.3148,-5.3168,-5.3168,-5.3168,-5.3168,-5.3168,-5.3148,-5.3168,-5.3779,-5.5244,-5.5384,-5.539,-5.5371,-5.5326,-5.539,-5.539,-5.5333,-5.5132,-5.489,-5.4866,-5.478,-5.4474,-5.4413,-5.4243,-5.3924,-5.3777,-5.3564,-5.3318,-5.3106,-5.2955,-5.2806,-5.2694,-5.2563,-5.2508,-5.2498,-5.2534,-5.2733,-5.3277,-5.3693,-5.3911,-5.4544,-5.4997,-5.5051,-5.5667,-5.6156,-5.6174,-5.6681,-5.7062,-5.717,-5.7152,-5.7188,-5.7188,-5.7188,-5.7188,-5.7188,-5.7188,-5.7188,-5.7188,-5.7188,-5.7188,-5.8209,-5.85,-5.8366,-5.811,-5.7856,-5.745,-5.7142,-5.7011,-5.7163,-5.7765,-5.8468,-5.8097,-5.7893,-5.7856,-5.745,-5.7041,-5.669,-5.6245,-5.6096,-5.6096,-5.5242,-5.5075,-5.5446,-5.5056,-5.4568,-5.4055,-5.4159,-5.3954,-5.3481,-5.3621,-5.3718,-5.3681,-5.3273,-5.2735,-5.215,-5.2111,-5.1802,-5.1174,-5.1935,-5.2039,-5.144,-5.1415,-5.1285,-5.0994,-5.1369,-5.1519,-5.1495,-5.1495,-5.1465,-5.1448,-5.1448,-5.1658,-5.2117,-5.2155,-5.2346,-5.2747,-5.2785,-5.2785,-5.2785,-5.2785,-5.2785,-5.2785,-5.2785,-5.311,-5.3913,-5.3989,-5.3989,-5.3989,-5.3989,-5.397,-5.3989,-5.3842,-5.3636,-5.3456,-5.3687,-5.3817,-5.3693,-5.3845,-5.3907,-5.372,-5.3543,-5.3359,-5.3209,-5.3039,-5.289,-5.2783,-5.2649,-5.2549,-5.248,-5.2498,-5.2498,-5.2534,-5.2806,-5.3005,-5.3078,-5.3711,-5.4182,-5.4255,-5.4907,-5.5341,-5.545,-5.6047,-5.6464,-5.6591,-5.6862,-5.7152,-5.717,-5.7188,-5.7188,-5.7188,-5.7188,-5.7188,-5.7188,-5.7188,-5.7188,-5.7446,-5.7446,-5.7446,-5.7079,-5.6473,-5.5868,-5.5614,-5.5614,-5.5633,-5.6312,-5.7281,-5.6804,-5.6528,-5.6455,-5.5868,-5.5504,-5.5244,-5.4693,-5.4638,-5.4895,-5.3794,-5.3555,-5.4032,-5.3482,-5.3185,-5.3185,-5.3185,-5.3185,-5.3185,-5.3185,-5.3115,-5.2876,-5.2123,-5.146,-5.0917,-5.0917,-5.0653,-5.0164,-5.0703,-5.0917,-5.071,-5.0761,-5.0567,-5.0108,-5.0163,-5.02,-5.0181,-5.012,-5.012,-5.0188,-5.012,-5.038,-5.1028,-5.1154,-5.1478,-5.2062,-5.2188,-5.2231,-5.2231,-5.2231,-5.2231,-5.2231,-5.2212,-5.2231,-5.2231,-5.2231,-5.2422,-5.2709,-5.2862,-5.283,-5.2762,-5.2515,-5.2243,-5.2149,-5.2632,-5.2941,-5.2912,-5.3274,-5.3602,-5.3563,-5.3357,-5.3206,-5.3121,-5.2955,-5.2802,-5.2712,-5.2595,-5.2498,-5.2498,-5.2498,-5.2498,-5.2498,-5.2498,-5.2534,-5.2534,-5.3005,-5.3385,-5.344,-5.411,-5.4526,-5.4744,-5.5233,-5.5685,-5.583,-5.6373,-5.6772,-5.6917,-5.7098,-5.717,-5.7188,-5.7188,-5.7188,-5.7188,-5.7188,-5.7188,-5.5853,-5.5835,-5.589,-5.5798,-5.5702,-5.5596,-5.5519,-5.5537,-5.5596,-5.5651,-5.5776,-5.5721,-5.5684,-5.5702,-5.5596,-5.5152,-5.4528,-5.4436,-5.4069,-5.3515,-5.3277,-5.324,-5.3332,-5.3222,-5.3185,-5.3185,-5.3185,-5.3167,-5.3112,-5.3112,-5.2803,-5.2087,-5.1316,-5.0528,-4.9853,-4.978,-4.9357,-4.8549,-4.8586,-4.8896,-4.9464,-4.9741,-4.9769,-4.9409,-4.9688,-4.9844,-4.9844,-4.9556,-4.9541,-4.9784,-4.9556,-4.9446,-4.9551,-4.9821,-5.0014,-5.0123,-5.0399,-5.0531,-5.0569,-5.0531,-5.0608,-5.0531,-5.0596,-5.0596,-5.0608,-5.0558,-5.12,-5.2296,-5.2728,-5.252,-5.237,-5.2191,-5.1847,-5.1364,-5.2008,-5.2437,-5.2258,-5.2776,-5.323,-5.323,-5.3227,-5.3164,-5.306,-5.2872,-5.2735,-5.2572,-5.2544,-5.2498,-5.2498,-5.2498,-5.2498,-5.2498,-5.2498,-5.2498,-5.2516,-5.2516,-5.2715,-5.2733,-5.3277,-5.3711,-5.3947,-5.4436,-5.5015,-5.507,-5.5613,-5.6066,-5.6337,-5.6627,-5.7134,-5.7188,-5.7188,-5.7188,-5.7188,-5.7188,-5.7188,-5.5614,-5.5614,-5.5614,-5.5339,-5.4858,-5.4381,-5.4179,-5.4179,-5.4197,-5.4179,-5.4179,-5.4179,-5.4436,-5.484,-5.4399,-5.3995,-5.3702,-5.3683,-5.3537,-5.3203,-5.3185,-5.3185,-5.3185,-5.3185,-5.3185,-5.3185,-5.3185,-5.2968,-5.2491,-5.2032,-5.1371,-5.0639,-5.0253,-4.9646,-4.8912,-4.882,-4.8655,-4.8343,-4.8324,-4.8439,-4.8692,-4.905,-4.924,-4.9299,-4.9439,-4.9512,-4.9498,-4.936,-4.936,-4.9483,-4.9378,-4.9299,-4.9299,-4.942,-4.9498,-4.9527,-4.9817,-4.9993,-5.0025,-5.02,-5.0302,-5.0302,-5.01,-5.0076,-5.0248,-4.9955,-5.0107,-5.0836,-5.1014,-5.0895,-5.0594,-5.0363,-5.0125,-5.0021,-5.0805,-5.1443,-5.1338,-5.2454,-5.3185,-5.3185,-5.3185,-5.3164,-5.298,-5.2828,-5.2649,-5.2526,-5.2498,-5.2498,-5.2498,-5.2498,-5.2498,-5.2498,-5.2498,-5.2498,-5.2498,-5.2498,-5.2498,-5.2552,-5.2752,-5.2987,-5.3132,-5.3675,-5.42,-5.42,-5.4852,-5.5486,-5.5975,-5.6192,-5.6573,-5.6862,-5.7188,-5.7188,-5.7188,-5.7188,-5.7188,-5.4932,-5.4932,-5.4932,-5.4601,-5.4032,-5.3463,-5.3185,-5.3185,-5.3185,-5.3185,-5.3185,-5.3185,-5.3515,-5.394,-5.3463,-5.3185,-5.3185,-5.3185,-5.3185,-5.3185,-5.3185,-5.3185,-5.3185,-5.3185,-5.3075,-5.2894,-5.2858,-5.2454,-5.1665,-5.0857,-5.016,-4.9647,-4.9372,-4.893,-4.8379,-4.8324,-4.8324,-4.8324,-4.8324,-4.8324,-4.8344,-4.855,-4.8799,-4.9015,-4.9129,-4.9161,-4.9161,-4.908,-4.908,-4.9161,-4.908,-4.9031,-4.9031,-4.9113,-4.919,-4.9299,-4.9527,-4.9674,-4.9655,-4.9884,-5.0025,-5.0012,-4.9803,-4.9757,-4.9884,-4.9589,-4.9394,-4.9525,-4.9527,-4.9465,-4.9193,-4.8951,-4.8781,-4.8769,-4.9765,-5.0508,-5.0857,-5.2087,-5.2949,-5.313,-5.3185,-5.3124,-5.2955,-5.2739,-5.2554,-5.2521,-5.2498,-5.2498,-5.2498,-5.2498,-5.2498,-5.2498,-5.2498,-5.2498,-5.2498,-5.2498,-5.2498,-5.2498,-5.2552,-5.257,-5.2498,-5.3078,-5.3367,-5.3458,-5.411,-5.4599,-5.4979,-5.5341,-5.5939,-5.6609,-5.6989,-5.7116,-5.7188,-5.7188,-5.7188,-5.3295,-5.3332,-5.3314,-5.335,-5.324,-5.3203,-5.3185,-5.3185,-5.3185,-5.3185,-5.3185,-5.3185,-5.3222,-5.3277,-5.3222,-5.3185,-5.3185,-5.3185,-5.3185,-5.3185,-5.3185,-5.3185,-5.3185,-5.3185,-5.2784,-5.2087,-5.205,-5.1628,-5.0839,-5.005,-4.9647,-4.9537,-4.882,-4.8379,-4.8324,-4.8324,-4.8324,-4.8324,-4.8324,-4.8324,-4.8324,-4.8325,-4.8345,-4.842,-4.864,-4.8815,-4.878,-4.8532,-4.8477,-4.8816,-4.8532,-4.8382,-4.8383,-4.8676,-4.8932,-4.924,-4.9317,-4.9314,-4.9333,-4.9375,-4.939,-4.936,-4.9378,-4.9329,-4.9424,-4.9302,-4.9129,-4.8883,-4.89,-4.8849,-4.885,-4.8781,-4.8622,-4.8457,-4.9171,-5.0031,-5.0729,-5.1665,-5.238,-5.3023,-5.3185,-5.306,-5.2828,-5.2622,-5.2526,-5.2498,-5.2498,-5.2498,-5.2498,-5.2498,-5.2498,-5.2498,-5.2498,-5.2498,-5.2498,-5.2498,-5.2498,-5.2498,-5.2498,-5.2498,-5.2498,-5.2534,-5.2589,-5.2733,-5.3331,-5.3748,-5.3929,-5.4454,-5.5233,-5.5957,-5.6645,-5.6917,-5.688,-5.7116,-5.7188,-5.3185,-5.3185,-5.3185,-5.3185,-5.3185,-5.3185,-5.3185,-5.3185,-5.3185,-5.3185,-5.3185,-5.3185,-5.3185,-5.3185,-5.3185,-5.3185,-5.3185,-5.3185,-5.3185,-5.3185,-5.3185,-5.2931,-5.2454,-5.2435,-5.2013,-5.1334,-5.1242,-5.0802,-5.0013,-4.9169,-4.8765,-4.8746,-4.8471,-4.8324,-4.8324,-4.8324,-4.8324,-4.8324,-4.8324,-4.8324,-4.8324,-4.8324,-4.8324,-4.8306,-4.842,-4.8495,-4.8477,-4.8364,-4.8363,-4.8495,-4.8382,-4.8324,-4.8306,-4.842,-4.8532,-4.8658,-4.8866,-4.8965,-4.9017,-4.9193,-4.9299,-4.9283,-4.9097,-4.9062,-4.9158,-4.8915,-4.8693,-4.8746,-4.8586,-4.8495,-4.8477,-4.8477,-4.8421,-4.8491,-4.9499,-5.0417,-5.0949,-5.1922,-5.2894,-5.3112,-5.306,-5.289,-5.2802,-5.264,-5.2498,-5.2498,-5.2498,-5.2498,-5.2498,-5.2498,-5.2498,-5.2498,-5.2498,-5.2498,-5.2498,-5.2498,-5.2498,-5.2498,-5.2498,-5.2498,-5.2498,-5.2498,-5.2552,-5.257,-5.2933,-5.3204,-5.3512,-5.4218,-5.4907,-5.5196,-5.5903,-5.6355,-5.641,-5.6591,-5.6899,-5.3185,-5.3185,-5.3185,-5.3185,-5.3185,-5.3185,-5.3185,-5.3185,-5.3185,-5.3185,-5.3185,-5.3185,-5.3185,-5.3185,-5.3185,-5.3041,-5.2876,-5.3078,-5.3078,-5.2839,-5.2821,-5.2399,-5.172,-5.161,-5.1187,-5.0453,-5.0105,-4.9682,-4.9187,-4.86,-4.8324,-4.8324,-4.8324,-4.8324,-4.8324,-4.8324,-4.8324,-4.8324,-4.8324,-4.8324,-4.8324,-4.8324,-4.8324,-4.8324,-4.8324,-4.8324,-4.8324,-4.8324,-4.8324,-4.8324,-4.8324,-4.8324,-4.8324,-4.8324,-4.8324,-4.8325,-4.8514,-4.8641,-4.8658,-4.8849,-4.8965,-4.8965,-4.8763,-4.8746,-4.8934,-4.8568,-4.8458,-4.8532,-4.8476,-4.8324,-4.8324,-4.8324,-4.8324,-4.8471,-4.9554,-5.0527,-5.0839,-5.1995,-5.2782,-5.303,-5.2934,-5.2806,-5.2739,-5.2577,-5.2503,-5.2498,-5.2498,-5.2498,-5.2498,-5.2498,-5.2498,-5.2498,-5.2498,-5.2498,-5.2498,-5.2498,-5.2498,-5.2498,-5.2498,-5.2498,-5.2498,-5.2498,-5.2498,-5.2498,-5.2607,-5.2842,-5.3313,-5.4019,-5.4363,-5.4526,-5.507,-5.5631,-5.5794,-5.6011,-5.6283,-5.3185,-5.3185,-5.3185,-5.3185,-5.3185,-5.3185,-5.3185,-5.3185,-5.3185,-5.3185,-5.3185,-5.3185,-5.3185,-5.3185,-5.3093,-5.2729,-5.2325,-5.2711,-5.2601,-5.2032,-5.1977,-5.1555,-5.082,-5.0784,-5.0362,-4.9592,-4.8765,-4.8416,-4.8416,-4.8361,-4.8324,-4.8324,-4.8324,-4.8324,-4.8324,-4.8324,-4.8324,-4.8324,-4.8324,-4.8324,-4.8324,-4.8324,-4.8324,-4.8324,-4.8324,-4.8324,-4.8324,-4.8324,-4.8324,-4.8324,-4.8324,-4.8324,-4.8324,-4.8324,-4.8324,-4.8324,-4.8325,-4.8325,-4.8325,-4.8363,-4.842,-4.842,-4.8344,-4.8382,-4.8402,-4.8363,-4.8325,-4.8344,-4.8325,-4.8324,-4.8324,-4.8324,-4.8324,-4.8416,-4.926,-5.0141,-5.0784,-5.1555,-5.2284,-5.2837,-5.2872,-5.2743,-5.2631,-5.2554,-5.248,-5.2498,-5.2498,-5.2498,-5.2498,-5.2498,-5.2498,-5.2498,-5.2498,-5.2498,-5.2498,-5.2498,-5.2498,-5.2498,-5.2498,-5.2498,-5.2498,-5.2498,-5.2498,-5.2498,-5.2498,-5.2697,-5.2752,-5.3385,-5.3566,-5.382,-5.4399,-5.4834,-5.5015,-5.5196,-5.5522,-5.3185,-5.3185,-5.3185,-5.3185,-5.3185,-5.3185,-5.3185,-5.3185,-5.3185,-5.3185,-5.3185,-5.3185,-5.3185,-5.3038,-5.2637,-5.2234,-5.1977,-5.1738,-5.1408,-5.1187,-5.1169,-5.071,-5.005,-4.9959,-4.9536,-4.8783,-4.8453,-4.8324,-4.8324,-4.8324,-4.8324,-4.8324,-4.8324,-4.8324,-4.8324,-4.8324,-4.8324,-4.8324,-4.8324,-4.8324,-4.8324,-4.8324,-4.8324,-4.8324,-4.8324,-4.8324,-4.8324,-4.8324,-4.8324,-4.8324,-4.8324,-4.8324,-4.8324,-4.8324,-4.8324,-4.8324,-4.8324,-4.8324,-4.8324,-4.8324,-4.8324,-4.8324,-4.8324,-4.8324,-4.8324,-4.8324,-4.8324,-4.8324,-4.8324,-4.8324,-4.8324,-4.8324,-4.8324,-4.8343,-4.9554,-5.049,-5.1004,-5.2013,-5.2758,-5.2947,-5.289,-5.2761,-5.2631,-5.2513,-5.2498,-5.2498,-5.2498,-5.2498,-5.2498,-5.2498,-5.2498,-5.2498,-5.2498,-5.2498,-5.2498,-5.2498,-5.2498,-5.2498,-5.2498,-5.2498,-5.2498,-5.2498,-5.2498,-5.2498,-5.2498,-5.2516,-5.2552,-5.2697,-5.2951,-5.3132,-5.3603,-5.3892,-5.4074,-5.4345,-5.4653,-5.3185,-5.3185,-5.3185,-5.3185,-5.3185,-5.3185,-5.3185,-5.3185,-5.3185,-5.3185,-5.3185,-5.3185,-5.3185,-5.302,-5.2362,-5.183,-5.1499,-5.0729,-5.0178,-4.9994,-5.0251,-4.9866,-4.9132,-4.9095,-4.8875,-4.8416,-4.8324,-4.8324,-4.8324,-4.8324,-4.8324,-4.8324,-4.8324,-4.8324,-4.8324,-4.8324,-4.8324,-4.8324,-4.8324,-4.8324,-4.8324,-4.8324,-4.8324,-4.8324,-4.8324,-4.8324,-4.8324,-4.8324,-4.8324,-4.8324,-4.8324,-4.8324,-4.8324,-4.8324,-4.8324,-4.8324,-4.8324,-4.8324,-4.8324,-4.8324,-4.8324,-4.8324,-4.8324,-4.8324,-4.8324,-4.8324,-4.8324,-4.8324,-4.8324,-4.8324,-4.8324,-4.8324,-4.8434,-4.8783,-4.9958,-5.1004,-5.1628,-5.2564,-5.3051,-5.302,-5.289,-5.2743,-5.2631,-5.2536,-5.2498,-5.2498,-5.2498,-5.2498,-5.2498,-5.2498,-5.2498,-5.2498,-5.2498,-5.2498,-5.2498,-5.2498,-5.2498,-5.2498,-5.2498,-5.2498,-5.2498,-5.2498,-5.2498,-5.2498,-5.2498,-5.2498,-5.2534,-5.2516,-5.2679,-5.2806,-5.2951,-5.3059,-5.3313,-5.3476,-5.3766,-5.3185,-5.3185,-5.3185,-5.3185,-5.3185,-5.3185,-5.3185,-5.3185,-5.3185,-5.3185,-5.3185,-5.3185,-5.3185,-5.3023,-5.2252,-5.1481,-5.0765,-4.9884,-4.9187,-4.8875,-4.9114,-4.9095,-4.8508,-4.8471,-4.8416,-4.8343,-4.8324,-4.8324,-4.8324,-4.8324,-4.8324,-4.8324,-4.8324,-4.8324,-4.8324,-4.8324,-4.8324,-4.8324,-4.8324,-4.8324,-4.8324,-4.8324,-4.8324,-4.8324,-4.8324,-4.8324,-4.8324,-4.8324,-4.8324,-4.8324,-4.8324,-4.8324,-4.8324,-4.8324,-4.8324,-4.8324,-4.8324,-4.8324,-4.8324,-4.8324,-4.8324,-4.8324,-4.8324,-4.8324,-4.8324,-4.8324,-4.8324,-4.8324,-4.8324,-4.8324,-4.8324,-4.8324,-4.871,-4.9592,-5.0472,-5.1555,-5.2873,-5.3167,-5.3124,-5.3039,-5.289,-5.2761,-5.2631,-5.2554,-5.2503,-5.2498,-5.2498,-5.2498,-5.2498,-5.2498,-5.2498,-5.2498,-5.2498,-5.2498,-5.2498,-5.2498,-5.2498,-5.2498,-5.2498,-5.2498,-5.2498,-5.2498,-5.2498,-5.2498,-5.2498,-5.2498,-5.2498,-5.2498,-5.2498,-5.2607,-5.2625,-5.2516,-5.2602,-5.285,-5.2852,-5.3185,-5.3185,-5.3185,-5.3185,-5.3185,-5.3185,-5.3185,-5.3185,-5.3185,-5.3185,-5.3185,-5.3185,-5.3185,-5.3038,-5.1756,-5.0986,-5.0527,-4.9315,-4.8581,-4.8379,-4.8508,-4.8545,-4.8343,-4.8324,-4.8324,-4.8324,-4.8324,-4.8324,-4.8324,-4.8324,-4.8324,-4.8324,-4.8324,-4.8324,-4.8324,-4.8324,-4.8324,-4.8324,-4.8324,-4.8324,-4.8324,-4.8324,-4.8324,-4.8324,-4.8324,-4.8324,-4.8324,-4.8324,-4.8324,-4.8324,-4.8324,-4.8324,-4.8324,-4.8324,-4.8324,-4.8324,-4.8324,-4.8324,-4.8324,-4.8324,-4.8324,-4.8324,-4.8324,-4.8324,-4.8324,-4.8324,-4.8324,-4.8324,-4.8324,-4.8324,-4.8324,-4.8379,-4.9022,-5.0288,-5.1169,-5.2087,-5.2892,-5.3185,-5.3164,-5.302,-5.2872,-5.2761,-5.2631,-5.2536,-5.2498,-5.2498,-5.2498,-5.2498,-5.2498,-5.2498,-5.2498,-5.2498,-5.2498,-5.2498,-5.2498,-5.2498,-5.2498,-5.2498,-5.2498,-5.2498,-5.2498,-5.2498,-5.2498,-5.2498,-5.2498,-5.2498,-5.2498,-5.2498,-5.2498,-5.2498,-5.2498,-5.2498,-5.234,-5.2414,-5.2131,-5.3185,-5.3185,-5.3185,-5.3185,-5.3185,-5.3185,-5.3185,-5.3185,-5.3185,-5.3185,-5.3185,-5.3185,-5.3185,-5.302,-5.1536,-5.0839,-5.0582,-4.9058,-4.8361,-4.8324,-4.8343,-4.8324,-4.8324,-4.8324,-4.8324,-4.8324,-4.8324,-4.8324,-4.8324,-4.8324,-4.8324,-4.8324,-4.8324,-4.8324,-4.8324,-4.8324,-4.8324,-4.8324,-4.8324,-4.8324,-4.8324,-4.8324,-4.8324,-4.8324,-4.8324,-4.8324,-4.8324,-4.8324,-4.8324,-4.8324,-4.8324,-4.8324,-4.8324,-4.8324,-4.8324,-4.8324,-4.8324,-4.8324,-4.8324,-4.8324,-4.8324,-4.8324,-4.8324,-4.8324,-4.8324,-4.8324,-4.8324,-4.8324,-4.8324,-4.8324,-4.8434,-4.8893,-4.9756,-5.0692,-5.1811,-5.2674,-5.317,-5.3185,-5.3164,-5.3078,-5.2934,-5.2783,-5.2676,-5.2577,-5.2503,-5.2498,-5.2498,-5.2498,-5.2498,-5.2498,-5.2498,-5.2498,-5.2498,-5.2498,-5.2498,-5.2498,-5.2498,-5.2498,-5.2498,-5.2498,-5.2498,-5.2498,-5.2498,-5.2498,-5.2498,-5.2498,-5.2498,-5.2498,-5.2498,-5.2498,-5.2498,-5.2457,-5.234,-5.1909,-5.1644,-5.3185,-5.3185,-5.3185,-5.3185,-5.3185,-5.3185,-5.3185,-5.3185,-5.3185,-5.3185,-5.3185,-5.3185,-5.3075,-5.2986,-5.1463,-5.0747,-5.0527,-4.9003,-4.8471,-4.8324,-4.8324,-4.8324,-4.8324,-4.8324,-4.8324,-4.8324,-4.8324,-4.8324,-4.8324,-4.8324,-4.8324,-4.8324,-4.8324,-4.8324,-4.8324,-4.8324,-4.8324,-4.8324,-4.8324,-4.8324,-4.8324,-4.8324,-4.8324,-4.8324,-4.8324,-4.8324,-4.8324,-4.8324,-4.8324,-4.8324,-4.8324,-4.8324,-4.8324,-4.8324,-4.8324,-4.8324,-4.8324,-4.8324,-4.8324,-4.8324,-4.8324,-4.8324,-4.8324,-4.8324,-4.8324,-4.8324,-4.8324,-4.8324,-4.8324,-4.8324,-4.8489,-4.9646,-5.0417,-5.093,-5.2142,-5.2949,-5.3185,-5.3185,-5.3185,-5.3164,-5.2934,-5.2828,-5.2717,-5.2622,-5.2498,-5.2498,-5.2498,-5.2498,-5.2498,-5.2498,-5.2498,-5.2498,-5.2498,-5.2498,-5.2498,-5.2498,-5.2498,-5.2498,-5.2498,-5.2498,-5.2498,-5.2498,-5.2498,-5.2498,-5.2498,-5.2498,-5.2498,-5.2498,-5.2434,-5.2498,-5.2498,-5.2498,-5.241,-5.1719,-5.1278,-5.3185,-5.3185,-5.3185,-5.3185,-5.3185,-5.3185,-5.3185,-5.3185,-5.3185,-5.3185,-5.3185,-5.3185,-5.2858,-5.2234,-5.1261,-5.0472,-4.9867,-4.8838,-4.8324,-4.8324,-4.8324,-4.8324,-4.8324,-4.8324,-4.8324,-4.8324,-4.8324,-4.8324,-4.8324,-4.8324,-4.8324,-4.8324,-4.8324,-4.8324,-4.8324,-4.8324,-4.8324,-4.8324,-4.8324,-4.8324,-4.8324,-4.8324,-4.8324,-4.8324,-4.8324,-4.8324,-4.8324,-4.8324,-4.8324,-4.8324,-4.8324,-4.8324,-4.8324,-4.8324,-4.8324,-4.8324,-4.8324,-4.8324,-4.8324,-4.8324,-4.8324,-4.8324,-4.8324,-4.8324,-4.8324,-4.8324,-4.8324,-4.8324,-4.8324,-4.8324,-4.8416,-4.9224,-5.005,-5.0784,-5.1665,-5.2527,-5.3023,-5.3167,-5.3146,-5.3042,-5.2893,-5.2761,-5.2654,-5.2595,-5.2521,-5.2498,-5.2498,-5.2498,-5.2498,-5.2498,-5.2498,-5.248,-5.2245,-5.2208,-5.219,-5.219,-5.2172,-5.2317,-5.2389,-5.2498,-5.2498,-5.2498,-5.2498,-5.2498,-5.2498,-5.2457,-5.2298,-5.2298,-5.2209,-5.2345,-5.2434,-5.2434,-5.2209,-5.1525,-5.1008,-5.3185,-5.3185,-5.3185,-5.3185,-5.3185,-5.3185,-5.3185,-5.3185,-5.3185,-5.3185,-5.3185,-5.3185,-5.2747,-5.1958,-5.1151,-5.0362,-4.9555,-4.871,-4.8324,-4.8324,-4.8324,-4.8324,-4.8324,-4.8324,-4.8324,-4.8324,-4.8324,-4.8324,-4.8324,-4.8324,-4.8324,-4.8324,-4.8324,-4.8324,-4.8324,-4.8324,-4.8324,-4.8324,-4.8324,-4.8324,-4.8324,-4.8324,-4.8324,-4.8324,-4.8324,-4.8324,-4.8324,-4.8324,-4.8324,-4.8324,-4.8324,-4.8324,-4.8324,-4.8324,-4.8324,-4.8324,-4.8324,-4.8324,-4.8324,-4.8324,-4.8324,-4.8324,-4.8324,-4.8324,-4.8324,-4.8324,-4.8324,-4.8324,-4.8324,-4.8324,-4.8343,-4.9077,-4.9812,-5.0288,-5.1298,-5.1995,-5.2179,-5.2711,-5.3164,-5.3039,-5.2872,-5.2743,-5.2649,-5.2549,-5.2521,-5.2498,-5.2498,-5.2498,-5.2498,-5.2498,-5.2498,-5.2389,-5.2045,-5.1864,-5.1846,-5.1828,-5.1774,-5.1973,-5.2208,-5.2371,-5.2498,-5.2498,-5.2498,-5.2457,-5.241,-5.209,-5.1951,-5.1951,-5.1933,-5.1975,-5.2048,-5.2209,-5.2072,-5.1432,-5.1008,-5.3185,-5.3185,-5.3185,-5.3185,-5.3185,-5.3185,-5.3185,-5.3185,-5.3185,-5.3185,-5.3185,-5.3185,-5.2674,-5.1775,-5.1114,-5.0306,-4.937,-4.8746,-4.8324,-4.8324,-4.8324,-4.8324,-4.8324,-4.8324,-4.8324,-4.8324,-4.8324,-4.8324,-4.8324,-4.8324,-4.8324,-4.8324,-4.8324,-4.8324,-4.8324,-4.8324,-4.8324,-4.8324,-4.8324,-4.8324,-4.8324,-4.8324,-4.8324,-4.8324,-4.8324,-4.8324,-4.8324,-4.8324,-4.8324,-4.8324,-4.8324,-4.8324,-4.8324,-4.8324,-4.8324,-4.8324,-4.8324,-4.8324,-4.8324,-4.8324,-4.8324,-4.8324,-4.8324,-4.8324,-4.8324,-4.8324,-4.8324,-4.8324,-4.8324,-4.8324,-4.8361,-4.882,-4.9315,-4.9812,-5.0914,-5.1242,-5.1242,-5.2068,-5.2501,-5.2721,-5.2503,-5.2379,-5.2499,-5.2526,-5.2503,-5.2462,-5.2444,-5.2444,-5.2408,-5.2299,-5.2172,-5.1919,-5.1484,-5.1158,-5.1122,-5.1556,-5.1484,-5.1665,-5.1973,-5.2317,-5.2498,-5.2498,-5.2475,-5.2387,-5.2251,-5.1975,-5.1694,-5.1601,-5.1601,-5.1569,-5.1551,-5.1651,-5.1508,-5.126,-5.0885,-5.3185,-5.3185,-5.3185,-5.3185,-5.3185,-5.3185,-5.3185,-5.3185,-5.3185,-5.3185,-5.3185,-5.3148,-5.2325,-5.1279,-5.0912,-4.9958,-4.882,-4.8379,-4.8324,-4.8324,-4.8324,-4.8324,-4.8324,-4.8324,-4.8324,-4.8324,-4.8324,-4.8324,-4.8324,-4.8324,-4.8324,-4.8324,-4.8324,-4.8324,-4.8324,-4.8324,-4.8324,-4.8324,-4.8324,-4.8324,-4.8324,-4.8324,-4.8324,-4.8324,-4.8324,-4.8324,-4.8324,-4.8324,-4.8324,-4.8324,-4.8324,-4.8324,-4.8324,-4.8324,-4.8324,-4.8324,-4.8324,-4.8324,-4.8324,-4.8324,-4.8324,-4.8324,-4.8324,-4.8324,-4.8324,-4.8324,-4.8324,-4.8324,-4.8324,-4.8324,-4.8324,-4.8545,-4.8893,-4.9427,-4.9867,-5.029,-5.0637,-5.102,-5.1435,-5.1633,-5.173,-5.1883,-5.1909,-5.1982,-5.1941,-5.1864,-5.1882,-5.1919,-5.1937,-5.1719,-5.1466,-5.114,-5.0778,-5.0488,-5.0311,-5.0945,-5.1289,-5.143,-5.1774,-5.2353,-5.2498,-5.2498,-5.2457,-5.241,-5.2251,-5.2,-5.1743,-5.1355,-5.1226,-5.1192,-5.1131,-5.1043,-5.1034,-5.0929,-5.0432,-5.3185,-5.3185,-5.3185,-5.3185,-5.3185,-5.3185,-5.3185,-5.3185,-5.3185,-5.3185,-5.3057,-5.2747,-5.194,-5.093,-5.0288,-4.9444,-4.86,-4.8324,-4.8324,-4.8324,-4.8324,-4.8324,-4.8324,-4.8324,-4.8324,-4.8324,-4.8324,-4.8324,-4.8324,-4.8324,-4.8324,-4.8324,-4.8324,-4.8324,-4.8324,-4.8324,-4.8324,-4.8324,-4.8324,-4.8324,-4.8324,-4.8324,-4.8324,-4.8324,-4.8324,-4.8324,-4.8324,-4.8324,-4.8324,-4.8324,-4.8324,-4.8324,-4.8324,-4.8324,-4.8324,-4.8324,-4.8324,-4.8324,-4.8324,-4.8324,-4.8324,-4.8324,-4.8324,-4.8324,-4.8324,-4.8324,-4.8324,-4.8324,-4.8324,-4.8324,-4.8324,-4.8324,-4.8526,-4.8875,-4.928,-4.9519,-4.9627,-4.9939,-5.0222,-5.0477,-5.0727,-5.0896,-5.0994,-5.109,-5.1217,-5.1249,-5.1303,-5.1357,-5.1411,-5.1049,-5.0669,-5.0307,-4.9908,-4.951,-4.9474,-5.0126,-5.0818,-5.1067,-5.1574,-5.2154,-5.2498,-5.2498,-5.2498,-5.2475,-5.2275,-5.2066,-5.1304,-5.0769,-5.0786,-5.0777,-5.0542,-5.0432,-5.0661,-5.0597,-5.0056,-5.3185,-5.3185,-5.3185,-5.3185,-5.3185,-5.3185,-5.3185,-5.3185,-5.3185,-5.3075,-5.2876,-5.227,-5.1481,-5.0527,-4.9701,-4.8912,-4.8324,-4.8324,-4.8324,-4.8324,-4.8324,-4.8324,-4.8324,-4.8324,-4.8324,-4.8324,-4.8324,-4.8324,-4.8324,-4.8324,-4.8324,-4.8324,-4.8324,-4.8324,-4.8324,-4.8324,-4.8324,-4.8324,-4.8324,-4.8324,-4.8324,-4.8324,-4.8324,-4.8324,-4.8324,-4.8324,-4.8324,-4.8324,-4.8324,-4.8324,-4.8324,-4.8324,-4.8324,-4.8324,-4.8324,-4.8324,-4.8324,-4.8324,-4.8324,-4.8324,-4.8324,-4.8324,-4.8324,-4.8324,-4.8324,-4.8324,-4.8324,-4.8324,-4.8324,-4.8324,-4.8324,-4.8324,-4.8343,-4.8453,-4.8875,-4.915,-4.8838,-4.8911,-4.9124,-4.9425,-4.9708,-5.0019,-5.0264,-5.0492,-5.0673,-5.0673,-5.0728,-5.0673,-5.0633,-5.0162,-4.9782,-4.942,-4.9003,-4.8514,-4.8623,-4.9257,-4.9927,-5.0474,-5.1212,-5.1973,-5.2299,-5.2498,-5.2498,-5.2498,-5.2298,-5.1975,-5.1052,-5.0304,-5.0338,-5.0215,-4.9873,-4.9902,-5.0226,-5.0113,-4.9627,-5.3185,-5.3185,-5.3185,-5.3185,-5.3185,-5.3185,-5.3185,-5.3185,-5.3185,-5.2766,-5.2215,-5.194,-5.1077,-4.9774,-4.8875,-4.8434,-4.8324,-4.8324,-4.8324,-4.8324,-4.8324,-4.8324,-4.8324,-4.8324,-4.8324,-4.8324,-4.8324,-4.8324,-4.8324,-4.8324,-4.8324,-4.8324,-4.8324,-4.8324,-4.8324,-4.8324,-4.8324,-4.8324,-4.8324,-4.8324,-4.8324,-4.8324,-4.8324,-4.8324,-4.8324,-4.8324,-4.8324,-4.8324,-4.8324,-4.8324,-4.8324,-4.8324,-4.8324,-4.8324,-4.8324,-4.8324,-4.8324,-4.8324,-4.8324,-4.8324,-4.8324,-4.8324,-4.8324,-4.8324,-4.8324,-4.8324,-4.8324,-4.8324,-4.8324,-4.8324,-4.8324,-4.8324,-4.8324,-4.8343,-4.8489,-4.8581,-4.8379,-4.8433,-4.8591,-4.8492,-4.8828,-4.934,-4.9717,-4.993,-5.0148,-5.013,-5.0093,-5.0003,-4.98,-4.9311,-4.8985,-4.8659,-4.8514,-4.8079,-4.8131,-4.8749,-4.9438,-4.9999,-5.0886,-5.181,-5.2208,-5.2498,-5.2498,-5.2434,-5.2275,-5.186,-5.0982,-5.0387,-5.0028,-4.9744,-4.9526,-4.9615,-4.9861,-4.9585,-4.926,-5.3185,-5.3185,-5.3185,-5.3185,-5.3185,-5.3185,-5.3185,-5.3185,-5.3185,-5.2747,-5.1995,-5.1463,-5.0398,-4.9003,-4.8416,-4.8324,-4.8324,-4.8324,-4.8324,-4.8324,-4.8324,-4.8324,-4.8324,-4.8324,-4.8324,-4.8324,-4.8324,-4.8324,-4.8324,-4.8324,-4.8324,-4.8324,-4.8324,-4.8324,-4.8324,-4.8324,-4.8324,-4.8324,-4.8324,-4.8324,-4.8324,-4.8324,-4.8324,-4.8324,-4.8324,-4.8324,-4.8324,-4.8324,-4.8324,-4.8324,-4.8324,-4.8324,-4.8324,-4.8324,-4.8324,-4.8324,-4.8324,-4.8324,-4.8324,-4.8324,-4.8324,-4.8324,-4.8324,-4.8324,-4.8324,-4.8324,-4.8324,-4.8324,-4.8324,-4.8324,-4.8324,-4.8324,-4.8324,-4.8324,-4.8324,-4.8324,-4.8305,-4.8247,-4.826,-4.8107,-4.8004,-4.8553,-4.8937,-4.8934,-4.9003,-4.8949,-4.8894,-4.8804,-4.8659,-4.8387,-4.8134,-4.7953,-4.788,-4.779,-4.8043,-4.8478,-4.9311,-4.9981,-5.0778,-5.1611,-5.2226,-5.2498,-5.2498,-5.2322,-5.209,-5.1533,-5.0814,-5.0452,-5.0153,-4.9669,-4.9168,-4.9333,-4.9513,-4.9364,-4.9124,-5.3185,-5.3185,-5.3185,-5.3185,-5.3185,-5.3185,-5.3185,-5.3167,-5.2949,-5.2435,-5.1573,-5.0618,-4.9426,-4.8581,-4.8324,-4.8324,-4.8324,-4.8324,-4.8324,-4.8324,-4.8324,-4.8324,-4.8324,-4.8324,-4.8324,-4.8324,-4.8324,-4.8324,-4.8324,-4.8324,-4.8324,-4.8324,-4.8324,-4.8324,-4.8324,-4.8324,-4.8324,-4.8324,-4.8324,-4.8324,-4.8324,-4.8324,-4.8324,-4.8324,-4.8324,-4.8324,-4.8324,-4.8324,-4.8324,-4.8324,-4.8324,-4.8324,-4.8324,-4.8324,-4.8324,-4.8324,-4.8324,-4.8324,-4.8324,-4.8324,-4.8324,-4.8324,-4.8324,-4.8324,-4.8324,-4.8324,-4.8324,-4.8324,-4.8324,-4.8324,-4.8324,-4.8324,-4.8324,-4.8324,-4.8324,-4.8324,-4.8305,-4.8265,-4.8168,-4.805,-4.7929,-4.7842,-4.8067,-4.788,-4.7826,-4.779,-4.7717,-4.7699,-4.7717,-4.7753,-4.7735,-4.7699,-4.7699,-4.7717,-4.7916,-4.8369,-4.9184,-4.9963,-5.0778,-5.1538,-5.2226,-5.248,-5.2498,-5.2275,-5.2024,-5.1482,-5.0938,-5.0589,-5.022,-4.9598,-4.9094,-4.9063,-4.9063,-4.9018,-4.9018,-5.3185,-5.3185,-5.3185,-5.3185,-5.3185,-5.3185,-5.3185,-5.302,-5.2399,-5.1683,-5.0729,-4.9352,-4.86,-4.8343,-4.8324,-4.8324,-4.8324,-4.8324,-4.8324,-4.8324,-4.8324,-4.8324,-4.8324,-4.8324,-4.8324,-4.8324,-4.8324,-4.8324,-4.8324,-4.8324,-4.8324,-4.8324,-4.8324,-4.8324,-4.8324,-4.8324,-4.8324,-4.8324,-4.8324,-4.8324,-4.8324,-4.8324,-4.8324,-4.8324,-4.8324,-4.8324,-4.8324,-4.8324,-4.8324,-4.8324,-4.8324,-4.8324,-4.8324,-4.8324,-4.8324,-4.8324,-4.8324,-4.8324,-4.8324,-4.8324,-4.8324,-4.8324,-4.8324,-4.8324,-4.8324,-4.8324,-4.8324,-4.8324,-4.8324,-4.8324,-4.8324,-4.8324,-4.8324,-4.8324,-4.8324,-4.8324,-4.8286,-4.8246,-4.8148,-4.803,-4.7927,-4.7842,-4.7777,-4.7738,-4.7699,-4.7699,-4.7699,-4.7699,-4.7699,-4.7717,-4.7717,-4.7699,-4.7699,-4.7735,-4.7808,-4.8387,-4.9184,-4.9963,-5.076,-5.1556,-5.2335,-5.2444,-5.2498,-5.2434,-5.2209,-5.1626,-5.1034,-5.0661,-5.0153,-4.9406,-4.9018,-4.9018,-4.9018,-4.9018,-4.9018,-5.3185,-5.3185,-5.3185,-5.3185,-5.3185,-5.3185,-5.2931,-5.2472,-5.2105,-5.1224,-5.0014,-4.8857,-4.8324,-4.8324,-4.8324,-4.8324,-4.8324,-4.8324,-4.8324,-4.8324,-4.8324,-4.8324,-4.8324,-4.8324,-4.8324,-4.8324,-4.8324,-4.8324,-4.8324,-4.8324,-4.8324,-4.8324,-4.8324,-4.8324,-4.8324,-4.8324,-4.8324,-4.8324,-4.8324,-4.8324,-4.8324,-4.8324,-4.8324,-4.8324,-4.8324,-4.8324,-4.8324,-4.8324,-4.8324,-4.8324,-4.8324,-4.8324,-4.8324,-4.8324,-4.8324,-4.8324,-4.8324,-4.8324,-4.8324,-4.8324,-4.8324,-4.8324,-4.8324,-4.8324,-4.8324,-4.8324,-4.8324,-4.8324,-4.8324,-4.8324,-4.8324,-4.8324,-4.8324,-4.8324,-4.8324,-4.8324,-4.8286,-4.8246,-4.8168,-4.805,-4.7968,-4.7881,-4.7819,-4.7759,-4.7738,-4.7699,-4.7699,-4.7699,-4.7699,-4.7699,-4.7699,-4.7699,-4.7699,-4.7699,-4.7772,-4.8424,-4.9184,-4.9963,-5.0782,-5.1556,-5.2299,-5.2444,-5.2498,-5.2498,-5.2345,-5.1768,-5.1209,-5.0688,-5.0056,-4.9303,-4.9032,-4.9018,-4.9018,-4.9018,-4.9018,-5.3185,-5.3185,-5.3185,-5.3185,-5.3167,-5.2949,-5.2527,-5.1958,-5.1426,-5.0527,-4.9187,-4.8545,-4.8324,-4.8324,-4.8324,-4.8324,-4.8324,-4.8324,-4.8324,-4.8324,-4.8324,-4.8324,-4.8324,-4.8324,-4.8324,-4.8324,-4.8324,-4.8324,-4.8324,-4.8324,-4.8324,-4.8324,-4.8324,-4.8324,-4.8324,-4.8324,-4.8324,-4.8324,-4.8324,-4.8324,-4.8324,-4.8324,-4.8324,-4.8324,-4.8324,-4.8324,-4.8324,-4.8324,-4.8324,-4.8324,-4.8324,-4.8324,-4.8324,-4.8324,-4.8324,-4.8324,-4.8324,-4.8324,-4.8324,-4.8324,-4.8324,-4.8324,-4.8324,-4.8324,-4.8324,-4.8324,-4.8324,-4.8324,-4.8324,-4.8324,-4.8324,-4.8324,-4.8324,-4.8324,-4.8324,-4.8305,-4.8286,-4.8228,-4.8187,-4.8108,-4.8006,-4.7881,-4.778,-4.7738,-4.7717,-4.7699,-4.7699,-4.7699,-4.7699,-4.7699,-4.7699,-4.7699,-4.7699,-4.7699,-4.7753,-4.846,-4.9184,-4.9963,-5.0782,-5.1556,-5.2154,-5.2353,-5.2498,-5.2498,-5.2275,-5.1842,-5.1286,-5.0688,-4.9971,-4.9182,-4.9094,-4.9018,-4.9018,-4.9018,-4.9018,-5.3185,-5.3185,-5.3148,-5.317,-5.3041,-5.2344,-5.1977,-5.1536,-5.0345,-4.926,-4.8526,-4.8324,-4.8324,-4.8324,-4.8324,-4.8324,-4.8324,-4.8324,-4.8324,-4.8324,-4.8324,-4.8324,-4.8324,-4.8324,-4.8324,-4.8324,-4.8324,-4.8324,-4.8324,-4.8324,-4.8324,-4.8324,-4.8324,-4.8324,-4.8324,-4.8324,-4.8324,-4.8324,-4.8324,-4.8324,-4.8324,-4.8324,-4.8324,-4.8324,-4.8324,-4.8324,-4.8324,-4.8324,-4.8324,-4.8324,-4.8324,-4.8324,-4.8324,-4.8324,-4.8324,-4.8324,-4.8324,-4.8324,-4.8324,-4.8324,-4.8324,-4.8324,-4.8324,-4.8324,-4.8324,-4.8324,-4.8324,-4.8324,-4.8324,-4.8324,-4.8324,-4.8324,-4.8324,-4.8324,-4.8324,-4.8305,-4.8286,-4.8248,-4.8208,-4.8148,-4.8006,-4.7861,-4.778,-4.7699,-4.7699,-4.7699,-4.7699,-4.7699,-4.7699,-4.7699,-4.7699,-4.7699,-4.7699,-4.7699,-4.7826,-4.846,-4.9184,-4.9963,-5.0782,-5.1556,-5.2118,-5.2408,-5.2498,-5.2498,-5.2298,-5.2006,-5.1337,-5.0643,-4.9855,-4.9107,-4.9063,-4.9018,-4.9018,-4.9018,-4.9018,-5.3185,-5.3148,-5.2619,-5.2399,-5.2362,-5.2123,-5.1428,-5.0345,-4.926,-4.8563,-4.8361,-4.8324,-4.8324,-4.8324,-4.8324,-4.8324,-4.8324,-4.8324,-4.8324,-4.8324,-4.8324,-4.8324,-4.8324,-4.8324,-4.8324,-4.8324,-4.8324,-4.8324,-4.8324,-4.8324,-4.8324,-4.8324,-4.8324,-4.8324,-4.8324,-4.8324,-4.8324,-4.8324,-4.8324,-4.8324,-4.8324,-4.8343,-4.8343,-4.8343,-4.8324,-4.8324,-4.8324,-4.8324,-4.8324,-4.8324,-4.8324,-4.8324,-4.8324,-4.8324,-4.8324,-4.8324,-4.8324,-4.8324,-4.8324,-4.8324,-4.8324,-4.8324,-4.8324,-4.8324,-4.8324,-4.8324,-4.8324,-4.8324,-4.8324,-4.8324,-4.8324,-4.8324,-4.8324,-4.8324,-4.8324,-4.8324,-4.8305,-4.8267,-4.8247,-4.8169,-4.8048,-4.7884,-4.7741,-4.7699,-4.7699,-4.7699,-4.7699,-4.7699,-4.7699,-4.7699,-4.7699,-4.7699,-4.7699,-4.7699,-4.7898,-4.833,-4.9112,-4.9963,-5.0782,-5.1556,-5.2027,-5.2426,-5.2498,-5.2498,-5.2345,-5.2144,-5.1235,-5.0359,-4.9656,-4.9124,-4.9032,-4.9018,-4.9018,-4.9018,-4.9018,-5.3041,-5.2747,-5.2215,-5.1646,-5.1244,-5.1171,-5.0362,-4.9187,-4.8545,-4.8324,-4.8324,-4.8324,-4.8324,-4.8324,-4.8324,-4.8324,-4.8324,-4.8324,-4.8324,-4.8324,-4.8324,-4.8324,-4.8324,-4.8324,-4.8324,-4.8324,-4.8324,-4.8324,-4.8324,-4.8324,-4.8324,-4.8324,-4.8324,-4.8324,-4.8324,-4.8324,-4.8508,-4.8673,-4.8857,-4.8857,-4.8838,-4.8765,-4.8618,-4.8416,-4.8324,-4.8324,-4.8324,-4.8324,-4.8324,-4.8324,-4.8324,-4.8324,-4.8324,-4.8324,-4.8324,-4.8324,-4.8324,-4.8324,-4.8324,-4.8324,-4.8324,-4.8324,-4.8324,-4.8324,-4.8324,-4.8324,-4.8324,-4.8324,-4.8324,-4.8324,-4.8324,-4.8324,-4.8324,-4.8324,-4.8324,-4.8324,-4.8305,-4.8287,-4.8209,-4.8149,-4.805,-4.7888,-4.7762,-4.772,-4.7699,-4.7699,-4.7699,-4.7699,-4.7699,-4.7699,-4.7699,-4.7699,-4.7699,-4.7699,-4.779,-4.8022,-4.8876,-4.9949,-5.0673,-5.1303,-5.21,-5.2498,-5.2498,-5.2475,-5.2345,-5.1957,-5.0902,-5.0039,-4.9376,-4.9063,-4.9032,-4.9018,-4.9018,-4.9018,-4.9018,-5.2692,-5.1995,-5.1961,-5.1006,-4.9794,-4.9702,-4.9114,-4.8361,-4.8324,-4.8324,-4.8324,-4.8324,-4.8324,-4.8324,-4.8324,-4.8324,-4.8324,-4.8324,-4.8324,-4.8324,-4.8324,-4.8324,-4.8324,-4.8324,-4.8324,-4.8324,-4.8324,-4.8324,-4.8324,-4.8324,-4.8324,-4.8324,-4.8324,-4.8416,-4.8471,-4.8636,-4.8875,-4.9206,-4.9555,-4.9572,-4.9609,-4.9591,-4.9315,-4.9003,-4.8691,-4.86,-4.8526,-4.8416,-4.8343,-4.8324,-4.8324,-4.8324,-4.8324,-4.8324,-4.8324,-4.8324,-4.8324,-4.8324,-4.8324,-4.8324,-4.8324,-4.8324,-4.8324,-4.8324,-4.8324,-4.8324,-4.8324,-4.8324,-4.8324,-4.8324,-4.8324,-4.8324,-4.8324,-4.8324,-4.8324,-4.8324,-4.8324,-4.8248,-4.817,-4.8092,-4.801,-4.7868,-4.7741,-4.7699,-4.7699,-4.7699,-4.7699,-4.7699,-4.7699,-4.7699,-4.7699,-4.7699,-4.7699,-4.7699,-4.7808,-4.7913,-4.8768,-4.9858,-5.0166,-5.0764,-5.1629,-5.2498,-5.2498,-5.2457,-5.2369,-5.1817,-5.0849,-4.9953,-4.9199,-4.9018,-4.9018,-4.9018,-4.9018,-4.9018,-4.9018,-5.1885,-5.1114,-5.0528,-5.0014,-4.9574,-4.893,-4.8526,-4.8324,-4.8324,-4.8324,-4.8324,-4.8324,-4.8324,-4.8324,-4.8324,-4.8324,-4.8324,-4.8324,-4.8324,-4.8324,-4.8324,-4.8324,-4.8324,-4.8324,-4.8324,-4.8324,-4.8324,-4.8324,-4.8324,-4.8324,-4.8379,-4.8324,-4.8545,-4.8746,-4.904,-4.9224,-4.95,-4.9794,-5.0253,-5.0398,-5.0453,-5.0435,-5.016,-4.9903,-4.9389,-4.9242,-4.9058,-4.8618,-4.8453,-4.8324,-4.8324,-4.8324,-4.8324,-4.8324,-4.8324,-4.8324,-4.8324,-4.8324,-4.8324,-4.8324,-4.8324,-4.8324,-4.8324,-4.8324,-4.8324,-4.8324,-4.8324,-4.8324,-4.8324,-4.8324,-4.8324,-4.8324,-4.8324,-4.8324,-4.8324,-4.8324,-4.8305,-4.8247,-4.8169,-4.803,-4.7947,-4.7827,-4.772,-4.7699,-4.7699,-4.7699,-4.7699,-4.7699,-4.7699,-4.7699,-4.7699,-4.7699,-4.7699,-4.7699,-4.7735,-4.7844,-4.8768,-4.9659,-5.0075,-5.0709,-5.181,-5.2498,-5.2498,-5.2322,-5.203,-5.1533,-5.0849,-4.9971,-4.9063,-4.9018,-4.9018,-4.9018,-4.9018,-4.9018,-4.9018,-5.1059,-5.0306,-4.9812,-4.9408,-4.9022,-4.8526,-4.8324,-4.8324,-4.8324,-4.8324,-4.8324,-4.8324,-4.8324,-4.8324,-4.8324,-4.8324,-4.8324,-4.8324,-4.8324,-4.8324,-4.8324,-4.8324,-4.8324,-4.8324,-4.8324,-4.8324,-4.8324,-4.8324,-4.8416,-4.871,-4.8838,-4.8912,-4.904,-4.9536,-5.0013,-5.04,-5.0602,-5.0784,-5.1004,-5.1206,-5.1261,-5.1224,-5.1114,-5.0802,-5.027,-5.0014,-4.961,-4.8967,-4.871,-4.8398,-4.8324,-4.8324,-4.8324,-4.8324,-4.8324,-4.8324,-4.8324,-4.8324,-4.8324,-4.8324,-4.8324,-4.8324,-4.8324,-4.8324,-4.8324,-4.8324,-4.8324,-4.8324,-4.8324,-4.8324,-4.8324,-4.8324,-4.8324,-4.8324,-4.8324,-4.8324,-4.8267,-4.8228,-4.8128,-4.8006,-4.7884,-4.7783,-4.772,-4.7699,-4.7699,-4.7699,-4.7699,-4.7699,-4.7699,-4.7699,-4.7699,-4.7699,-4.7699,-4.7699,-4.7772,-4.8043,-4.8949,-4.9836,-5.047,-5.1194,-5.2172,-5.2475,-5.2475,-5.2048,-5.1533,-5.1087,-5.067,-4.9768,-4.9018,-4.9018,-4.9018,-4.9018,-4.9018,-4.9018,-4.9018,-5.0215,-4.95,-4.95,-4.9003,-4.8379,-4.8324,-4.8324,-4.8324,-4.8324,-4.8324,-4.8324,-4.8324,-4.8324,-4.8324,-4.8324,-4.8324,-4.8324,-4.8324,-4.8324,-4.8324,-4.8324,-4.8324,-4.8324,-4.8324,-4.8324,-4.8324,-4.8361,-4.8434,-4.871,-4.9169,-4.9682,-4.9739,-5.0233,-5.0655,-5.0912,-5.1353,-5.161,-5.1885,-5.1977,-5.2087,-5.2087,-5.1995,-5.1756,-5.1224,-5.0894,-5.06,-4.9941,-4.95,-4.9225,-4.8636,-4.8324,-4.8324,-4.8324,-4.8324,-4.8324,-4.8324,-4.8324,-4.8324,-4.8324,-4.8324,-4.8324,-4.8324,-4.8324,-4.8324,-4.8324,-4.8324,-4.8324,-4.8324,-4.8324,-4.8324,-4.8324,-4.8324,-4.8324,-4.8324,-4.8324,-4.8324,-4.8305,-4.8208,-4.8068,-4.7945,-4.7842,-4.7759,-4.772,-4.7699,-4.7699,-4.7699,-4.7699,-4.7699,-4.7717,-4.7717,-4.7772,-4.7753,-4.7735,-4.7826,-4.8152,-4.8514,-4.9257,-5.0035,-5.0778,-5.1466,-5.2281,-5.2457,-5.2428,-5.1975,-5.1457,-5.0982,-5.048,-4.9639,-4.9094,-4.9018,-4.9018,-4.9018,-4.9018,-4.9018,-4.9018,-4.9389,-4.8618,-4.8618,-4.8471,-4.8324,-4.8324,-4.8324,-4.8324,-4.8324,-4.8324,-4.8324,-4.8324,-4.8324,-4.8324,-4.8324,-4.8324,-4.8324,-4.8324,-4.8324,-4.8324,-4.8324,-4.8324,-4.8324,-4.8324,-4.8324,-4.8324,-4.8398,-4.8728,-4.9352,-5.0013,-5.0508,-5.0527,-5.0949,-5.1242,-5.1683,-5.2105,-5.2307,-5.2711,-5.2766,-5.2766,-5.2784,-5.2876,-5.2726,-5.238,-5.2105,-5.1279,-5.0582,-4.9866,-4.9205,-4.8489,-4.8361,-4.8324,-4.8324,-4.8324,-4.8324,-4.8324,-4.8324,-4.8324,-4.8324,-4.8324,-4.8324,-4.8324,-4.8324,-4.8324,-4.8324,-4.8324,-4.8324,-4.8324,-4.8324,-4.8324,-4.8324,-4.8324,-4.8324,-4.8324,-4.8305,-4.8305,-4.8305,-4.8169,-4.8028,-4.7925,-4.7822,-4.7759,-4.7738,-4.7699,-4.7699,-4.7699,-4.7699,-4.7717,-4.7735,-4.7772,-4.7916,-4.7916,-4.779,-4.7935,-4.8351,-4.9057,-4.9836,-5.0452,-5.1158,-5.181,-5.2384,-5.2351,-5.2251,-5.1902,-5.1449,-5.0929,-5.0342,-4.9639,-4.9212,-4.9063,-4.9018,-4.9018,-4.9018,-4.9018,-4.9018,-4.8746,-4.8324,-4.8324,-4.8324,-4.8324,-4.8324,-4.8324,-4.8324,-4.8324,-4.8324,-4.8324,-4.8324,-4.8324,-4.8324,-4.8324,-4.8324,-4.8324,-4.8324,-4.8324,-4.8324,-4.8324,-4.8324,-4.8324,-4.8361,-4.8324,-4.8343,-4.882,-4.9334,-5.0123,-5.0857,-5.1316,-5.1389,-5.1591,-5.2013,-5.2491,-5.2564,-5.2711,-5.3151,-5.3185,-5.3185,-5.3185,-5.3185,-5.3185,-5.2965,-5.2692,-5.1903,-5.1022,-5.0233,-4.9462,-4.8691,-4.8343,-4.8324,-4.8324,-4.8324,-4.8324,-4.8324,-4.8324,-4.8324,-4.8324,-4.8324,-4.8324,-4.8324,-4.8324,-4.8324,-4.8324,-4.8324,-4.8324,-4.8324,-4.8324,-4.8324,-4.8324,-4.8324,-4.8324,-4.8324,-4.8305,-4.8287,-4.8267,-4.8187,-4.8046,-4.7922,-4.784,-4.7819,-4.7759,-4.7699,-4.7699,-4.7699,-4.7699,-4.7753,-4.7772,-4.8025,-4.8134,-4.8315,-4.8351,-4.8351,-4.8656,-4.9528,-5.0488,-5.1067,-5.1574,-5.1829,-5.2144,-5.2138,-5.2042,-5.1694,-5.1304,-5.0805,-5.022,-4.961,-4.9212,-4.9032,-4.9018,-4.9018,-4.9018,-4.9018,-4.9018,-4.8324,-4.8324,-4.8324,-4.8324,-4.8324,-4.8324,-4.8324,-4.8324,-4.8324,-4.8324,-4.8324,-4.8324,-4.8324,-4.8324,-4.8324,-4.8324,-4.8324,-4.8324,-4.8324,-4.8324,-4.8324,-4.8324,-4.8398,-4.8471,-4.8728,-4.9169,-4.9682,-5.027,-5.0949,-5.1683,-5.2197,-5.2307,-5.2692,-5.3167,-5.3185,-5.3167,-5.3185,-5.3185,-5.3185,-5.3185,-5.3185,-5.3185,-5.3185,-5.3185,-5.3057,-5.2362,-5.1334,-5.0545,-4.9829,-4.9003,-4.8324,-4.8324,-4.8324,-4.8324,-4.8324,-4.8324,-4.8324,-4.8324,-4.8324,-4.8324,-4.8324,-4.8324,-4.8324,-4.8324,-4.8324,-4.8324,-4.8324,-4.8324,-4.8324,-4.8324,-4.8324,-4.8324,-4.8324,-4.8324,-4.8305,-4.8304,-4.8264,-4.8224,-4.8083,-4.7977,-4.7915,-4.7873,-4.7795,-4.7735,-4.7699,-4.7699,-4.7753,-4.779,-4.7953,-4.8387,-4.8677,-4.9075,-4.9383,-4.9365,-4.942,-4.9999,-5.1031,-5.1538,-5.1986,-5.1916,-5.1835,-5.1694,-5.1601,-5.1551,-5.1157,-5.0452,-5.0163,-4.9698,-4.9394,-4.9001,-4.9018,-4.9018,-4.9018,-4.9018,-4.9018,-4.8324,-4.8324,-4.8324,-4.8324,-4.8324,-4.8324,-4.8324,-4.8324,-4.8324,-4.8324,-4.8324,-4.8324,-4.8324,-4.8324,-4.8324,-4.8324,-4.8324,-4.8324,-4.8324,-4.8324,-4.8324,-4.8324,-4.8581,-4.9114,-4.9719,-5.0288,-5.0875,-5.1518,-5.1811,-5.2491,-5.2949,-5.2949,-5.2968,-5.3185,-5.3185,-5.3185,-5.3185,-5.3185,-5.3185,-5.3185,-5.3185,-5.3185,-5.3185,-5.3185,-5.3167,-5.2179,-5.1279,-5.0857,-4.9811,-4.8875,-4.8324,-4.8324,-4.8324,-4.8324,-4.8324,-4.8324,-4.8324,-4.8324,-4.8324,-4.8324,-4.8324,-4.8324,-4.8324,-4.8324,-4.8324,-4.8324,-4.8324,-4.8324,-4.8324,-4.8324,-4.8324,-4.8324,-4.8324,-4.8324,-4.8305,-4.8339,-4.8355,-4.8274,-4.819,-4.8104,-4.8037,-4.798,-4.7922,-4.7829,-4.7699,-4.7735,-4.7823,-4.7932,-4.8438,-4.884,-4.9257,-4.9782,-5.0307,-5.0705,-5.0868,-5.0778,-5.1484,-5.1991,-5.2224,-5.1994,-5.1626,-5.1139,-5.1034,-5.1052,-5.0542,-4.9855,-4.9627,-4.9686,-4.9333,-4.9018,-4.9018,-4.9018,-4.9018,-4.9018,-4.9018]},{"header":{"parameterUnit":"m.s-1","parameterCategory":1,"la1":31.0,"la2":29.5877,"lo1":-88.7671,"lo2":-86.6584,"dy":0.0162,"dx":0.0185,"nx":115,"ny":88,"refTime":"2024-04-13T06:00:00:Z","depth":0,"parameterNumber":3,"parameterNumberName":"V-component_of_WINDS"},"data":[0.0,0.0,0.0,0.0,0.0,0.0,0.0,0.0,0.0,0.0,0.0,0.0,0.0,0.0,0.0,0.0,0.0,0.0,0.0,0.0,0.0,0.0,0.0,0.0,0.0,0.0,0.0,0.0,0.0,0.0,0.0,0.0,0.0,0.0,0.0,0.0,0.0,0.0,0.0,0.0,0.0,0.0,0.0,0.0,0.0,0.0,0.0,0.0,0.0,0.0,0.0,0.0,0.0,0.0,0.0,0.0,0.0,0.0,0.0,0.0,0.0,0.0,0.0,0.0,0.0,0.0,0.0,0.0,0.0,0.0,0.0,0.0,0.0,0.0,0.0,0.0,0.0,0.0,0.0,0.0,0.0,0.0,0.0,0.0,0.0,0.0,0.0,0.0,0.0,0.0,0.0,0.0,0.0,0.0,0.0,0.0,0.0,0.0,0.0,0.0,0.0,0.0,0.0,0.0,0.0,0.0,0.0,0.0,0.0,0.0,0.0,0.0,0.0,0.0,0.0,0.0,0.0,0.0,0.0,0.0,0.0,0.0,0.0,0.0,0.0,0.0,0.0,0.0,0.0,0.0,0.0,0.0,0.0,0.0,0.0,0.0,0.0,0.0,0.0,0.0,0.0,0.0,0.0,0.0,0.0,0.0,0.0,0.0,0.0,0.0,0.0,0.0,0.0,0.0,0.0,0.0,0.0,0.0,0.0,0.0,0.0,0.0,0.0,0.0,0.0,0.0,0.0,0.0,0.0,0.0,0.0,0.0,0.0,0.0,0.0,0.0,0.0,0.0,0.0,0.0,0.0,0.0,0.0,0.0,0.0,0.0,0.0,0.0,0.0,0.0,0.0,0.0,0.0,0.0,0.0,0.0,0.0,0.0,0.0,0.0,0.0,0.0,0.0,0.0,0.0,0.0,0.0,0.0,0.0,0.0,0.0,0.0,0.0,0.0,0.0,0.0,0.0,0.0,0.0,0.0,0.0,0.0,0.0,0.0,0.0,0.0,0.0,0.0,0.0,0.0,0.0,0.0,0.0,0.0,0.0,0.0,0.0,0.0,0.0,0.0,0.0,0.0,0.0,0.0,0.0,0.0,0.0,0.0,0.0,0.0,0.0,0.0,0.0,0.0,0.0,0.0,0.0,0.0,0.0,0.0,0.0,0.0,0.0,0.0,0.0,0.0,0.0,0.0,0.0,0.0,0.0,0.0,0.0,0.0,0.0,0.0,0.0,0.0,0.0,0.0,0.0,0.0,0.0,0.0,0.0,0.0,0.0,0.0,0.0,0.0,0.0,0.0,0.0,0.0,0.0,0.0,0.0,0.0,0.0,0.0,0.0,0.0,0.0,0.0,0.0,0.0,0.0,0.0,0.0,0.0,0.0,0.0,0.0,0.0,0.0,0.0,0.0,0.0,0.0,0.0,0.0,0.0,0.0,0.0,0.0,0.0,0.0,0.0,0.0,0.0,0.0,0.0,0.0,0.0,0.0,0.0,0.0,0.0,0.0,0.0,0.0,0.0,0.0,0.0,0.0,0.0,0.0,0.0,0.0,0.0,0.0,0.0,0.0,0.0,0.0,0.0,0.0,0.0,0.0,0.0,0.0,0.0,0.0,0.0,0.0,0.0,0.0,0.0,0.0,0.0,0.0,0.0,0.0,0.0,0.0,0.0,0.0,0.0,0.0,0.0,0.0,0.0,0.0,0.0,0.0,0.0,0.0,0.0,0.0,0.0,0.0,0.0,0.0,0.0,0.0,0.0,0.0,0.0,0.0,0.0,0.0,0.0,0.0,0.0,0.0,0.0,0.0,0.0,0.0,0.0,0.0,0.0,0.0,0.0,0.0,0.0,0.0,0.0,0.0,0.0,0.0,0.0,0.0,0.0,0.0,0.0,0.0,0.0,0.0,0.0,0.0,0.0,0.0,0.0,0.0,0.0,0.0,0.0,0.0,0.0,0.0,0.0,0.0,0.0,0.0,0.0,0.0,0.0,0.0,0.0,0.0,0.0,0.0,0.0,0.0,0.0,0.0,0.0,0.0,0.0,0.0,0.0,0.0,0.0,0.0,0.0,0.0,0.0,0.0,0.0,0.0,0.0,0.0,0.0,0.0,0.0,0.0,0.0,0.0,0.0,0.0,0.0,0.0,0.0,0.0,0.0,0.0,0.0,0.0,0.0,0.0,0.0,0.0,0.0,0.0,0.0,0.0,0.0,0.0,0.0,0.0,0.0,0.0,0.0,0.0,0.0,0.0,0.0,0.0,0.0,0.0,0.0,0.0,0.0,0.0,0.0,0.0,0.0,0.0,0.0,0.0,0.0,0.0,0.0,0.0,0.0,0.0,0.0,0.0,0.0,0.0,0.0,0.0,0.0,0.0,0.0,0.0,0.0,0.0,0.0,0.0,0.0,0.0,0.0,0.0,0.0,0.0,0.0,0.0,0.0,0.0,0.0,0.0,0.0,0.0,0.0,0.0,0.0,0.0,0.0,0.0,0.0,0.0,0.0,0.0,0.0,0.0,0.0,0.0,0.0,0.0,0.0,0.0,0.0,0.0,0.0,0.0,0.0,0.0,0.0,0.0,0.0,0.0,0.0,0.0,0.0,0.0,0.0,0.0,0.0,0.0,0.0,0.0,0.0,0.0,0.0,0.0,0.0,0.0,0.0,0.0,0.0,0.0,0.0,0.0,0.0,0.0,0.0,0.0,0.0,0.0,0.0,0.0,0.0,0.0,0.0,0.0,0.0,0.0,0.0,0.0,0.0,0.0,0.0,0.0,0.0,0.0,0.0,0.0,0.0,0.0,0.0,0.0,0.0,0.0,0.0,0.0,0.0,0.0,0.0,0.0,0.0,0.0,0.0,0.0,0.0,0.0,0.0,0.0,0.0,0.0,0.0,0.0,0.0,0.0,0.0,0.0,0.0,0.0,0.0,0.0,0.0,0.0,0.0,0.0,0.0,0.0,0.0,0.0,0.0,0.0,0.0,0.0,0.0,0.0,0.0,0.0,0.0,0.0,0.0,0.0,0.0,0.0,0.0,0.0,0.0,0.0,0.0,0.0,0.0,0.0,0.0,0.0,0.0,0.0,0.0,0.0,0.0,0.0,0.0,0.0,0.0,0.0,0.0,0.0,0.0,0.0,0.0,0.0,0.0,0.0,0.0,0.0,0.0,0.0,0.0,0.0,0.0,0.0,0.0,0.0,0.0,0.0,0.0,0.0,0.0,0.0,0.0,0.0,0.0,0.0,0.0,0.0,0.0,0.0,0.0,0.0,0.0,0.0,0.0,0.0,0.0,0.0,0.0,0.0,0.0,0.0,0.0,0.0,0.0,0.0,0.0,0.0,0.0,0.0,0.0,0.0,0.0,0.0,0.0,0.0,0.0,0.0,0.0,0.0,0.0,0.0,0.0,0.0,0.0,0.0,0.0,0.0,0.0,0.0,0.0,0.0,0.0,0.0,0.0,0.0,0.0,0.0,0.0,0.0,0.0,0.0,0.0,0.0,0.0,0.0,0.0,0.0,0.0,0.0,0.0,0.0,0.0,0.0,0.0,0.0,0.0,0.0,0.0,0.0,0.0,0.0,0.0,0.0,0.0,0.0,0.0,0.0,0.0,0.0,0.0,0.0,0.0,0.0,0.0,0.0,0.0,0.0,0.0,0.0,0.0,0.0,0.0,0.0,0.0,0.0,0.0,0.0,0.0,0.0,0.0,0.0,0.0,0.0,0.0,0.0,0.0,0.0,0.0,0.0,0.0,0.0,0.0,0.0,0.0,0.0,0.0,0.0,0.0,0.0,0.0,0.0,0.0,0.0,0.0,0.0,0.0,0.0,0.0,0.0,0.0,0.0,0.0,0.0,0.0,0.0,0.0,0.0,0.0,0.0,0.0,0.0,0.0,0.0,0.0,0.0,0.0,0.0,0.0,0.0,0.0,0.0,0.0,0.0,0.0,0.0,0.0,0.0,0.0,0.0,0.0,0.0,0.0,0.0,0.0,0.0,0.0,0.0,0.0,0.0,0.0,0.0,0.0,0.0,0.0,0.0,0.0,0.0,0.0,0.0,0.0,0.0,0.0,0.0,0.0,0.0,0.0,0.0,0.0,0.0,0.0,0.0,0.0,0.0,0.0,0.0,0.0,0.0,0.0,0.0,0.0,0.0,0.0,0.0,0.0,0.0,0.0,0.0,0.0,0.0,0.0,0.0,0.0,0.0,0.0,0.0,0.0,0.0,0.0,0.0,0.0,0.0,0.0,0.0,0.0,0.0,0.0,0.0,0.0,0.0,0.0,-0.9304,0.0,0.0,0.0,0.0,0.0,0.0,0.0,0.0,0.0,0.0,0.0,0.0,0.0,0.0,0.0,0.0,0.0,0.0,0.0,0.0,0.0,0.0,0.0,0.0,0.0,0.0,0.0,0.0,0.0,0.0,0.0,0.0,0.0,0.0,0.0,0.0,0.0,0.0,0.0,0.0,0.0,0.0,0.0,0.0,0.0,0.0,0.0,0.0,0.0,0.0,0.0,0.0,0.0,0.0,0.0,0.0,0.0,0.0,0.0,0.0,0.0,0.0,0.0,0.0,0.0,0.0,0.0,0.0,0.0,0.0,0.0,0.0,0.0,0.0,0.0,0.0,0.0,0.0,0.0,0.0,0.0,0.0,0.0,0.0,0.0,0.0,0.0,0.0,0.0,0.0,0.0,0.0,0.0,0.0,0.0,0.0,0.0,0.0,0.0,0.0,0.0,0.0,0.0,0.0,0.0,0.0,0.0,0.0,0.0,0.0,-0.9304,-0.9304,-0.9304,-0.9304,-0.9304,0.0,0.0,0.0,0.0,0.0,0.0,0.0,0.0,0.0,0.0,0.0,0.0,0.0,0.0,0.0,0.0,0.0,0.0,0.0,0.0,0.0,0.0,0.0,0.0,0.0,0.0,0.0,0.0,0.0,0.0,0.0,0.0,0.0,0.0,0.0,0.0,0.0,0.0,0.0,0.0,0.0,0.0,0.0,0.0,0.0,0.0,0.0,0.0,0.0,0.0,0.0,0.0,0.0,0.0,0.0,0.0,0.0,0.0,0.0,0.0,0.0,0.0,0.0,0.0,0.0,0.0,0.0,0.0,0.0,0.0,0.0,0.0,0.0,0.0,0.0,0.0,0.0,0.0,0.0,0.0,0.0,0.0,0.0,0.0,0.0,0.0,0.0,0.0,0.0,0.0,0.0,0.0,0.0,0.0,0.0,0.0,0.0,0.0,0.0,0.0,0.0,0.0,0.0,0.0,0.0,0.0,0.0,0.0,0.0,0.0,0.0,0.0,-0.9088,-0.9304,-0.9304,0.0,0.0,0.0,0.0,0.0,0.0,0.0,0.0,0.0,0.0,0.0,0.0,0.0,0.0,0.0,0.0,0.0,0.0,0.0,0.0,0.0,0.0,0.0,0.0,0.0,0.0,0.0,0.0,0.0,0.0,0.0,0.0,0.0,0.0,0.0,0.0,0.0,0.0,0.0,0.0,0.0,0.0,0.0,0.0,0.0,0.0,0.0,0.0,0.0,0.0,0.0,0.0,0.0,0.0,0.0,0.0,0.0,0.0,0.0,0.0,0.0,0.0,0.0,0.0,0.0,0.0,0.0,0.0,0.0,0.0,0.0,0.0,0.0,0.0,0.0,0.0,0.0,0.0,0.0,0.0,0.0,0.0,0.0,0.0,0.0,0.0,0.0,0.0,0.0,0.0,0.0,0.0,0.0,0.0,0.0,0.0,0.0,0.0,0.0,0.0,0.0,0.0,0.0,0.0,0.0,0.0,0.0,0.0,0.0,0.0,-0.8649,-0.7268,-0.8577,0.0,-0.9304,0.0,0.0,0.0,0.0,0.0,0.0,0.0,0.0,0.0,0.0,0.0,0.0,0.0,0.0,0.0,0.0,0.0,0.0,0.0,0.0,0.0,0.0,0.0,0.0,0.0,0.0,0.0,0.0,0.0,0.0,0.0,0.0,0.0,0.0,0.0,0.0,0.0,0.0,0.0,0.0,0.0,0.0,0.0,0.0,0.0,0.0,0.0,0.0,0.0,0.0,0.0,0.0,0.0,0.0,0.0,0.0,0.0,0.0,0.0,0.0,0.0,0.0,0.0,0.0,0.0,0.0,0.0,0.0,0.0,0.0,0.0,0.0,0.0,0.0,0.0,0.0,0.0,0.0,0.0,0.0,0.0,0.0,0.0,0.0,0.0,0.0,0.0,0.0,0.0,0.0,0.0,0.0,0.0,0.0,0.0,0.0,0.0,0.0,0.0,0.0,0.0,0.0,0.0,0.0,0.0,0.0,0.0,0.0,0.0,0.0,-0.7195,-0.5673,-0.7123,-0.7921,0.0,0.0,0.0,0.0,0.0,0.0,0.0,0.0,0.0,0.0,0.0,0.0,0.0,0.0,0.0,0.0,0.0,0.0,0.0,0.0,0.0,0.0,0.0,0.0,0.0,0.0,0.0,0.0,0.0,0.0,0.0,0.0,0.0,0.0,0.0,0.0,0.0,0.0,0.0,0.0,0.0,0.0,0.0,0.0,0.0,0.0,0.0,0.0,0.0,0.0,0.0,0.0,0.0,0.0,0.0,0.0,0.0,0.0,0.0,0.0,0.0,0.0,0.0,0.0,0.0,0.0,0.0,0.0,0.0,0.0,0.0,0.0,0.0,0.0,0.0,0.0,0.0,0.0,0.0,0.0,0.0,0.0,0.0,0.0,0.0,0.0,0.0,0.0,0.0,0.0,0.0,0.0,0.0,0.0,0.0,0.0,0.0,0.0,0.0,0.0,0.0,0.0,0.0,0.0,0.0,0.0,0.0,0.0,0.0,0.0,-0.6398,-0.5818,-0.4802,-0.5744,-0.6543,-0.698,0.0,0.0,0.0,0.0,0.0,0.0,0.0,0.0,0.0,0.0,0.0,0.0,0.0,0.0,0.0,0.0,0.0,0.0,0.0,0.0,0.0,0.0,0.0,0.0,0.0,0.0,0.0,0.0,0.0,0.0,0.0,0.0,0.0,0.0,0.0,0.0,0.0,0.0,0.0,0.0,0.0,0.0,0.0,0.0,0.0,0.0,0.0,0.0,0.0,0.0,0.0,0.0,0.0,0.0,0.0,0.0,0.0,0.0,0.0,0.0,0.0,0.0,0.0,0.0,0.0,0.0,0.0,0.0,0.0,0.0,0.0,0.0,0.0,0.0,0.0,0.0,0.0,0.0,0.0,0.0,0.0,0.0,0.0,0.0,0.0,0.0,0.0,0.0,0.0,0.0,0.0,0.0,0.0,0.0,0.0,0.0,0.0,0.0,0.0,0.0,0.0,0.0,0.0,0.0,0.0,0.0,0.0,0.0,-0.4875,-0.4802,-0.4729,-0.4584,-0.4802,-0.5454,0.0,0.0,0.0,0.0,0.0,0.0,0.0,0.0,0.0,0.0,0.0,0.0,0.0,0.0,0.0,0.0,0.0,0.0,0.0,0.0,0.0,0.0,0.0,0.0,0.0,0.0,0.0,0.0,0.0,0.0,0.0,0.0,0.0,0.0,0.0,0.0,0.0,0.0,0.0,0.0,0.0,0.0,0.0,0.0,0.0,0.0,0.0,0.0,0.0,0.0,0.0,0.0,0.0,0.0,0.0,0.0,0.0,0.0,0.0,0.0,0.0,0.0,0.0,0.0,0.0,0.0,0.0,0.0,0.0,0.0,0.0,0.0,0.0,0.0,0.0,0.0,0.0,0.0,0.0,0.0,0.0,0.0,0.0,0.0,0.0,0.0,0.0,0.0,0.0,0.0,0.0,0.0,0.0,0.0,0.0,0.0,0.0,0.0,0.0,0.0,0.0,0.0,0.0,0.0,0.0,0.0,0.0,0.0,0.0,-0.3202,-0.2185,-0.1676,-0.1749,-0.2621,-0.3929,0.0,0.0,0.0,0.0,0.0,0.0,0.0,0.0,0.0,0.0,0.0,0.0,0.0,0.0,0.0,0.0,0.0,0.0,0.0,0.0,0.0,0.0,0.0,0.0,0.0,0.0,0.0,0.0,0.0,0.0,0.0,0.0,0.0,0.0,0.0,0.0,0.0,0.0,0.0,0.0,0.0,0.0,0.0,0.0,0.0,0.0,0.0,0.0,0.0,0.0,0.0,0.0,0.0,0.0,0.0,0.0,0.0,0.0,0.0,0.0,0.0,0.0,0.0,0.0,0.0,0.0,0.0,0.0,0.0,0.0,0.0,0.0,0.0,0.0,0.0,0.0,0.0,0.0,0.0,0.0,0.0,0.0,0.0,0.0,0.0,0.0,0.0,0.0,0.0,0.0,0.0,0.0,0.0,0.0,0.0,0.0,0.0,0.0,0.0,0.0,0.0,0.0,0.0,0.0,0.0,0.0,0.0,0.0,0.0,-0.1602,0.0,0.0,0.0,-0.1457,-0.3057,0.0,0.0,0.0,0.0,0.0,0.0,0.0,0.0,0.0,0.0,0.0,0.0,0.0,0.0,0.0,0.0,0.0,0.0,0.0,0.0,0.0,0.0,0.0,0.0,0.0,0.0,0.0,0.0,0.0,0.0,0.0,0.0,0.0,0.0,0.0,0.0,0.0,0.0,0.0,0.0,0.0,0.0,0.0,0.0,0.0,0.0,0.0,0.0,0.0,0.0,0.0,0.0,0.0,0.0,0.0,0.0,0.0,0.0,0.0,0.0,0.0,0.0,0.0,0.0,0.0,0.0,0.0,0.0,0.0,0.0,0.0,0.0,0.0,0.0,0.0,0.0,0.0,0.0,0.0,0.0,0.0,0.0,0.0,0.0,0.0,0.0,0.0,0.0,0.0,0.0,0.0,0.0,0.0,0.0,0.0,0.0,0.0,0.0,0.0,0.0,0.0,0.0,0.0,0.0,0.0,0.0,0.0,0.0,-0.153,0.0,0.0,0.0,0.0,-0.1457,-0.2984,0.0,0.0,0.0,0.0,0.0,0.0,0.0,0.0,0.0,0.0,0.0,0.0,0.0,0.0,0.0,0.0,0.0,0.0,0.0,0.0,0.0,0.0,0.0,0.0,0.0,0.0,0.0,0.0,0.0,0.0,0.0,0.0,0.0,0.0,0.0,0.0,0.0,0.0,0.0,0.0,0.0,0.0,0.0,0.0,0.0,0.0,0.0,0.0,0.0,0.0,0.0,0.0,0.0,0.0,0.0,0.0,0.0,0.0,0.0,0.0,0.0,0.0,0.0,0.0,0.0,0.0,0.0,0.0,0.0,0.0,0.0,0.0,0.0,0.0,0.0,0.0,0.0,0.0,0.0,0.0,0.0,0.0,0.0,0.0,0.0,0.0,0.0,0.0,0.0,0.0,0.0,0.0,0.0,0.0,0.0,0.0,0.0,0.0,0.0,0.0,0.0,0.0,0.0,0.0,0.0,0.0,0.0,0.0,0.0,0.0,0.0,0.0,0.0,-0.0438,-0.1457,0.0,0.0,0.0,0.0,0.0,0.0,0.0,0.0,0.0,0.0,0.0,0.0,0.0,0.0,0.0,0.0,0.0,0.0,0.0,0.0,0.0,0.0,0.0,0.0,0.0,0.0,0.0,0.0,0.0,0.0,0.0,0.0,0.0,0.0,0.0,0.0,0.0,0.0,0.0,0.0,0.0,0.0,0.0,0.0,0.0,0.0,0.0,0.0,0.0,0.0,0.0,0.0,0.0,0.0,0.0,0.0,0.0,0.0,0.0,0.0,0.0,0.0,0.0,0.0,0.0,0.0,0.0,0.0,0.0,0.0,0.0,0.0,0.0,0.0,0.0,0.0,0.0,0.0,0.0,0.0,0.0,0.0,0.0,0.0,0.0,0.0,0.0,0.0,0.0,0.0,0.0,0.0,0.0,0.0,0.0,0.0,0.0,0.0,0.0,0.0,0.0,0.0,0.0,0.0,0.0,0.0,0.0,0.0,0.0,0.0,0.0,0.0,0.0,0.0,-0.0729,-0.2256,0.0,0.0,0.0,0.0,0.0,0.0,0.0,0.0,0.0,0.0,0.0,0.0,0.0,0.0,0.0,0.0,0.0,0.0,0.0,0.0,0.0,0.0,0.0,0.0,0.0,0.0,0.0,0.0,0.0,0.0,0.0,0.0,0.0,0.0,0.0,0.0,0.0,0.0,0.0,0.0,0.0,0.0,0.0,0.0,0.0,0.0,0.0,0.0,0.0,0.0,0.0,0.0,0.0,0.0,0.0,0.0,0.0,0.0,0.0,0.0,0.0,0.0,0.0,0.0,0.0,0.0,0.0,0.0,0.0,0.0,0.0,0.0,0.0,0.0,0.0,0.0,0.0,0.0,0.0,0.0,0.0,0.0,0.0,0.0,0.0,0.0,0.0,0.0,0.0,0.0,0.0,0.0,0.0,0.0,0.0,0.0,0.0,0.0,0.0,0.0,0.0,0.0,0.0,0.0,0.0,0.0,0.0,0.0,0.0,0.0,0.0,0.0,0.0,-0.0656,0.0,0.0,0.0,0.0,0.0,0.0,0.0,0.0,0.0,0.0,0.0,0.0,0.0,0.0,0.0,0.0,0.0,0.0,0.0,0.0,0.0,0.0,0.0,0.0,0.0,0.0,0.0,0.0,0.0,0.0,0.0,0.0,0.0,0.0,0.0,0.0,0.0,0.0,0.0,0.0,0.0,0.0,0.0,0.0,0.0,0.0,0.0,0.0,0.0,0.0,0.0,0.0,0.0,0.0,0.0,0.0,0.0,0.0,0.0,0.0,0.0,0.0,0.0,0.0,0.0,0.0,0.0,0.0,0.0,0.0,0.0,0.0,0.0,0.0,0.0,0.0,0.0,0.0,0.0,0.0,0.0,0.0,0.0,0.0,0.0,0.0,0.0,0.0,0.0,0.0,0.0,0.0,0.0,0.0,0.0,0.0,0.0,0.0,0.0,0.0,0.0,0.0,0.0,0.0,0.0,0.0,0.0,0.0,0.0,0.0,0.0,0.0,0.0,0.0,-0.0219,0.0,0.0,0.0,0.0,0.0,0.0,0.0,0.0,0.0,0.0,0.0,0.0,0.0,0.0,0.0,0.0,0.0,0.0,0.0,0.0,0.0,0.0,0.0,0.0,0.0,0.0,0.0,0.0,0.0,0.0,0.0,0.0,0.0,0.0,0.0,0.0,0.0,0.0,0.0,0.0,0.0,0.0,0.0,0.0,0.0,0.0,0.0,0.0,0.0,0.0,0.0,0.0,0.0,0.0,0.0,0.0,0.0,0.0,0.0,0.0,0.0,0.0,0.0,0.0,0.0,0.0,0.0,0.0,0.0,0.0,0.0,0.0,0.0,0.0,0.0,0.0,0.0,0.0,0.0,0.0,0.0,0.0,0.0,0.0,0.0,0.0,0.0,0.0,0.0,0.0,0.0,0.0,0.0,0.0,0.0,0.0,0.0,0.0,0.0,0.0,0.0,0.0,0.0,0.0,0.0,0.0,0.0,0.0,0.0,0.0,0.0,0.0,0.0,0.0,0.0,0.0,0.0,0.0,0.0,0.0,0.0,0.0,0.0,0.0,0.0,0.0,0.0,0.0,0.0,0.0,0.0,0.0,0.0,0.0,0.0,0.0,0.0,0.0,0.0,0.0,0.0,0.0,0.0,0.0,0.0,0.0,0.0,0.0,0.0,0.0,0.0,0.0,0.0,0.0,0.0,0.0,0.0,0.0,0.0,0.0,0.0,0.0,0.0,0.0,0.0,0.0,0.0,0.0,0.0,0.0,0.0,0.0,0.0,0.0,0.0,0.0,0.0,0.0,0.0,0.0,0.0,0.0,0.0,0.0,0.0,0.0,0.0,0.0,0.0,0.0,0.0,0.0,0.0,0.0,0.0,0.0,0.0,0.0,0.0,0.0,0.0,0.0,0.0,0.0,0.0,0.0,0.0,0.0,0.0,0.0,0.0,0.0,0.0,0.0,0.0,0.0,0.0,0.0,0.0,0.0,0.0,0.0,0.0,0.0,0.0,0.0,0.0,0.0,0.0,0.0,0.0,0.0,0.0,0.0,0.0,0.0,0.0,0.0,0.0,0.0,0.0,0.0,0.0,0.0,0.0,0.0,0.0,0.0,0.0,0.0,0.0,0.0,0.0,0.0,0.0,0.0,0.0,0.0,0.0,0.0,0.0,0.0,0.0,0.0,0.0,0.0,0.0,0.0,0.0,0.0,0.0,0.0,0.0,0.0,0.0,0.0,0.0,0.0,0.0,0.0,0.0,0.0,0.0,0.0,0.0,0.0,0.0,0.0,0.0,0.0,0.0,0.0,0.0,0.0,0.0,0.0,0.0,0.0,0.0,0.0,0.0,0.0,0.0,0.0,0.0,0.0,0.0,0.0,0.0,0.0,0.0,0.0,0.0,0.0,0.0,0.0,0.0,0.0,0.0,0.0,0.0,0.0,0.0,0.0,0.0,0.0,0.0,0.0,0.0,0.0,0.0,0.0,0.0,0.0,0.0,0.0,0.0,0.0,0.0,0.0,0.0,0.0,0.0,0.0,0.0,0.0,0.0,0.0,0.0,0.0,0.0,0.0,0.0,0.0,0.0,0.0,0.0,0.0,0.0,0.0,0.0,0.0,0.0,0.0,0.0,0.0,0.0,0.0,0.0,0.0,0.0,0.0,0.0,0.0,0.0,0.0,0.0,0.0,0.0,0.0,0.0,0.0,0.0,0.0,0.0,0.0,0.0,0.0,0.0,0.0,0.0,0.0,0.0,0.226,0.0,0.0,0.0,0.0,0.0,0.0,0.0,0.0,0.0,0.0,0.0,0.0,0.0,0.0,0.0,0.0,0.0,0.0,0.0,0.0,0.0,0.0,0.0,0.0,0.0,0.0,0.0,0.0,0.0,0.0,0.0,0.0,0.0,0.0,0.0,0.0,0.0,0.0,0.0,0.0,0.0,0.0,0.0,0.0,0.0,0.0,0.0,0.0,0.0,0.0,0.0,0.0,0.0,0.0,0.0,0.0,0.0,0.0,0.0,0.0,0.0,0.0,0.0,0.0,0.0,0.0,0.0,0.0,0.0,0.0,0.0,0.0,0.0,0.0,0.0,0.0,0.0,0.0,0.0,0.0,0.0,0.0,0.0,0.0,0.0,0.0,0.0,0.0,0.0,0.0,0.0,0.0,0.0,0.0,0.0,0.0,0.0,0.0,0.0,0.0,0.0,0.0,0.0,0.0,0.0,0.0,0.0,0.0,0.0,0.0,0.0,0.0,0.0,0.0,0.0,0.0,0.0,0.0,0.0,0.0,0.0,0.0,0.0,0.0,0.0,0.0,0.0,0.0,0.0,0.0,0.0,0.0,0.0,0.0,0.0,0.0,0.0,0.0,0.0,0.0,0.0,0.0,0.0,0.0,0.0,0.0,0.0,0.0,0.0,0.0,0.0,0.0,0.0,0.0,0.0,0.0,0.0,0.0,0.0,0.0,0.0,0.0,0.0,0.0,0.0,0.0,0.0,0.0,0.0,0.0,0.0,0.0,0.0,0.0073,0.0073,0.0073,0.0073,0.0073,0.0,0.0,0.0,0.0,0.0,0.0,0.0,0.0,0.0,0.0,0.0,0.0,0.0,0.0,0.0,0.0,0.0,0.0,0.0,0.0,0.0,0.0,0.0,0.0,0.0,0.0,0.0,0.0,0.0,0.0,0.0,0.0,0.0,0.0,0.0,0.0,0.0,0.0,0.0,0.0,0.0,0.0,0.226,0.226,0.0,0.0,0.0,0.0,0.0,0.0,0.0,0.0,0.2406,0.0,0.0,0.0,0.0,0.0,0.0,0.0,0.0,0.0,0.0,0.0,0.0,0.0,0.0,0.0,0.0,0.0,0.0,0.0,0.0,0.0,0.0,0.0,0.0,0.0,0.0,0.0,0.0,0.0,0.0,0.0,0.0,0.0,0.0,0.0,0.0,0.0,0.0,0.0,0.0,0.0,0.0,0.0,0.0,0.0,0.0,0.0,0.0,0.0,0.0,0.0,0.0,0.0,0.0,0.0,0.0,0.0511,0.0511,0.0511,0.0511,0.0511,0.0365,0.0,0.0,0.0,0.0,0.0,0.0,0.0,0.0,0.0,0.0,0.0,0.0,0.0,0.0,0.0,0.0,0.0,0.0,0.0,0.0,0.0,0.0,0.0,0.0,0.0,0.0,0.0,0.0,0.0,0.0,0.0,0.0,0.0,0.0,0.0,0.0,0.0,0.0,0.0,0.0,0.0,0.0,0.0,0.226,0.226,0.0,0.0,0.0,0.0,0.0,0.0,0.0,0.0,0.2917,0.0,0.0,0.0,0.0,0.0,0.0,0.0,0.0,0.0,0.0,0.0,0.0,0.0,0.0,0.0,0.0,0.0,0.0,0.0,0.0,0.0,0.0,0.0,0.0,0.0,0.0,0.0,0.0,0.0,0.0,0.0,0.0,0.0,0.0,0.0,0.0,0.0,0.0,0.0,0.0,0.0,0.0,0.0,0.0,0.0,0.0,0.0,0.0,0.0,0.0,0.0,0.0,0.0,0.0,0.0,0.0584,0.0803,0.0949,0.0876,0.0949,0.0803,0.0584,0.0438,0.0292,0.0,0.0,0.0,0.0,0.0,0.0,0.0,0.0,0.0,0.0,0.0,0.0,0.0,0.0,0.0,0.0,0.0,0.0,0.0,0.0,0.0,0.0,0.0,0.0,0.0,0.0,0.0,0.0,0.0,0.0,0.0,0.0,0.0,0.0,0.0,0.0,0.0,0.0,0.0,0.0,0.226,0.2623,0.3423,0.0,0.0,0.0,0.0,0.0,0.0,0.3862,0.4225,0.0,0.0,0.0,0.0,0.0,0.0,0.0,0.0,0.0,0.0,0.0,0.0,0.0,0.0,0.0,0.0,0.0,0.0,0.0,0.0,0.0,0.0,0.0,0.0,0.0,0.0,0.0,0.0,0.0,0.0,0.0,0.0,0.0,0.0,0.0,0.0,0.0,0.0,0.0,0.0,0.0,0.0,0.0,0.0,0.0,0.0,0.0,0.0,0.0,0.0,0.0,0.0,0.0,0.0,0.0,0.1312,0.1968,0.2114,0.1824,0.1823,0.1605,0.1241,0.0876,0.073,0.0,0.0,0.0,0.0,0.0,0.0,0.0,0.0,0.0,0.0,0.0,0.0,0.0,0.0,0.0,0.0,0.0,0.0,0.0,0.0,0.0,0.0,0.0,0.0,0.0,0.0,0.0,0.0,0.0,0.0,0.0,0.0,0.0,0.0,0.0,0.0,0.0,0.0,0.0,0.0,0.0,0.3349,0.4584,0.4002,0.0,0.0,0.0,0.0,0.466,0.5601,0.0,0.0,0.0,0.0,0.0,0.0,0.0,0.0,0.0,0.0,0.0,0.0,0.0,0.0,0.0,0.0,0.0,0.0,0.0,0.0,0.0,0.0,0.0,0.0,0.0,0.0,0.0,0.0,0.0,0.0,0.0,0.0,0.0,0.0,0.0,0.0,0.0,0.0,0.0,0.0,0.0,0.0,0.0,0.0,0.0,0.0,0.0,0.0,0.0,0.0,0.0,0.0,0.0,0.0,0.0,0.0,0.3711,0.509,0.5162,0.3856,0.3784,0.2913,0.1241,0.1168,0.1168,0.0,0.0,0.0,0.0,0.0,0.0,0.0,0.0,0.0,0.0,0.0,0.0,0.0,0.0,0.0,0.0,0.0,0.0,0.0,0.0,0.0,0.0,0.0,0.0,0.0,0.0,0.0,0.0,0.0,0.0,0.0,0.0,0.0,0.0,0.0,0.0,0.0,0.0,0.0,0.0,0.0,0.4944,0.5088,0.646,0.7539,0.0,0.0,0.783,0.8052,0.8271,0.0,0.0,0.0,0.0,0.0,0.0,0.0,0.0,0.0,0.0,0.0,0.0,0.0,0.0,0.0,0.0,0.0,0.0,0.0,0.0,0.0,0.0,0.0,0.0,0.0,0.0,0.0,0.0,0.0,0.0,0.0,0.0,0.0,0.0,0.0,0.0,0.0,0.0,0.0,0.0,0.0,0.0,0.0,0.0,0.0,0.0,0.0,0.0,0.0,0.0,0.0,0.0,0.0,0.0,0.0,0.384,0.3957,0.568,0.6232,0.5476,0.5473,0.4694,0.3062,0.2779,0.2282,0.0,0.0,0.0,0.0,0.0,0.0,0.0,0.0,0.0,0.0,0.0,0.0,0.0,0.0,0.0,0.0,0.0,0.0,0.0,0.0,0.0,0.0,0.0,0.0,0.0,0.0,0.0,0.0,0.0,0.0,0.0,0.0,0.0,0.0,0.0,0.0,0.0,0.0,0.0,0.0,0.0,0.0,0.6382,0.7352,0.0,0.0,0.0,0.9568,0.9139,0.0,0.0,0.0,0.0,0.0,0.0,0.0,0.0,0.0,0.0,0.0,0.0,0.0,0.0,0.0,0.0,0.0,0.0,0.0,0.0,0.0,0.0,0.0,0.0,0.0,0.0,0.0,0.0,0.0,0.0,0.0,0.0,0.0,0.0,0.0,0.0,0.0,0.0,0.0,0.0,0.0,0.0,0.0,0.0,0.0,0.0,0.0,0.0,0.0,0.0,0.0,0.0,0.0,0.0,0.0,0.0,0.0,0.5107,0.6875,0.7547,0.7126,0.7052,0.6424,0.4963,0.4615,0.0,0.0,0.0,0.0,0.0,0.0,0.0,0.0,0.0,0.0,0.0,0.0,0.0,0.0,0.0,0.0,0.0,0.0,0.0,0.0,0.0,0.0,0.0,0.0,0.0,0.0,0.0,0.2271,0.0,0.0,0.0,0.0,0.0,0.0,0.0,0.0,0.0,0.0,0.0,0.0,0.0,0.0,0.6752,0.8031,0.8826,0.9798,0.0,0.0,1.1277,1.0531,1.1321,1.1763,0.0,0.0,0.0,0.0,0.0,0.0,0.0,0.0,0.0,0.0,0.0,0.0,0.0,0.0,0.0,0.0,0.0,0.0,0.0,0.0,0.0,0.0,0.0,0.0,0.0,0.0,0.0,0.0,0.0,0.0,0.0,0.0,0.0,0.0,0.0,0.0,0.0,0.0,0.0,0.0,0.0,0.0,0.0,0.0,0.0,0.0,0.0,0.0,0.0,0.0,0.0,0.0,0.0,0.0,0.0,0.8465,1.0061,1.0124,0.8727,0.8657,0.7891,0.6424,0.6355,0.5658,0.0,0.0,0.0,0.0,0.0,0.0,0.0,0.0,0.0,0.0,0.0,0.0,0.0,0.0,0.0,0.0,0.0,0.0,0.0,0.0,0.0,0.0,0.0,0.0,0.0,0.0,0.0,0.0,0.0,0.0,0.0,0.0,0.0,0.0,0.0,0.0,0.0,0.0,0.0,0.0,0.0,0.9706,1.0266,1.1862,1.3049,0.0,0.0,1.3254,1.3282,1.338,1.3502,1.3587,0.0,0.0,0.0,0.0,0.0,0.0,0.0,0.0,0.0,0.0,0.0,0.0,0.0,0.0,0.0,0.0,0.0,0.0,0.0,0.0,0.0,0.0,0.0,0.0,0.0,0.0,0.0,0.0,0.0,0.0,0.0,0.0,0.0,0.0,0.0,0.0,0.0,0.0,0.0,0.0,0.0,0.0,0.0,0.0,0.0,0.0,0.0,0.0,0.0,0.0,0.0,0.0,0.0,0.8248,0.8689,1.0203,1.0642,1.001,1.0007,0.9258,0.783,0.7759,0.7147,0.0,0.0,0.0,0.0,0.0,0.0,0.0,0.0,0.0,0.0,0.0,0.0,0.0,0.0,0.0,0.0,0.0,0.0,0.0,0.0,0.0,0.0,0.0,0.0,0.0,0.0,0.0,0.0,0.2189,0.2189,0.2189,0.0,0.0,0.0,0.0,0.0,0.0,0.0,0.0,0.0,0.0,1.0213,1.0439,1.2031,0.0,0.0,1.3372,1.3396,1.3465,1.3478,1.3535,1.3713,1.3675,0.0,0.0,0.0,0.0,0.0,0.0,0.0,0.0,0.0,0.0,0.0,0.0,0.0,0.0,0.0,0.0,0.0,0.0,0.0,0.0,0.0,0.0,0.0,0.0,0.0,0.0,0.0,0.0,0.0,0.0,0.0,0.0,0.0,0.0,0.0,0.0,0.0,0.0,0.0,0.0,0.0,0.0,0.0,0.0,0.0,0.0,0.0,0.0,0.0,0.0,0.0,0.0,0.8889,0.9247,1.0264,1.0829,1.0724,1.0721,1.023,0.9185,0.9185,0.8453,0.0,0.0,0.0,0.0,0.0,0.0,0.0,0.0,0.0,0.0,0.0,0.0,0.0,0.0,0.0,0.0,0.0,0.0,0.0,0.0,0.0,0.0,0.0,0.0,0.0,0.0,0.0,0.0,0.2222,0.2356,0.2759,0.0,0.0,0.0,0.0,0.0,0.0,0.0,0.0,0.0,0.0,1.089,1.1135,1.2239,1.3003,1.3185,1.3165,1.3233,1.3271,1.3287,1.3348,1.353,0.0,0.0,0.0,0.0,0.0,0.0,0.0,0.0,0.0,0.0,0.0,0.0,0.0,0.0,0.0,0.0,0.0,0.0,0.0,0.0,0.0,0.0,0.0,0.0,0.0,0.0,0.0,0.2333,0.0,0.0,0.2405,0.0,0.0,0.0,0.0,0.0,0.0,0.0,0.0,0.0,0.0,0.0,0.0,0.0,0.0,0.0,0.0,0.0,0.0,0.0,0.0,0.0,0.0,0.9311,1.0664,1.0661,1.0724,1.0721,1.0721,1.0653,1.0445,1.0435,0.9782,0.835,0.0,0.0,0.0,0.0,0.0,0.0,0.0,0.0,0.0,0.0,0.0,0.0,0.0,0.0,0.0,0.0,0.0,0.0,0.0,0.0,0.0,0.0,0.0,0.0,0.0,0.0,0.2222,0.2222,0.2759,0.0,0.0,0.0,0.0,0.0,0.0,0.0,0.0,0.0,0.0,1.1376,1.2382,1.2654,1.2694,1.2661,1.2836,1.271,1.2775,1.3051,1.31,1.3161,0.0,0.0,0.0,0.0,0.0,0.0,0.0,0.0,0.0,0.0,0.0,0.0,0.0,0.0,0.0,0.0,0.0,0.0,0.0,0.0,0.0,0.0,0.0,0.0,0.0,0.0,0.0,0.5451,0.5451,0.0,0.0,0.0,0.0,0.0,0.0,0.0,0.0,0.0,0.0,0.0,0.704,0.8056,0.0,0.0,0.0,0.0,0.0,0.0,0.0,0.0,0.0,0.0,0.0,0.0,1.0232,1.0654,1.0721,1.0721,1.0721,1.0721,1.0697,1.0643,1.0643,0.9977,0.8582,0.0,0.0,0.0,0.0,0.0,0.0,0.0,0.0,0.0,0.0,0.0,0.0,0.0,0.0,0.0,0.0,0.0,0.0,0.0,0.0,0.0,0.0,0.0,0.0,0.0,0.2558,0.0,0.0,0.0,0.0,0.0,0.0,0.0,0.0,0.0,0.0,0.0,1.0296,1.1435,1.2173,1.2704,1.277,1.2787,1.2771,0.0,0.0,0.0,0.0,0.0,0.0,0.0,0.0,0.0,0.0,0.0,0.0,0.0,0.0,1.5616,1.5123,1.5048,1.5048,1.5048,0.0,0.0,0.0,0.0,0.0,0.0,0.0,0.0,0.0,0.0,0.0,0.0,0.0,0.0,0.6968,0.0,0.6968,0.0,0.0,0.0,0.0,0.0,0.0,0.0,0.0,0.9363,0.9557,0.8578,0.9586,0.9453,0.0,0.8273,0.8308,0.0,0.0,0.0,0.0,0.0,0.0,0.0,0.0,1.0721,1.0721,1.0721,1.0721,1.0721,1.0721,1.0694,1.0643,1.0639,1.0238,0.9309,0.9284,0.864,0.0,0.0,0.0,0.0,0.0,0.0,0.0,0.0,0.0,0.0,0.0,0.0,0.0,0.0,0.0,0.0,0.0,0.0,0.0,0.0,0.0,0.0,0.0,0.403,0.0,0.0,0.0,0.0,0.0,0.0,0.0,0.0,0.0,1.0237,1.0634,1.1296,1.2305,1.2704,1.277,1.277,0.0,0.0,0.0,0.0,0.0,0.0,0.0,1.4173,1.5016,1.529,1.5615,1.618,1.6543,1.6914,1.7127,0.0,0.0,1.6367,1.6174,1.6306,1.6856,1.6926,1.7273,1.8234,1.8444,1.8787,0.0,0.0,0.0,0.0,0.0,0.0,0.0,0.0,0.7185,0.7257,0.0,0.7257,0.0,0.0,0.0,0.0,0.0,0.8703,0.0,0.0,1.0871,1.1528,1.1318,1.1312,1.1304,1.1162,1.1086,1.1082,1.1079,0.9616,0.0,0.0,0.0,0.0,0.0,0.0,1.0721,1.0721,1.0711,1.0711,1.0711,1.0704,1.0633,1.049,1.0487,1.0487,1.049,1.0557,1.0031,0.8759,0.8626,0.0,0.0,0.0,0.0,0.0,0.0,0.0,0.0,0.0,0.0,0.0,0.0,0.0,0.0,0.0,0.0,0.0,0.0,0.0,0.0,0.6431,0.0,0.0,0.0,0.0,0.0,0.0,0.0,0.0,0.0,0.0,1.2243,1.2239,1.2441,1.277,0.0,0.0,0.0,0.0,1.2702,1.2877,1.3076,1.3729,1.5255,1.5744,1.6387,1.7725,0.0,0.0,1.9573,1.9621,1.9643,2.0035,1.9947,1.9751,1.876,1.846,1.8821,2.0114,2.0322,2.053,2.0668,2.0599,2.0662,1.0671,0.0,0.0,0.0,0.0,1.0308,1.0308,1.0308,1.0308,1.0308,1.0308,1.0308,0.0,0.0,0.0,0.0,0.0,0.0,1.0812,1.0802,1.1201,1.1267,1.1229,1.1229,1.1151,1.1012,1.1009,1.0951,1.0853,1.0376,1.0405,1.088,0.0,0.0,0.0,0.0,1.0721,1.0714,1.0616,1.0558,1.0558,1.0456,1.0388,1.0341,1.0341,1.0341,1.0341,1.0385,1.0209,0.9819,0.9819,0.0,0.0,0.0,0.0,0.0,0.0,0.0,0.0,0.0,0.0,0.0,0.0,0.0,0.0,0.0,0.0,0.0,0.0,0.0,0.6366,0.7564,0.8299,0.0,0.0,0.0,0.0,0.0,0.0,0.0,0.0,0.0,1.2638,1.2638,1.2704,0.0,0.0,1.277,1.277,1.2791,1.316,1.4437,1.4721,0.0,1.7001,1.7345,1.7602,1.8244,1.8699,1.9029,1.9364,1.9406,1.9496,1.9765,1.9813,2.0093,2.1027,2.0553,2.0178,2.053,2.0593,2.0945,2.1915,2.219,2.2477,1.1861,1.18,1.164,1.1616,1.1616,1.1616,1.1616,1.1616,1.1616,1.1657,1.1742,1.1742,1.1778,1.1861,1.1719,0.0,0.0,0.0,1.1301,1.1297,1.1206,1.12,1.108,1.108,1.1002,1.0793,1.0793,1.0812,1.0721,1.0721,1.0765,1.0853,0.0,0.0,1.0721,1.066,1.0629,1.0622,1.0483,1.0405,1.0405,1.0327,1.0343,1.0343,1.0343,1.0343,1.0343,1.0343,1.0343,1.0343,1.0343,1.0317,0.0,0.0,0.0,0.0,0.0,0.0,0.0,0.0,0.0,0.0,0.0,0.6431,0.6431,0.0,0.0,0.0,0.7769,0.8169,0.8302,0.9302,0.0,0.0,0.0,0.0,0.0,0.0,0.0,1.2507,1.2704,1.277,1.277,1.3293,1.342,1.2902,1.277,1.303,1.3739,0.0,1.4446,1.6183,1.6506,1.7152,1.875,1.9139,1.9458,2.0233,2.0493,2.0672,2.0772,2.0811,2.0915,2.1169,2.1254,2.1615,2.2827,2.2492,2.2085,2.2362,2.2402,2.2682,2.3584,2.3727,2.4006,1.2196,1.2153,1.1818,1.1654,1.1654,1.1654,1.1654,1.1654,1.165,1.1718,1.1934,1.1934,1.2062,1.2196,1.1851,0.0,1.13,1.1289,1.1283,1.1283,1.1269,1.1125,1.0999,1.0999,1.0924,1.0721,1.0721,1.0721,1.0721,1.0707,1.0704,1.07,1.069,1.069,1.0694,1.0551,1.0477,1.0473,1.0337,1.0253,1.0243,1.0246,1.0243,1.0239,1.0246,1.0243,1.0243,1.0243,1.0243,1.0243,1.0243,1.0253,1.0259,0.0,0.0,0.0,0.0,0.0,0.0,0.0,0.0,0.0,0.0,0.0,0.0,0.0,0.0,0.0,0.9949,0.0,1.1146,1.1212,0.0,0.0,0.0,1.227,1.2266,1.2598,1.2795,1.2795,0.0,0.0,1.2919,1.4022,1.4409,1.3246,1.3144,1.3739,1.5349,1.5609,1.6247,1.7918,1.8431,1.9145,2.0543,2.0999,2.1517,2.2598,2.3106,2.2981,2.2933,2.2933,2.3182,2.3303,2.3559,2.3598,2.3991,2.3919,2.424,2.4698,2.4911,2.4933,2.4926,2.4955,2.4991,1.2196,1.22,1.2073,1.2036,1.2036,1.2036,1.2033,1.2036,1.2033,1.208,1.2113,1.2117,1.216,1.2196,1.2123,1.2054,1.1982,1.1865,1.1814,1.1807,1.1687,1.161,1.1574,1.1574,1.1419,1.1118,1.1052,1.092,1.0714,1.0602,1.0548,1.0541,1.0436,1.0439,1.0538,1.0402,1.0327,1.0327,1.0181,0.9984,0.9934,0.993,0.9927,0.993,0.993,0.993,0.993,0.993,0.993,0.993,0.993,0.9981,1.0038,1.0041,0.0,0.0,0.0,0.0,0.0,0.0,0.0,0.0,0.0,0.9343,0.9408,0.0,0.9536,0.0,1.0446,1.0834,1.0895,1.1343,0.0,0.0,1.2111,1.2302,1.2306,1.237,1.2434,1.2434,1.2434,1.2808,1.3744,1.4182,1.462,1.5197,1.5913,1.6511,1.6964,1.7211,1.7982,1.9567,2.0017,2.0676,2.2146,2.2591,2.2724,2.305,2.3106,2.3106,2.3106,2.3106,2.3142,2.3215,2.323,2.3354,2.3654,2.3713,2.3852,2.4232,2.4576,2.4686,2.4753,2.4943,2.5052,1.2454,1.2454,1.2454,1.2454,1.2462,1.2274,1.2196,1.2196,1.2196,1.2224,1.2361,1.2421,1.2383,1.2251,1.2251,1.218,1.2041,1.1959,1.1918,1.1914,1.1821,1.1784,1.1784,1.1784,1.1714,1.1449,1.1446,1.1344,1.1075,1.0987,1.0912,1.0777,1.0689,1.0657,1.0668,1.0342,1.0178,1.0178,1.0025,0.9907,0.9825,0.9819,0.9819,0.9819,0.9819,0.9819,0.9819,0.9819,0.9883,1.0004,0.9879,0.9981,1.0309,1.0194,1.0232,0.0,0.0,0.0,0.0,0.0,0.0,0.0,0.0,0.0,0.0,0.0,1.0598,1.0658,1.0848,1.1038,1.1229,1.1612,1.1862,1.1988,1.2182,1.2304,1.2304,1.2304,1.2304,1.2304,1.28,1.3416,1.4159,1.5276,1.6264,1.7128,1.83,1.8918,1.8354,1.8524,1.9343,2.0991,2.1417,2.1804,2.2952,2.3106,2.3106,2.3106,2.3106,2.3106,2.3106,2.3106,2.3106,2.3106,2.3106,2.3157,2.334,2.3376,2.3457,2.3625,2.391,2.4166,2.432,2.4496,2.4627,1.3161,1.2836,1.2964,1.2964,1.279,1.2421,1.227,1.227,1.227,1.2399,1.2527,1.2706,1.2638,1.2375,1.2375,1.2177,1.1912,1.1912,1.1912,1.1912,1.1912,1.1909,1.1912,1.1912,1.1963,1.2072,1.1878,1.1792,1.1683,1.1539,1.1332,1.1192,1.1025,1.0943,1.0947,1.039,1.0084,0.9957,0.9808,0.9731,0.9795,0.9795,0.9795,0.9795,0.9812,0.9822,0.9883,0.9879,1.0001,1.0304,1.0061,1.0186,1.0789,1.0486,1.0486,0.0,1.0793,0.0,0.0,0.0,0.0,0.0,0.0,0.0,0.0,1.0787,1.0913,1.1099,1.1229,1.1355,1.1732,1.1732,1.1921,1.2176,1.2239,1.2239,1.2235,1.2239,1.2298,1.2419,1.3465,1.4203,1.4742,1.6731,1.8204,1.8713,1.988,2.0388,1.9598,1.9663,2.0544,2.2057,2.2432,2.2617,2.2905,2.3076,2.3106,2.3106,2.3106,2.3106,2.3106,2.3106,2.3106,2.3106,2.3106,2.3113,2.3106,2.3113,2.3113,2.3157,2.3384,2.3654,2.394,2.4093,2.4086,1.4907,1.2902,1.4002,1.3875,1.2778,1.271,1.2672,1.2668,1.2672,1.2718,1.2757,1.2786,1.277,1.2704,1.2704,1.2638,1.2638,1.2572,1.2638,1.2638,1.2638,1.2638,1.2638,1.2638,1.2947,1.344,1.2475,1.225,1.2758,1.1627,1.1051,1.1021,1.0919,1.0834,1.0837,0.0,0.0,0.0,0.972,0.9649,0.9649,0.9652,0.9649,0.9652,0.9761,0.0,1.0186,1.0243,1.0365,1.0668,1.0668,0.0,0.0,0.0,0.0,0.0,0.0,0.0,0.0,0.0,0.0,0.0,1.0727,1.076,1.0825,1.0825,1.0821,1.0886,1.1126,1.1309,1.137,1.1626,1.1813,1.1878,1.1878,1.1878,1.1878,1.1943,1.2296,1.3309,1.3667,1.462,1.6484,1.7363,1.8149,1.9357,2.0096,2.0438,2.0438,2.1043,2.1781,2.2198,2.2403,2.2623,2.2696,2.293,2.3076,2.3106,2.3106,2.3106,2.3106,2.3106,2.3106,2.3106,2.3106,2.3106,2.3106,2.3106,2.3106,2.3106,2.3164,2.3296,2.3618,2.3896,2.4086,1.6138,0.0,1.5624,1.5554,0.0,1.4842,1.4842,1.4842,1.4132,1.4263,1.4842,1.4842,1.4842,1.4847,1.4842,1.4912,1.4907,1.4739,1.4743,1.4833,1.4571,1.4529,1.4622,1.4524,1.4612,1.4945,1.4313,1.4201,1.4361,1.3703,1.3306,1.3276,1.3171,1.3181,1.3122,1.2406,1.1446,1.0304,1.0229,1.0158,1.0024,1.0024,0.9985,0.997,1.0034,0.0,0.0,0.0,0.0,0.0,0.0,0.0,0.0,1.0969,0.0,1.1277,1.1281,1.1285,1.1285,1.1281,1.1281,1.1281,1.1281,1.122,1.1031,1.1216,1.1281,1.1281,1.1466,1.1522,1.1583,1.1712,1.1837,1.1837,1.1837,1.1837,1.1837,1.2367,1.296,1.367,1.4793,1.609,1.7337,1.8221,1.8926,1.9866,2.0328,2.0608,2.0924,2.1358,2.1737,2.1913,2.2052,2.2228,2.2389,2.2659,2.2864,2.2879,2.3003,2.3098,2.3106,2.3106,2.3106,2.3106,2.3106,2.3106,2.3106,2.3106,2.3106,2.3106,2.3106,2.3149,2.3332,2.3493,2.3603,1.7431,1.7039,1.7232,1.7232,1.698,1.698,1.7103,1.7232,0.0,0.0,0.0,1.698,1.698,1.698,1.698,1.6953,1.6904,1.6652,1.6642,1.6834,1.6327,1.6252,1.6418,1.6241,1.6191,1.6395,1.6148,1.6081,1.6096,1.5904,1.5698,1.5591,1.5569,1.5553,1.5451,1.4203,1.2875,1.1531,1.0999,1.0625,1.0413,1.041,1.0343,1.0263,1.029,1.0301,1.0358,1.0358,1.0474,1.0759,1.059,1.0767,1.138,1.1153,1.1221,1.1663,1.1679,1.1679,1.1679,1.1679,1.1679,1.1679,1.1679,1.1583,1.1386,1.1647,1.1837,1.1837,1.1837,1.1776,1.1837,1.1837,1.1897,1.2074,1.213,1.2251,1.2487,1.338,1.4143,1.4555,1.6208,1.7578,1.787,1.8933,1.9924,2.0213,2.05,2.0838,2.1146,2.124,2.135,2.1562,2.1701,2.1818,2.2052,2.2345,2.2528,2.2557,2.2813,2.301,2.3025,2.3069,2.3106,2.3106,2.3106,2.3106,2.3106,2.3106,2.3106,2.3106,2.3106,2.3106,2.3106,2.3113,2.3135,1.917,1.7109,1.8267,1.8075,1.698,1.698,1.7619,1.8588,1.7297,1.6845,1.698,1.698,1.698,1.698,1.698,1.6872,1.6609,1.6509,1.6407,1.6247,1.6115,1.6105,1.6131,1.6105,1.6597,1.7317,1.6387,1.632,1.7056,1.6216,1.5601,1.5634,1.5569,1.5467,1.5162,1.4972,1.4635,1.409,1.1628,1.0293,1.008,1.008,1.0069,1.005,1.023,1.0416,1.0647,1.064,1.0817,1.1109,1.1105,1.1121,1.1256,1.1203,1.1215,1.1297,1.1301,1.1301,1.1301,1.1301,1.1301,1.1297,1.1301,1.1431,1.1679,1.1772,1.1837,1.1833,1.176,1.1837,1.1837,1.1824,1.2286,1.3241,1.3426,1.3849,1.4787,1.5154,1.5682,1.668,1.7214,1.7987,1.8881,1.9526,1.9931,2.027,2.0558,2.0838,2.1081,2.1211,2.1225,2.1306,2.1525,2.1693,2.1781,2.2037,2.222,2.2242,2.2491,2.2689,2.2696,2.2901,2.3054,2.3098,2.3091,2.3106,2.3106,2.3106,2.3106,2.3106,2.3106,2.3106,2.3106,2.3106,2.3106,2.0399,1.9361,1.9884,1.9726,1.9008,1.8805,1.905,1.9561,1.8988,1.8908,1.9209,1.9087,1.902,1.9008,1.8805,1.8672,1.8488,1.8343,1.8294,1.8294,1.8016,1.7961,1.8082,1.7955,1.8126,1.8547,1.8056,1.8053,1.8415,1.7941,1.7649,1.7636,1.7502,1.6881,1.6006,1.5932,1.5468,1.4553,1.331,1.2314,1.1522,1.1457,1.1135,1.0433,1.0451,1.0599,1.0711,1.0711,1.0763,1.0936,1.0936,1.098,1.1078,1.1086,1.1126,1.1212,1.122,1.122,1.122,1.122,1.122,1.122,1.122,1.1289,1.1459,1.1476,1.1476,1.1476,1.1476,1.1472,1.1476,1.206,1.2691,1.3266,1.3947,1.4672,1.5333,1.6205,1.6868,1.7455,1.811,1.8765,1.9301,1.9764,2.0104,2.0328,2.0673,2.1031,2.1203,2.1211,2.1211,2.1225,2.1335,2.1415,2.1445,2.1701,2.1891,2.192,2.2184,2.2359,2.2403,2.2645,2.2813,2.2864,2.2974,2.3091,2.3098,2.3106,2.3106,2.3106,2.3106,2.3106,2.3106,2.3106,2.3106,2.0909,2.0909,2.0909,2.0775,2.0555,2.0334,2.0173,2.0173,2.018,2.0426,2.0848,2.0675,2.0575,2.0548,2.0334,2.0133,2.0107,1.9907,1.9887,1.998,1.9579,1.9492,1.9666,1.9466,1.9424,1.9424,1.9424,1.9424,1.9424,1.9424,1.9332,1.9245,1.8971,1.816,1.6975,1.6913,1.6336,1.5217,1.526,1.46,1.3055,1.2774,1.2257,1.1568,1.1236,1.1072,1.1067,1.1341,1.1341,1.1126,1.1341,1.1515,1.1663,1.1458,1.1353,1.1423,1.1212,1.1102,1.1102,1.1102,1.1102,1.1102,1.1098,1.1102,1.1102,1.1102,1.1143,1.1204,1.1236,1.129,1.1697,1.2426,1.3207,1.373,1.4782,1.5682,1.6051,1.7181,1.7935,1.8052,1.8829,1.9366,1.9597,1.9931,2.0335,2.0565,2.0917,2.1211,2.1211,2.1211,2.1211,2.1211,2.1211,2.1225,2.1225,2.1415,2.1569,2.1591,2.1862,2.203,2.2118,2.2315,2.2498,2.2557,2.2776,2.2937,2.2996,2.3069,2.3098,2.3106,2.3106,2.3106,2.3106,2.3106,2.3106,2.026,2.0253,2.0273,2.024,2.0274,2.0167,2.0207,2.0214,2.0167,2.0187,2.0301,2.0281,2.0267,2.0274,2.0167,2.0074,1.9846,1.9813,1.9679,1.9544,1.9457,1.9444,1.9477,1.9437,1.9424,1.9424,1.9424,1.9417,1.9397,1.9397,1.9219,1.8958,1.8677,1.8328,1.7899,1.7812,1.766,1.7311,1.7324,1.6242,1.4067,1.298,1.2871,1.376,1.2792,1.2254,1.2254,1.3221,1.3275,1.2413,1.3221,1.3771,1.3684,1.2827,1.2296,1.2265,1.1346,1.0741,1.0749,1.0741,1.0757,1.0741,1.0812,1.0812,1.0757,1.0804,1.0883,1.1175,1.1208,1.1704,1.2694,1.3013,1.3953,1.5704,1.646,1.7291,1.8185,1.8948,1.9243,1.9243,1.9307,1.9482,1.9707,2.0097,2.0507,2.0974,2.1096,2.1211,2.1211,2.1211,2.1211,2.1211,2.1211,2.1211,2.1218,2.1218,2.1298,2.1306,2.1525,2.1701,2.1796,2.1993,2.2228,2.225,2.2469,2.2652,2.2762,2.2879,2.3084,2.3106,2.3106,2.3106,2.3106,2.3106,2.3106,2.0173,2.0173,2.0173,2.0073,1.9967,1.9793,1.972,1.972,1.9726,1.972,1.972,1.972,1.9813,1.996,1.98,1.9653,1.9546,1.9539,1.9486,1.943,1.9424,1.9424,1.9424,1.9424,1.9424,1.9424,1.9424,1.9279,1.9105,1.8938,1.8698,1.8368,1.8229,1.807,1.7802,1.7769,1.7709,1.7595,1.7589,1.7094,1.6174,1.5055,1.4352,1.4078,1.3652,1.3383,1.3437,1.3863,1.3863,1.3491,1.3868,1.4078,1.4078,1.3647,1.3437,1.3329,1.2363,1.1714,1.1664,1.1072,1.0692,1.0692,1.1337,1.1446,1.0852,1.1878,1.2493,1.197,1.1895,1.2395,1.3497,1.4263,1.5146,1.6132,1.7184,1.8091,1.8559,1.9092,1.9424,1.9424,1.9424,1.9482,1.9809,2.0213,2.0673,2.1089,2.1211,2.1211,2.1211,2.1211,2.1211,2.1211,2.1211,2.1211,2.1211,2.1211,2.1211,2.1233,2.1313,2.1408,2.1467,2.1686,2.1898,2.1898,2.2162,2.2418,2.2615,2.2703,2.2857,2.2974,2.3106,2.3106,2.3106,2.3106,2.3106,1.9993,1.9993,1.9993,1.9873,1.9666,1.9459,1.9424,1.9424,1.9424,1.9424,1.9424,1.9424,1.9544,1.9633,1.9459,1.9424,1.9424,1.9424,1.9424,1.9424,1.9424,1.9424,1.9424,1.9424,1.9383,1.9252,1.9239,1.9092,1.8804,1.851,1.8257,1.8009,1.7909,1.7809,1.7609,1.7589,1.7589,1.7589,1.7589,1.7589,1.7477,1.6776,1.5914,1.5102,1.4728,1.462,1.462,1.4888,1.4888,1.462,1.4888,1.5049,1.5049,1.4781,1.4454,1.4078,1.3329,1.2847,1.2842,1.2091,1.1664,1.1719,1.2417,1.2521,1.2091,1.3171,1.3814,1.356,1.3329,1.3776,1.4513,1.5375,1.5968,1.6377,1.7623,1.8384,1.851,1.8958,1.9272,1.9403,1.9424,1.9533,1.9931,2.0443,2.0967,2.1153,2.1211,2.1211,2.1211,2.1211,2.1211,2.1211,2.1211,2.1211,2.1211,2.1211,2.1211,2.1211,2.1233,2.124,2.1211,2.1445,2.1562,2.1598,2.1862,2.2059,2.2213,2.2359,2.2601,2.2871,2.3025,2.3076,2.3106,2.3106,2.3106,1.9464,1.9477,1.947,1.9484,1.9444,1.943,1.9424,1.9424,1.9424,1.9424,1.9424,1.9424,1.9437,1.9457,1.9437,1.9424,1.9424,1.9424,1.9424,1.9424,1.9424,1.9424,1.9424,1.9424,1.9212,1.8958,1.8945,1.8791,1.8504,1.8217,1.8009,1.7969,1.7769,1.7609,1.7589,1.7589,1.7589,1.7589,1.7589,1.7589,1.7589,1.7529,1.7417,1.7206,1.6393,1.5802,1.5908,1.6829,1.6929,1.5861,1.677,1.7371,1.7312,1.6346,1.537,1.4352,1.4083,1.4024,1.403,1.3809,1.3755,1.3863,1.3868,1.397,1.3706,1.4137,1.4728,1.5589,1.5535,1.5695,1.5755,1.5968,1.6446,1.7279,1.7775,1.821,1.8464,1.8804,1.9065,1.9299,1.9424,1.9707,2.0213,2.0795,2.1089,2.1211,2.1211,2.1211,2.1211,2.1211,2.1211,2.1211,2.1211,2.1211,2.1211,2.1211,2.1211,2.1211,2.1211,2.1211,2.1211,2.1225,2.1247,2.1306,2.1547,2.1715,2.1789,2.2001,2.2315,2.2608,2.2886,2.2996,2.2981,2.3076,2.3106,1.9424,1.9424,1.9424,1.9424,1.9424,1.9424,1.9424,1.9424,1.9424,1.9424,1.9424,1.9424,1.9424,1.9424,1.9424,1.9424,1.9424,1.9424,1.9424,1.9424,1.9424,1.9265,1.9092,1.9085,1.8931,1.8684,1.8651,1.849,1.8203,1.7896,1.7749,1.7742,1.7642,1.7589,1.7589,1.7589,1.7589,1.7589,1.7589,1.7589,1.7589,1.7589,1.7589,1.7582,1.7206,1.6995,1.6988,1.7364,1.7424,1.6995,1.7371,1.7589,1.7582,1.7206,1.6829,1.634,1.5642,1.5263,1.5162,1.4513,1.4078,1.4132,1.4835,1.4883,1.4561,1.5423,1.6234,1.6074,1.6611,1.6935,1.6988,1.6988,1.7147,1.753,1.8016,1.835,1.8544,1.8898,1.9252,1.9397,1.9707,2.0104,2.0335,2.0802,2.1211,2.1211,2.1211,2.1211,2.1211,2.1211,2.1211,2.1211,2.1211,2.1211,2.1211,2.1211,2.1211,2.1211,2.1211,2.1211,2.1211,2.1211,2.1233,2.124,2.1386,2.1496,2.162,2.1906,2.2184,2.2301,2.2586,2.2769,2.2791,2.2864,2.2988,1.9424,1.9424,1.9424,1.9424,1.9424,1.9424,1.9424,1.9424,1.9424,1.9424,1.9424,1.9424,1.9424,1.9424,1.9424,1.9305,1.9245,1.9319,1.9319,1.9232,1.9225,1.9072,1.8824,1.8784,1.8631,1.8364,1.8237,1.8083,1.7903,1.7689,1.7589,1.7589,1.7589,1.7589,1.7589,1.7589,1.7589,1.7589,1.7589,1.7589,1.7589,1.7589,1.7589,1.7589,1.7589,1.7589,1.7589,1.7589,1.7589,1.7589,1.7589,1.7589,1.7589,1.7589,1.7589,1.7529,1.6882,1.6452,1.6399,1.5695,1.5263,1.5263,1.5962,1.6074,1.5429,1.6664,1.7041,1.6829,1.7047,1.7589,1.7589,1.7589,1.7589,1.7642,1.8036,1.839,1.8504,1.8925,1.9276,1.9564,1.9989,2.027,2.0443,2.091,2.1146,2.1211,2.1211,2.1211,2.1211,2.1211,2.1211,2.1211,2.1211,2.1211,2.1211,2.1211,2.1211,2.1211,2.1211,2.1211,2.1211,2.1211,2.1211,2.1211,2.1254,2.135,2.154,2.1825,2.1964,2.203,2.225,2.2476,2.2542,2.263,2.274,1.9424,1.9424,1.9424,1.9424,1.9424,1.9424,1.9424,1.9424,1.9424,1.9424,1.9424,1.9424,1.9424,1.9424,1.939,1.9192,1.9045,1.9185,1.9145,1.8938,1.8918,1.8764,1.8497,1.8484,1.833,1.7989,1.7749,1.7622,1.7622,1.7602,1.7589,1.7589,1.7589,1.7589,1.7589,1.7589,1.7589,1.7589,1.7589,1.7589,1.7589,1.7589,1.7589,1.7589,1.7589,1.7589,1.7589,1.7589,1.7589,1.7589,1.7589,1.7589,1.7589,1.7589,1.7589,1.7589,1.7529,1.7529,1.7529,1.7424,1.7206,1.7206,1.7477,1.7371,1.7259,1.7424,1.7529,1.7477,1.7529,1.7589,1.7589,1.7589,1.7589,1.7622,1.7929,1.825,1.8484,1.8764,1.9159,1.9689,2.0097,2.0378,2.0666,2.0967,2.1203,2.1211,2.1211,2.1211,2.1211,2.1211,2.1211,2.1211,2.1211,2.1211,2.1211,2.1211,2.1211,2.1211,2.1211,2.1211,2.1211,2.1211,2.1211,2.1211,2.1211,2.1291,2.1313,2.1569,2.1642,2.1745,2.1979,2.2154,2.2228,2.2301,2.2432,1.9424,1.9424,1.9424,1.9424,1.9424,1.9424,1.9424,1.9424,1.9424,1.9424,1.9424,1.9424,1.9424,1.937,1.9158,1.9011,1.8918,1.8831,1.8711,1.8631,1.8624,1.8457,1.8217,1.8122,1.8029,1.7756,1.7635,1.7589,1.7589,1.7589,1.7589,1.7589,1.7589,1.7589,1.7589,1.7589,1.7589,1.7589,1.7589,1.7589,1.7589,1.7589,1.7589,1.7589,1.7589,1.7589,1.7589,1.7589,1.7589,1.7589,1.7589,1.7589,1.7589,1.7589,1.7589,1.7589,1.7589,1.7589,1.7589,1.7589,1.7589,1.7589,1.7589,1.7589,1.7589,1.7589,1.7589,1.7589,1.7589,1.7589,1.7589,1.7589,1.7589,1.7595,1.8036,1.8377,1.8564,1.8931,1.9398,1.973,2.0104,2.0385,2.0666,2.1017,2.1211,2.1211,2.1211,2.1211,2.1211,2.1211,2.1211,2.1211,2.1211,2.1211,2.1211,2.1211,2.1211,2.1211,2.1211,2.1211,2.1211,2.1211,2.1211,2.1211,2.1211,2.1218,2.1233,2.1291,2.1393,2.1467,2.1657,2.1774,2.1847,2.1957,2.2081,1.9424,1.9424,1.9424,1.9424,1.9424,1.9424,1.9424,1.9424,1.9424,1.9424,1.9424,1.9424,1.9424,1.9363,1.9058,1.8865,1.8744,1.8464,1.8263,1.8196,1.829,1.815,1.7883,1.7869,1.7789,1.7622,1.7589,1.7589,1.7589,1.7589,1.7589,1.7589,1.7589,1.7589,1.7589,1.7589,1.7589,1.7589,1.7589,1.7589,1.7589,1.7589,1.7589,1.7589,1.7589,1.7589,1.7589,1.7589,1.7589,1.7589,1.7589,1.7589,1.7589,1.7589,1.7589,1.7589,1.7589,1.7589,1.7589,1.7589,1.7589,1.7589,1.7589,1.7589,1.7589,1.7589,1.7589,1.7589,1.7589,1.7589,1.7589,1.7589,1.7629,1.7756,1.8183,1.8564,1.8791,1.9132,1.9506,1.9758,2.0104,2.0378,2.0666,2.096,2.1211,2.1211,2.1211,2.1211,2.1211,2.1211,2.1211,2.1211,2.1211,2.1211,2.1211,2.1211,2.1211,2.1211,2.1211,2.1211,2.1211,2.1211,2.1211,2.1211,2.1211,2.1211,2.1225,2.1218,2.1284,2.1335,2.1393,2.1437,2.154,2.1606,2.1723,1.9424,1.9424,1.9424,1.9424,1.9424,1.9424,1.9424,1.9424,1.9424,1.9424,1.9424,1.9424,1.9424,1.9299,1.9018,1.8738,1.8477,1.8156,1.7903,1.7789,1.7876,1.7869,1.7655,1.7642,1.7622,1.7595,1.7589,1.7589,1.7589,1.7589,1.7589,1.7589,1.7589,1.7589,1.7589,1.7589,1.7589,1.7589,1.7589,1.7589,1.7589,1.7589,1.7589,1.7589,1.7589,1.7589,1.7589,1.7589,1.7589,1.7589,1.7589,1.7589,1.7589,1.7589,1.7589,1.7589,1.7589,1.7589,1.7589,1.7589,1.7589,1.7589,1.7589,1.7589,1.7589,1.7589,1.7589,1.7589,1.7589,1.7589,1.7589,1.7589,1.7729,1.7989,1.837,1.8764,1.931,1.9417,1.9533,1.9764,2.0104,2.0385,2.0666,2.0967,2.1146,2.1211,2.1211,2.1211,2.1211,2.1211,2.1211,2.1211,2.1211,2.1211,2.1211,2.1211,2.1211,2.1211,2.1211,2.1211,2.1211,2.1211,2.1211,2.1211,2.1211,2.1211,2.1211,2.1211,2.1211,2.1254,2.1262,2.1218,2.1319,2.1487,2.1892,1.9424,1.9424,1.9424,1.9424,1.9424,1.9424,1.9424,1.9424,1.9424,1.9424,1.9424,1.9424,1.9424,1.937,1.8838,1.8557,1.839,1.7949,1.7682,1.7609,1.7655,1.7669,1.7595,1.7589,1.7589,1.7589,1.7589,1.7589,1.7589,1.7589,1.7589,1.7589,1.7589,1.7589,1.7589,1.7589,1.7589,1.7589,1.7589,1.7589,1.7589,1.7589,1.7589,1.7589,1.7589,1.7589,1.7589,1.7589,1.7589,1.7589,1.7589,1.7589,1.7589,1.7589,1.7589,1.7589,1.7589,1.7589,1.7589,1.7589,1.7589,1.7589,1.7589,1.7589,1.7589,1.7589,1.7589,1.7589,1.7589,1.7589,1.7589,1.7609,1.7842,1.8303,1.8624,1.8958,1.9316,1.9424,1.9482,1.9758,2.0097,2.0385,2.0666,2.096,2.1211,2.1211,2.1211,2.1211,2.1211,2.1211,2.1211,2.1211,2.1211,2.1211,2.1211,2.1211,2.1211,2.1211,2.1211,2.1211,2.1211,2.1211,2.1211,2.1211,2.1211,2.1211,2.1211,2.1211,2.1211,2.1211,2.1211,2.1211,2.1546,2.1777,2.2397,1.9424,1.9424,1.9424,1.9424,1.9424,1.9424,1.9424,1.9424,1.9424,1.9424,1.9424,1.9424,1.9424,1.9363,1.8758,1.8504,1.841,1.7856,1.7602,1.7589,1.7595,1.7589,1.7589,1.7589,1.7589,1.7589,1.7589,1.7589,1.7589,1.7589,1.7589,1.7589,1.7589,1.7589,1.7589,1.7589,1.7589,1.7589,1.7589,1.7589,1.7589,1.7589,1.7589,1.7589,1.7589,1.7589,1.7589,1.7589,1.7589,1.7589,1.7589,1.7589,1.7589,1.7589,1.7589,1.7589,1.7589,1.7589,1.7589,1.7589,1.7589,1.7589,1.7589,1.7589,1.7589,1.7589,1.7589,1.7589,1.7589,1.7589,1.7629,1.7796,1.811,1.845,1.8858,1.9172,1.9352,1.9424,1.9482,1.9713,1.9989,2.0328,2.0551,2.091,2.1146,2.1211,2.1211,2.1211,2.1211,2.1211,2.1211,2.1211,2.1211,2.1211,2.1211,2.1211,2.1211,2.1211,2.1211,2.1211,2.1211,2.1211,2.1211,2.1211,2.1211,2.1211,2.1211,2.1211,2.1211,2.1211,2.1211,2.1261,2.1546,2.2369,2.2926,1.9424,1.9424,1.9424,1.9424,1.9424,1.9424,1.9424,1.9424,1.9424,1.9424,1.9424,1.9424,1.9383,1.9285,1.8731,1.847,1.839,1.7836,1.7642,1.7589,1.7589,1.7589,1.7589,1.7589,1.7589,1.7589,1.7589,1.7589,1.7589,1.7589,1.7589,1.7589,1.7589,1.7589,1.7589,1.7589,1.7589,1.7589,1.7589,1.7589,1.7589,1.7589,1.7589,1.7589,1.7589,1.7589,1.7589,1.7589,1.7589,1.7589,1.7589,1.7589,1.7589,1.7589,1.7589,1.7589,1.7589,1.7589,1.7589,1.7589,1.7589,1.7589,1.7589,1.7589,1.7589,1.7589,1.7589,1.7589,1.7589,1.7589,1.7649,1.807,1.835,1.8537,1.8978,1.9272,1.9424,1.9424,1.9424,1.9482,1.9989,2.0213,2.05,2.0795,2.1211,2.1211,2.1211,2.1211,2.1211,2.1211,2.1211,2.1211,2.1211,2.1211,2.1211,2.1211,2.1211,2.1211,2.1211,2.1211,2.1211,2.1211,2.1211,2.1211,2.1211,2.1211,2.1211,2.1211,2.1318,2.1211,2.1211,2.1211,2.1375,2.2757,2.364,1.9424,1.9424,1.9424,1.9424,1.9424,1.9424,1.9424,1.9424,1.9424,1.9424,1.9424,1.9424,1.9239,1.9011,1.8657,1.837,1.8089,1.7776,1.7589,1.7589,1.7589,1.7589,1.7589,1.7589,1.7589,1.7589,1.7589,1.7589,1.7589,1.7589,1.7589,1.7589,1.7589,1.7589,1.7589,1.7589,1.7589,1.7589,1.7589,1.7589,1.7589,1.7589,1.7589,1.7589,1.7589,1.7589,1.7589,1.7589,1.7589,1.7589,1.7589,1.7589,1.7589,1.7589,1.7589,1.7589,1.7589,1.7589,1.7589,1.7589,1.7589,1.7589,1.7589,1.7589,1.7589,1.7589,1.7589,1.7589,1.7589,1.7589,1.7622,1.7916,1.8217,1.8484,1.8804,1.9118,1.9299,1.9417,1.9475,1.97,2.004,2.0385,2.0608,2.0917,2.1153,2.1211,2.1211,2.1211,2.1211,2.1211,2.1211,2.1203,2.1108,2.1094,2.1086,2.1086,2.1079,2.1137,2.1167,2.1211,2.1211,2.1211,2.1211,2.1211,2.1211,2.1261,2.1596,2.1596,2.1759,2.1482,2.1318,2.1318,2.1759,2.3143,2.4125,1.9424,1.9424,1.9424,1.9424,1.9424,1.9424,1.9424,1.9424,1.9424,1.9424,1.9424,1.9424,1.9199,1.8911,1.8617,1.833,1.7975,1.7729,1.7589,1.7589,1.7589,1.7589,1.7589,1.7589,1.7589,1.7589,1.7589,1.7589,1.7589,1.7589,1.7589,1.7589,1.7589,1.7589,1.7589,1.7589,1.7589,1.7589,1.7589,1.7589,1.7589,1.7589,1.7589,1.7589,1.7589,1.7589,1.7589,1.7589,1.7589,1.7589,1.7589,1.7589,1.7589,1.7589,1.7589,1.7589,1.7589,1.7589,1.7589,1.7589,1.7589,1.7589,1.7589,1.7589,1.7589,1.7589,1.7589,1.7589,1.7589,1.7589,1.7595,1.7862,1.8069,1.8303,1.8671,1.8925,1.8991,1.9185,1.9482,1.9764,2.0097,2.0378,2.0673,2.1031,2.1153,2.1211,2.1211,2.1211,2.1211,2.1211,2.1211,2.1167,2.1028,2.0955,2.0947,2.094,2.0918,2.0998,2.1094,2.1159,2.1211,2.1211,2.1211,2.1261,2.1375,2.2044,2.232,2.232,2.2312,2.2263,2.2093,2.1759,2.2036,2.3303,2.4125,1.9424,1.9424,1.9424,1.9424,1.9424,1.9424,1.9424,1.9424,1.9424,1.9424,1.9424,1.9424,1.9172,1.8844,1.8604,1.831,1.7969,1.7742,1.7589,1.7589,1.7589,1.7589,1.7589,1.7589,1.7589,1.7589,1.7589,1.7589,1.7589,1.7589,1.7589,1.7589,1.7589,1.7589,1.7589,1.7589,1.7589,1.7589,1.7589,1.7589,1.7589,1.7589,1.7589,1.7589,1.7589,1.7589,1.7589,1.7589,1.7589,1.7589,1.7589,1.7589,1.7589,1.7589,1.7589,1.7589,1.7589,1.7589,1.7589,1.7589,1.7589,1.7589,1.7589,1.7589,1.7589,1.7589,1.7589,1.7589,1.7589,1.7589,1.7602,1.7769,1.7949,1.8069,1.8468,1.8651,1.8651,1.8951,1.9304,1.9777,2.0023,2.0237,2.068,2.1089,2.1146,2.1196,2.1189,2.1189,2.1174,2.113,2.1079,2.0976,2.0801,2.0669,2.0655,2.083,2.0801,2.0874,2.0998,2.1137,2.1211,2.1211,2.1268,2.1432,2.171,2.2263,2.2813,2.2974,2.2974,2.3095,2.3087,2.2862,2.3135,2.3631,2.4339,1.9424,1.9424,1.9424,1.9424,1.9424,1.9424,1.9424,1.9424,1.9424,1.9424,1.9424,1.941,1.9045,1.8664,1.8531,1.8183,1.7769,1.7609,1.7589,1.7589,1.7589,1.7589,1.7589,1.7589,1.7589,1.7589,1.7589,1.7589,1.7589,1.7589,1.7589,1.7589,1.7589,1.7589,1.7589,1.7589,1.7589,1.7589,1.7589,1.7589,1.7589,1.7589,1.7589,1.7589,1.7589,1.7589,1.7589,1.7589,1.7589,1.7589,1.7589,1.7589,1.7589,1.7589,1.7589,1.7589,1.7589,1.7589,1.7589,1.7589,1.7589,1.7589,1.7589,1.7589,1.7589,1.7589,1.7589,1.7589,1.7589,1.7589,1.7589,1.7669,1.7796,1.7929,1.8089,1.8242,1.843,1.8633,1.8976,1.9562,1.9857,2.0111,2.0579,2.087,2.092,2.0955,2.0962,2.0976,2.0984,2.0896,2.0794,2.0662,2.0516,2.0398,2.0263,2.0518,2.0657,2.0779,2.0918,2.1152,2.1211,2.1211,2.1261,2.1375,2.171,2.2207,2.27,2.3472,2.3751,2.3871,2.3911,2.4005,2.4069,2.4292,2.5351,1.9424,1.9424,1.9424,1.9424,1.9424,1.9424,1.9424,1.9424,1.9424,1.9424,1.9377,1.9199,1.8905,1.8537,1.8303,1.7996,1.7689,1.7589,1.7589,1.7589,1.7589,1.7589,1.7589,1.7589,1.7589,1.7589,1.7589,1.7589,1.7589,1.7589,1.7589,1.7589,1.7589,1.7589,1.7589,1.7589,1.7589,1.7589,1.7589,1.7589,1.7589,1.7589,1.7589,1.7589,1.7589,1.7589,1.7589,1.7589,1.7589,1.7589,1.7589,1.7589,1.7589,1.7589,1.7589,1.7589,1.7589,1.7589,1.7589,1.7589,1.7589,1.7589,1.7589,1.7589,1.7589,1.7589,1.7589,1.7589,1.7589,1.7589,1.7589,1.7589,1.7662,1.7789,1.7876,1.7962,1.8063,1.8176,1.8653,1.925,1.9472,1.9792,2.0344,2.0577,2.0628,2.0706,2.0728,2.075,2.0772,2.0625,2.0472,2.0325,2.0164,2.0003,1.9989,2.0252,2.0467,2.0633,2.0837,2.1072,2.1211,2.1211,2.1211,2.1268,2.1653,2.2101,2.3584,2.4625,2.4633,2.4697,2.5131,2.5351,2.4846,2.502,2.6127,1.9424,1.9424,1.9424,1.9424,1.9424,1.9424,1.9424,1.9424,1.9424,1.9383,1.9245,1.9025,1.8738,1.839,1.809,1.7802,1.7589,1.7589,1.7589,1.7589,1.7589,1.7589,1.7589,1.7589,1.7589,1.7589,1.7589,1.7589,1.7589,1.7589,1.7589,1.7589,1.7589,1.7589,1.7589,1.7589,1.7589,1.7589,1.7589,1.7589,1.7589,1.7589,1.7589,1.7589,1.7589,1.7589,1.7589,1.7589,1.7589,1.7589,1.7589,1.7589,1.7589,1.7589,1.7589,1.7589,1.7589,1.7589,1.7589,1.7589,1.7589,1.7589,1.7589,1.7589,1.7589,1.7589,1.7589,1.7589,1.7589,1.7589,1.7589,1.7589,1.7595,1.7635,1.7789,1.7889,1.7776,1.7862,1.8245,1.8664,1.9019,1.9514,2.0117,2.0336,2.0409,2.0409,2.0431,2.0409,2.0457,2.0267,2.0113,1.9967,1.9798,1.9601,1.9645,1.9901,2.0172,2.0329,2.0691,2.0998,2.113,2.1211,2.1211,2.1211,2.1596,2.2263,2.4078,2.5562,2.558,2.5863,2.6518,2.6463,2.5799,2.6018,2.7015,1.9424,1.9424,1.9424,1.9424,1.9424,1.9424,1.9424,1.9424,1.9424,1.9205,1.9005,1.8905,1.8591,1.8116,1.7789,1.7629,1.7589,1.7589,1.7589,1.7589,1.7589,1.7589,1.7589,1.7589,1.7589,1.7589,1.7589,1.7589,1.7589,1.7589,1.7589,1.7589,1.7589,1.7589,1.7589,1.7589,1.7589,1.7589,1.7589,1.7589,1.7589,1.7589,1.7589,1.7589,1.7589,1.7589,1.7589,1.7589,1.7589,1.7589,1.7589,1.7589,1.7589,1.7589,1.7589,1.7589,1.7589,1.7589,1.7589,1.7589,1.7589,1.7589,1.7589,1.7589,1.7589,1.7589,1.7589,1.7589,1.7589,1.7589,1.7589,1.7589,1.7589,1.7595,1.7649,1.7682,1.7609,1.7748,1.8107,1.8372,1.8805,1.9374,1.9961,2.011,2.0197,2.019,2.0176,2.0139,2.012,1.9923,1.9791,1.9659,1.9601,1.9425,1.9507,1.9696,1.9974,2.0201,2.0559,2.0933,2.1094,2.1211,2.1211,2.1318,2.1653,2.2482,2.4181,2.5397,2.6182,2.6799,2.7241,2.7079,2.6581,2.7133,2.7799,1.9424,1.9424,1.9424,1.9424,1.9424,1.9424,1.9424,1.9424,1.9424,1.9199,1.8925,1.8731,1.8343,1.7836,1.7622,1.7589,1.7589,1.7589,1.7589,1.7589,1.7589,1.7589,1.7589,1.7589,1.7589,1.7589,1.7589,1.7589,1.7589,1.7589,1.7589,1.7589,1.7589,1.7589,1.7589,1.7589,1.7589,1.7589,1.7589,1.7589,1.7589,1.7589,1.7589,1.7589,1.7589,1.7589,1.7589,1.7589,1.7589,1.7589,1.7589,1.7589,1.7589,1.7589,1.7589,1.7589,1.7589,1.7589,1.7589,1.7589,1.7589,1.7589,1.7589,1.7589,1.7589,1.7589,1.7589,1.7589,1.7589,1.7589,1.7589,1.7589,1.7589,1.7589,1.7589,1.7589,1.7641,1.7799,1.8044,1.8286,1.8608,1.9187,1.9648,1.9709,1.9798,1.9777,1.9755,1.9718,1.9659,1.955,1.9447,1.9374,1.9345,1.9308,1.9411,1.9586,1.9923,2.0194,2.0516,2.0852,2.1101,2.1211,2.1211,2.1539,2.2044,2.3079,2.4441,2.5223,2.5899,2.6898,2.796,2.7628,2.7305,2.7574,2.8077,1.9424,1.9424,1.9424,1.9424,1.9424,1.9424,1.9424,1.9417,1.9272,1.9085,1.8771,1.8424,1.7989,1.7682,1.7589,1.7589,1.7589,1.7589,1.7589,1.7589,1.7589,1.7589,1.7589,1.7589,1.7589,1.7589,1.7589,1.7589,1.7589,1.7589,1.7589,1.7589,1.7589,1.7589,1.7589,1.7589,1.7589,1.7589,1.7589,1.7589,1.7589,1.7589,1.7589,1.7589,1.7589,1.7589,1.7589,1.7589,1.7589,1.7589,1.7589,1.7589,1.7589,1.7589,1.7589,1.7589,1.7589,1.7589,1.7589,1.7589,1.7589,1.7589,1.7589,1.7589,1.7589,1.7589,1.7589,1.7589,1.7589,1.7589,1.7589,1.7589,1.7589,1.7589,1.7589,1.7589,1.7641,1.7806,1.8069,1.8325,1.8639,1.8966,1.9299,1.9345,1.9323,1.9308,1.9279,1.9272,1.9279,1.9294,1.9286,1.9272,1.9272,1.9279,1.936,1.9542,1.9872,2.0186,2.0516,2.0823,2.1101,2.1203,2.1211,2.1653,2.215,2.3191,2.4228,2.4948,2.5726,2.707,2.813,2.8184,2.8184,2.8301,2.8301,1.9424,1.9424,1.9424,1.9424,1.9424,1.9424,1.9424,1.9363,1.9072,1.8811,1.8464,1.7963,1.7689,1.7595,1.7589,1.7589,1.7589,1.7589,1.7589,1.7589,1.7589,1.7589,1.7589,1.7589,1.7589,1.7589,1.7589,1.7589,1.7589,1.7589,1.7589,1.7589,1.7589,1.7589,1.7589,1.7589,1.7589,1.7589,1.7589,1.7589,1.7589,1.7589,1.7589,1.7589,1.7589,1.7589,1.7589,1.7589,1.7589,1.7589,1.7589,1.7589,1.7589,1.7589,1.7589,1.7589,1.7589,1.7589,1.7589,1.7589,1.7589,1.7589,1.7589,1.7589,1.7589,1.7589,1.7589,1.7589,1.7589,1.7589,1.7589,1.7589,1.7589,1.7589,1.7589,1.7589,1.7694,1.7859,1.8122,1.8377,1.8698,1.8966,1.9182,1.9227,1.9272,1.9272,1.9272,1.9272,1.9272,1.9279,1.9279,1.9272,1.9272,1.9286,1.9316,1.955,1.9872,2.0186,2.0508,2.083,2.1145,2.1189,2.1211,2.1318,2.1759,2.2918,2.4069,2.4846,2.5899,2.7457,2.8301,2.8301,2.8301,2.8301,2.8301,1.9424,1.9424,1.9424,1.9424,1.9424,1.9424,1.9265,1.9098,1.8965,1.8644,1.8142,1.7782,1.7589,1.7589,1.7589,1.7589,1.7589,1.7589,1.7589,1.7589,1.7589,1.7589,1.7589,1.7589,1.7589,1.7589,1.7589,1.7589,1.7589,1.7589,1.7589,1.7589,1.7589,1.7589,1.7589,1.7589,1.7589,1.7589,1.7589,1.7589,1.7589,1.7589,1.7589,1.7589,1.7589,1.7589,1.7589,1.7589,1.7589,1.7589,1.7589,1.7589,1.7589,1.7589,1.7589,1.7589,1.7589,1.7589,1.7589,1.7589,1.7589,1.7589,1.7589,1.7589,1.7589,1.7589,1.7589,1.7589,1.7589,1.7589,1.7589,1.7589,1.7589,1.7589,1.7589,1.7589,1.7694,1.7859,1.8069,1.8325,1.8593,1.8921,1.9078,1.9175,1.9227,1.9272,1.9272,1.9272,1.9272,1.9272,1.9272,1.9272,1.9272,1.9272,1.9301,1.9564,1.9872,2.0186,2.0453,2.083,2.113,2.1189,2.1211,2.1211,2.1482,2.2644,2.3743,2.4791,2.6127,2.7682,2.8237,2.8301,2.8301,2.8301,2.8301,1.9424,1.9424,1.9424,1.9424,1.9417,1.9272,1.9118,1.8911,1.8718,1.839,1.7903,1.7669,1.7589,1.7589,1.7589,1.7589,1.7589,1.7589,1.7589,1.7589,1.7589,1.7589,1.7589,1.7589,1.7589,1.7589,1.7589,1.7589,1.7589,1.7589,1.7589,1.7589,1.7589,1.7589,1.7589,1.7589,1.7589,1.7589,1.7589,1.7589,1.7589,1.7589,1.7589,1.7589,1.7589,1.7589,1.7589,1.7589,1.7589,1.7589,1.7589,1.7589,1.7589,1.7589,1.7589,1.7589,1.7589,1.7589,1.7589,1.7589,1.7589,1.7589,1.7589,1.7589,1.7589,1.7589,1.7589,1.7589,1.7589,1.7589,1.7589,1.7589,1.7589,1.7589,1.7589,1.7641,1.7694,1.7852,1.8016,1.8227,1.8548,1.8921,1.9123,1.9227,1.9279,1.9272,1.9272,1.9272,1.9272,1.9272,1.9272,1.9272,1.9272,1.9272,1.9294,1.9579,1.9872,2.0186,2.0453,2.083,2.1072,2.1152,2.1211,2.1211,2.1653,2.2474,2.3575,2.4791,2.6291,2.7897,2.813,2.8301,2.8301,2.8301,2.8301,1.9424,1.9424,1.941,1.9352,1.9305,1.9052,1.8918,1.8758,1.8262,1.7929,1.7662,1.7589,1.7589,1.7589,1.7589,1.7589,1.7589,1.7589,1.7589,1.7589,1.7589,1.7589,1.7589,1.7589,1.7589,1.7589,1.7589,1.7589,1.7589,1.7589,1.7589,1.7589,1.7589,1.7589,1.7589,1.7589,1.7589,1.7589,1.7589,1.7589,1.7589,1.7589,1.7589,1.7589,1.7589,1.7589,1.7589,1.7589,1.7589,1.7589,1.7589,1.7589,1.7589,1.7589,1.7589,1.7589,1.7589,1.7589,1.7589,1.7589,1.7589,1.7589,1.7589,1.7589,1.7589,1.7589,1.7589,1.7589,1.7589,1.7589,1.7589,1.7589,1.7589,1.7589,1.7589,1.7641,1.7694,1.774,1.7905,1.8122,1.8548,1.8974,1.9123,1.9272,1.9272,1.9272,1.9272,1.9272,1.9272,1.9272,1.9272,1.9272,1.9272,1.9272,1.9323,1.9579,1.9872,2.0186,2.0453,2.083,2.1057,2.1174,2.1211,2.1211,2.1596,2.2142,2.3463,2.4837,2.6509,2.8067,2.8184,2.8301,2.8301,2.8301,2.8301,1.9424,1.941,1.9152,1.9072,1.9058,1.8971,1.8655,1.8262,1.7929,1.7675,1.7602,1.7589,1.7589,1.7589,1.7589,1.7589,1.7589,1.7589,1.7589,1.7589,1.7589,1.7589,1.7589,1.7589,1.7589,1.7589,1.7589,1.7589,1.7589,1.7589,1.7589,1.7589,1.7589,1.7589,1.7589,1.7589,1.7589,1.7589,1.7589,1.7589,1.7589,1.7595,1.7595,1.7595,1.7589,1.7589,1.7589,1.7589,1.7589,1.7589,1.7589,1.7589,1.7589,1.7589,1.7589,1.7589,1.7589,1.7589,1.7589,1.7589,1.7589,1.7589,1.7589,1.7589,1.7589,1.7589,1.7589,1.7589,1.7589,1.7589,1.7589,1.7589,1.7589,1.7589,1.7589,1.7589,1.7641,1.7687,1.7799,1.801,1.8384,1.8862,1.9168,1.9272,1.9272,1.9272,1.9272,1.9272,1.9272,1.9272,1.9272,1.9272,1.9272,1.9272,1.9352,1.9588,1.9842,2.0186,2.0453,2.083,2.102,2.1181,2.1211,2.1211,2.1482,2.1866,2.3687,2.5452,2.6961,2.8077,2.8237,2.8301,2.8301,2.8301,2.8301,1.9305,1.9199,1.9005,1.8798,1.8588,1.8562,1.833,1.7903,1.7669,1.7589,1.7589,1.7589,1.7589,1.7589,1.7589,1.7589,1.7589,1.7589,1.7589,1.7589,1.7589,1.7589,1.7589,1.7589,1.7589,1.7589,1.7589,1.7589,1.7589,1.7589,1.7589,1.7589,1.7589,1.7589,1.7589,1.7589,1.7655,1.7716,1.7782,1.7782,1.7776,1.7749,1.7695,1.7622,1.7589,1.7589,1.7589,1.7589,1.7589,1.7589,1.7589,1.7589,1.7589,1.7589,1.7589,1.7589,1.7589,1.7589,1.7589,1.7589,1.7589,1.7589,1.7589,1.7589,1.7589,1.7589,1.7589,1.7589,1.7589,1.7589,1.7589,1.7589,1.7589,1.7589,1.7589,1.7589,1.7641,1.7635,1.7845,1.8062,1.8325,1.8743,1.9116,1.922,1.9272,1.9272,1.9272,1.9272,1.9272,1.9272,1.9272,1.9272,1.9272,1.9272,1.9308,1.9463,1.9747,2.0117,2.0409,2.0728,2.105,2.1211,2.1211,2.1268,2.1482,2.2256,2.4347,2.6118,2.7511,2.8184,2.8237,2.8301,2.8301,2.8301,2.8301,1.9178,1.8925,1.8848,1.8502,1.8062,1.8029,1.7876,1.7602,1.7589,1.7589,1.7589,1.7589,1.7589,1.7589,1.7589,1.7589,1.7589,1.7589,1.7589,1.7589,1.7589,1.7589,1.7589,1.7589,1.7589,1.7589,1.7589,1.7589,1.7589,1.7589,1.7589,1.7589,1.7589,1.7622,1.7642,1.7702,1.7789,1.7849,1.7975,1.8043,1.8056,1.805,1.7949,1.7836,1.7722,1.7689,1.7662,1.7622,1.7595,1.7589,1.7589,1.7589,1.7589,1.7589,1.7589,1.7589,1.7589,1.7589,1.7589,1.7589,1.7589,1.7589,1.7589,1.7589,1.7589,1.7589,1.7589,1.7589,1.7589,1.7589,1.7589,1.7589,1.7589,1.7589,1.7589,1.7589,1.7589,1.774,1.795,1.816,1.8429,1.8795,1.9168,1.9272,1.9272,1.9272,1.9272,1.9272,1.9272,1.9272,1.9272,1.9272,1.9272,1.9272,1.9316,1.9419,1.9703,2.0081,2.0205,2.0446,2.0859,2.1211,2.1211,2.1261,2.1425,2.2531,2.4458,2.6282,2.7906,2.8301,2.8301,2.8301,2.8301,2.8301,2.8301,1.8885,1.8604,1.8328,1.8142,1.7982,1.7809,1.7662,1.7589,1.7589,1.7589,1.7589,1.7589,1.7589,1.7589,1.7589,1.7589,1.7589,1.7589,1.7589,1.7589,1.7589,1.7589,1.7589,1.7589,1.7589,1.7589,1.7589,1.7589,1.7589,1.7589,1.7609,1.7589,1.7669,1.7742,1.7849,1.7916,1.7955,1.8062,1.8229,1.8343,1.8364,1.8357,1.8257,1.8163,1.7976,1.7923,1.7856,1.7695,1.7635,1.7589,1.7589,1.7589,1.7589,1.7589,1.7589,1.7589,1.7589,1.7589,1.7589,1.7589,1.7589,1.7589,1.7589,1.7589,1.7589,1.7589,1.7589,1.7589,1.7589,1.7589,1.7589,1.7589,1.7589,1.7589,1.7589,1.7589,1.7641,1.7799,1.801,1.8377,1.8646,1.89,1.922,1.9272,1.9272,1.9272,1.9272,1.9272,1.9272,1.9272,1.9272,1.9272,1.9272,1.9272,1.9286,1.933,1.9703,2.0,2.0168,2.0424,2.0933,2.1211,2.1211,2.1539,2.2085,2.3079,2.4458,2.6291,2.8184,2.8301,2.8301,2.8301,2.8301,2.8301,2.8301,1.8584,1.831,1.8069,1.7922,1.7842,1.7662,1.7589,1.7589,1.7589,1.7589,1.7589,1.7589,1.7589,1.7589,1.7589,1.7589,1.7589,1.7589,1.7589,1.7589,1.7589,1.7589,1.7589,1.7589,1.7589,1.7589,1.7589,1.7589,1.7622,1.7729,1.7776,1.7802,1.7849,1.8029,1.8203,1.8282,1.8355,1.8484,1.8564,1.8637,1.8657,1.8644,1.8604,1.849,1.8297,1.8142,1.7995,1.7822,1.7729,1.7615,1.7589,1.7589,1.7589,1.7589,1.7589,1.7589,1.7589,1.7589,1.7589,1.7589,1.7589,1.7589,1.7589,1.7589,1.7589,1.7589,1.7589,1.7589,1.7589,1.7589,1.7589,1.7589,1.7589,1.7589,1.7589,1.7589,1.7747,1.7852,1.8174,1.8548,1.8862,1.9063,1.922,1.9272,1.9272,1.9272,1.9272,1.9272,1.9272,1.9272,1.9272,1.9272,1.9272,1.9272,1.9301,1.9411,1.9777,2.0135,2.0391,2.0684,2.1079,2.1268,2.1268,2.2093,2.3079,2.3958,2.4782,2.6672,2.8301,2.8301,2.8301,2.8301,2.8301,2.8301,2.8301,1.8277,1.7955,1.7955,1.7836,1.7609,1.7589,1.7589,1.7589,1.7589,1.7589,1.7589,1.7589,1.7589,1.7589,1.7589,1.7589,1.7589,1.7589,1.7589,1.7589,1.7589,1.7589,1.7589,1.7589,1.7589,1.7589,1.7602,1.7629,1.7729,1.7896,1.8083,1.8042,1.8283,1.8437,1.8531,1.8691,1.8784,1.8885,1.8918,1.8958,1.8958,1.8925,1.8838,1.8644,1.8524,1.8417,1.8115,1.7955,1.7856,1.7702,1.7589,1.7589,1.7589,1.7589,1.7589,1.7589,1.7589,1.7589,1.7589,1.7589,1.7589,1.7589,1.7589,1.7589,1.7589,1.7589,1.7589,1.7589,1.7589,1.7589,1.7589,1.7589,1.7589,1.7589,1.7589,1.7589,1.7641,1.7905,1.8331,1.8705,1.8966,1.9175,1.922,1.9272,1.9272,1.9272,1.9272,1.9272,1.9279,1.9279,1.9301,1.9294,1.9286,1.9323,1.9455,1.9601,1.9901,2.0216,2.0516,2.0794,2.1123,2.1261,2.1382,2.2263,2.3247,2.4181,2.5168,2.6952,2.813,2.8301,2.8301,2.8301,2.8301,2.8301,2.8301,1.7976,1.7695,1.7695,1.7642,1.7589,1.7589,1.7589,1.7589,1.7589,1.7589,1.7589,1.7589,1.7589,1.7589,1.7589,1.7589,1.7589,1.7589,1.7589,1.7589,1.7589,1.7589,1.7589,1.7589,1.7589,1.7589,1.7615,1.7736,1.7963,1.8203,1.8384,1.839,1.8544,1.8651,1.8811,1.8965,1.9038,1.9185,1.9205,1.9205,1.9212,1.9245,1.9256,1.9065,1.8965,1.8664,1.841,1.815,1.7909,1.7649,1.7602,1.7589,1.7589,1.7589,1.7589,1.7589,1.7589,1.7589,1.7589,1.7589,1.7589,1.7589,1.7589,1.7589,1.7589,1.7589,1.7589,1.7589,1.7589,1.7589,1.7589,1.7589,1.7589,1.7589,1.7641,1.7641,1.7641,1.801,1.8436,1.8757,1.9018,1.9175,1.9227,1.9272,1.9272,1.9272,1.9272,1.9279,1.9286,1.9301,1.936,1.936,1.9308,1.9367,1.9535,1.982,2.0135,2.0384,2.0669,2.0933,2.1231,2.1417,2.171,2.2433,2.3311,2.4292,2.5443,2.6952,2.7843,2.8184,2.8301,2.8301,2.8301,2.8301,2.8301,1.7742,1.7589,1.7589,1.7589,1.7589,1.7589,1.7589,1.7589,1.7589,1.7589,1.7589,1.7589,1.7589,1.7589,1.7589,1.7589,1.7589,1.7589,1.7589,1.7589,1.7589,1.7589,1.7589,1.7602,1.7589,1.7595,1.7769,1.7956,1.8243,1.851,1.8677,1.8704,1.8778,1.8931,1.9105,1.9132,1.9185,1.9345,1.9424,1.9424,1.9424,1.9424,1.9424,1.9343,1.9178,1.8891,1.8571,1.8283,1.8003,1.7722,1.7595,1.7589,1.7589,1.7589,1.7589,1.7589,1.7589,1.7589,1.7589,1.7589,1.7589,1.7589,1.7589,1.7589,1.7589,1.7589,1.7589,1.7589,1.7589,1.7589,1.7589,1.7589,1.7589,1.7589,1.7641,1.7635,1.7747,1.8016,1.8443,1.8817,1.9026,1.9078,1.9175,1.9272,1.9272,1.9272,1.9272,1.9294,1.9301,1.9403,1.9447,1.952,1.9535,1.9535,1.972,2.0011,2.0398,2.0633,2.0837,2.1402,2.1866,2.193,2.2157,2.2813,2.3584,2.4505,2.5726,2.7006,2.7843,2.8237,2.8301,2.8301,2.8301,2.8301,2.8301,1.7589,1.7589,1.7589,1.7589,1.7589,1.7589,1.7589,1.7589,1.7589,1.7589,1.7589,1.7589,1.7589,1.7589,1.7589,1.7589,1.7589,1.7589,1.7589,1.7589,1.7589,1.7589,1.7615,1.7642,1.7736,1.7896,1.8083,1.8297,1.8544,1.8811,1.8998,1.9038,1.9178,1.9417,1.9424,1.9417,1.9424,1.9424,1.9424,1.9424,1.9424,1.9424,1.9424,1.9424,1.9377,1.9058,1.8684,1.8397,1.8136,1.7836,1.7589,1.7589,1.7589,1.7589,1.7589,1.7589,1.7589,1.7589,1.7589,1.7589,1.7589,1.7589,1.7589,1.7589,1.7589,1.7589,1.7589,1.7589,1.7589,1.7589,1.7589,1.7589,1.7589,1.7589,1.7641,1.7701,1.7865,1.803,1.8457,1.8838,1.8995,1.91,1.9189,1.9286,1.9272,1.9272,1.9294,1.9308,1.9374,1.955,1.9667,1.9828,1.9952,1.9945,1.9967,2.0201,2.0618,2.0823,2.107,2.1904,2.2539,2.2813,2.2974,2.3087,2.3855,2.5223,2.5836,2.6844,2.752,2.8291,2.8301,2.8301,2.8301,2.8301,2.8301,1.7589,1.7589,1.7589,1.7589,1.7589,1.7589,1.7589,1.7589,1.7589,1.7589,1.7589,1.7589,1.7589,1.7589,1.7589,1.7589,1.7589,1.7589,1.7589,1.7589,1.7589,1.7589,1.7682,1.7876,1.8096,1.8303,1.8517,1.8751,1.8858,1.9105,1.9272,1.9272,1.9279,1.9424,1.9424,1.9424,1.9424,1.9424,1.9424,1.9424,1.9424,1.9424,1.9424,1.9424,1.9417,1.8991,1.8664,1.851,1.813,1.7789,1.7589,1.7589,1.7589,1.7589,1.7589,1.7589,1.7589,1.7589,1.7589,1.7589,1.7589,1.7589,1.7589,1.7589,1.7589,1.7589,1.7589,1.7589,1.7589,1.7589,1.7589,1.7589,1.7589,1.7589,1.7641,1.7833,1.7959,1.8229,1.8559,1.8888,1.9165,1.9203,1.924,1.9263,1.9272,1.9286,1.9382,1.9426,1.9632,1.9733,1.9901,2.0113,2.0325,2.0486,2.0552,2.0516,2.0801,2.1006,2.1365,2.207,2.2918,2.3847,2.4069,2.4078,2.5131,2.6509,2.7015,2.6907,2.7628,2.8301,2.8301,2.8301,2.8301,2.8301,2.8301]}]]